[[{"header":{"parameterUnit":"m.s-1","parameterCategory":1,"la1":30.6,"la2":29.2853,"lo1":-89.7004,"lo2":-87.6739,"dy":0.0162,"dx":0.0183,"nx":112,"ny":82,"refTime":"2024-02-09T06:00:00:Z","depth":0,"parameterNumber":2,"parameterNumberName":"U-component_of_WINDS"},"data":[0.0,0.0,0.0,0.0,0.0,0.0,0.0,0.0,0.0,0.0,0.0,0.0,0.0,0.0,0.0,0.0,0.0,0.0,0.0,0.0,0.0,0.0,0.0,0.0,0.0,0.0,0.0,0.0,0.0,0.0,0.0,0.0,0.0,0.0,0.0,0.0,0.0,0.0,0.0,0.0,0.0,0.0,0.0,0.0,0.0,0.0,0.0,0.0,0.0,0.0,0.0,0.0,0.0,0.0,0.0,0.0,0.0,0.0,0.0,0.0,0.0,0.0,0.0,0.0,0.0,0.0,0.0,0.0,0.0,0.0,0.0,0.0,0.0,0.0,0.0,0.0,0.0,0.0,0.0,0.0,0.0,0.0,0.0,0.0,0.0,0.0,0.0,0.0,0.0,0.0,0.0,2.9921,3.0163,3.0126,2.9786,2.9756,2.9628,2.9322,0.0,0.0,0.0,0.0,0.0,0.0,0.0,0.0,0.0,0.0,0.0,0.0,0.0,0.0,0.0,0.0,0.0,0.0,0.0,0.0,0.0,0.0,0.0,0.0,0.0,0.0,0.0,0.0,0.0,0.0,0.0,0.0,0.0,0.0,0.0,0.0,0.0,0.0,0.0,0.0,0.0,0.0,0.0,0.0,0.0,0.0,0.0,0.0,0.0,0.0,0.0,0.0,0.0,0.0,0.0,0.0,0.0,0.0,0.0,0.0,0.0,0.0,0.0,0.0,0.0,0.0,0.0,0.0,0.0,0.0,0.0,0.0,0.0,0.0,0.0,0.0,0.0,0.0,0.0,0.0,0.0,0.0,0.0,0.0,0.0,0.0,0.0,0.0,0.0,0.0,0.0,0.0,0.0,0.0,0.0,0.0,0.0,0.0,0.0,0.0,0.0,0.0,0.0,0.0,2.9609,3.0404,3.1354,3.1782,3.1373,3.1341,3.116,3.0718,0.0,0.0,0.0,0.0,0.0,0.0,0.0,0.0,0.0,0.0,0.0,0.0,0.0,0.0,0.0,0.0,0.0,0.0,0.0,0.0,0.0,0.0,0.0,0.0,0.0,0.0,0.0,0.0,0.0,0.0,0.0,0.0,0.0,0.0,0.0,0.0,0.0,0.0,0.0,0.0,0.0,0.0,0.0,0.0,0.0,0.0,0.0,0.0,0.0,0.0,0.0,0.0,0.0,0.0,0.0,0.0,0.0,0.0,0.0,0.0,0.0,0.0,0.0,0.0,0.0,0.0,0.0,0.0,0.0,0.0,0.0,0.0,0.0,0.0,0.0,0.0,0.0,0.0,0.0,0.0,0.0,0.0,0.0,0.0,0.0,0.0,0.0,0.0,0.0,0.0,0.0,0.0,0.0,0.0,0.0,0.0,0.0,0.0,0.0,0.0,0.0,0.0,0.0,2.9955,3.0397,3.0732,3.1227,3.1465,3.1276,3.1261,3.1176,3.095,3.0402,0.0,0.0,0.0,0.0,0.0,0.0,0.0,0.0,0.0,0.0,0.0,0.0,0.0,0.0,0.0,0.0,0.0,0.0,0.0,0.0,0.0,0.0,0.0,0.0,0.0,0.0,0.0,0.0,0.0,0.0,0.0,0.0,0.0,0.0,0.0,0.0,0.0,0.0,0.0,0.0,0.0,0.0,0.0,0.0,0.0,0.0,0.0,0.0,0.0,0.0,0.0,0.0,0.0,0.0,0.0,0.0,0.0,0.0,0.0,0.0,0.0,0.0,0.0,0.0,0.0,0.0,0.0,0.0,0.0,0.0,0.0,0.0,0.0,0.0,0.0,0.0,0.0,0.0,0.0,0.0,0.0,0.0,0.0,0.0,0.0,0.0,0.0,0.0,0.0,0.0,0.0,0.0,0.0,0.0,0.0,0.0,0.0,0.0,0.0,0.0,0.0,0.0,3.0568,3.0967,3.0907,3.0902,3.0902,3.0902,3.0902,3.0892,3.0856,3.092,0.0,0.0,0.0,0.0,0.0,0.0,0.0,0.0,0.0,0.0,0.0,0.0,0.0,0.0,0.0,0.0,0.0,0.0,0.0,0.0,0.0,0.0,0.0,0.0,0.0,0.0,0.0,0.0,0.0,0.0,0.0,0.0,0.0,0.0,0.0,0.0,0.0,0.0,0.0,0.0,0.0,0.0,0.0,0.0,0.0,0.0,0.0,0.0,0.0,0.0,0.0,0.0,0.0,0.0,0.0,0.0,0.0,0.0,0.0,0.0,0.0,0.0,0.0,0.0,0.0,0.0,0.0,0.0,0.0,0.0,0.0,0.0,0.0,0.0,0.0,0.0,0.0,0.0,0.0,0.0,0.0,0.0,0.0,0.0,0.0,0.0,0.0,0.0,0.0,0.0,0.0,0.0,0.0,0.0,0.0,0.0,0.0,0.0,0.0,0.0,0.0,0.0,3.0873,3.0907,3.0902,3.0902,3.0902,3.0902,3.0902,3.0851,3.0717,3.0846,0.0,0.0,0.0,0.0,0.0,0.0,0.0,0.0,0.0,0.0,0.0,0.0,0.0,0.0,0.0,0.0,0.0,0.0,0.0,0.0,0.0,0.0,0.0,0.0,0.0,0.0,0.0,0.0,0.0,0.0,0.0,0.0,0.0,0.0,0.0,0.0,0.0,0.0,0.0,0.0,0.0,0.0,0.0,0.0,0.0,0.0,0.0,0.0,0.0,0.0,0.0,0.0,0.0,0.0,0.0,0.0,0.0,0.0,0.0,0.0,0.0,0.0,0.0,0.0,0.0,0.0,0.0,0.0,0.0,0.0,0.0,0.0,0.0,0.0,0.0,0.0,0.0,0.0,0.0,0.0,0.0,0.0,0.0,0.0,0.0,0.0,0.0,0.0,0.0,0.0,0.0,0.0,0.0,0.0,0.0,0.0,0.0,0.0,0.0,0.0,0.0,0.0,3.1134,3.1433,0.0,3.1753,3.2014,3.2014,3.2014,3.2009,3.1944,0.0,0.0,0.0,0.0,0.0,0.0,0.0,0.0,0.0,0.0,0.0,0.0,0.0,0.0,0.0,0.0,0.0,0.0,0.0,0.0,0.0,0.0,0.0,0.0,0.0,0.0,0.0,0.0,0.0,0.0,0.0,0.0,0.0,0.0,0.0,0.0,0.0,0.0,0.0,0.0,0.0,0.0,0.0,0.0,0.0,0.0,0.0,0.0,0.0,0.0,0.0,0.0,0.0,0.0,0.0,0.0,0.0,0.0,0.0,0.0,0.0,0.0,0.0,0.0,0.0,0.0,0.0,0.0,0.0,0.0,0.0,0.0,0.0,0.0,0.0,0.0,0.0,0.0,0.0,0.0,0.0,0.0,0.0,0.0,0.0,0.0,0.0,0.0,0.0,0.0,0.0,0.0,0.0,0.0,0.0,0.0,0.0,0.0,0.0,0.0,0.0,0.0,3.1172,3.1723,3.2049,0.0,3.2398,3.2696,3.2696,3.2696,3.2696,3.2696,0.0,0.0,0.0,0.0,0.0,0.0,0.0,0.0,0.0,0.0,0.0,0.0,0.0,0.0,0.0,0.0,0.0,0.0,0.0,0.0,0.0,0.0,0.0,0.0,0.0,0.0,0.0,0.0,0.0,0.0,0.0,0.0,0.0,0.0,0.0,0.0,0.0,0.0,0.0,0.0,0.0,0.0,0.0,0.0,0.0,0.0,0.0,0.0,0.0,0.0,0.0,0.0,0.0,0.0,0.0,0.0,0.0,0.0,0.0,0.0,0.0,0.0,0.0,0.0,0.0,0.0,0.0,0.0,0.0,0.0,0.0,0.0,0.0,0.0,0.0,0.0,0.0,0.0,0.0,0.0,0.0,0.0,0.0,0.0,0.0,0.0,0.0,0.0,0.0,0.0,0.0,0.0,0.0,0.0,0.0,0.0,0.0,0.0,0.0,0.0,0.0,0.0,3.2608,3.2713,3.2707,3.2707,3.2713,3.2724,3.2724,3.2724,3.2724,0.0,0.0,0.0,0.0,0.0,0.0,0.0,0.0,0.0,0.0,0.0,0.0,0.0,0.0,0.0,0.0,0.0,0.0,0.0,0.0,0.0,0.0,0.0,0.0,0.0,0.0,0.0,0.0,0.0,0.0,0.0,0.0,0.0,0.0,0.0,0.0,0.0,0.0,0.0,0.0,0.0,0.0,0.0,0.0,0.0,0.0,0.0,0.0,0.0,0.0,0.0,0.0,0.0,0.0,0.0,0.0,0.0,0.0,0.0,0.0,0.0,0.0,0.0,0.0,0.0,0.0,0.0,0.0,0.0,0.0,0.0,0.0,0.0,0.0,0.0,0.0,0.0,0.0,0.0,0.0,0.0,0.0,0.0,0.0,0.0,0.0,0.0,0.0,0.0,0.0,0.0,0.0,0.0,0.0,0.0,0.0,0.0,0.0,0.0,0.0,0.0,0.0,0.0,3.2663,3.3155,3.3469,3.3469,3.3944,3.4242,3.4242,3.4242,3.4242,3.4242,0.0,0.0,0.0,0.0,0.0,0.0,0.0,0.0,0.0,0.0,0.0,0.0,0.0,0.0,0.0,0.0,0.0,0.0,0.0,0.0,0.0,0.0,0.0,0.0,0.0,0.0,0.0,0.0,0.0,0.0,0.0,0.0,0.0,0.0,0.0,0.0,0.0,0.0,0.0,0.0,0.0,0.0,0.0,0.0,0.0,0.0,0.0,0.0,0.0,0.0,0.0,0.0,0.0,0.0,0.0,0.0,0.0,0.0,0.0,0.0,0.0,0.0,0.0,0.0,0.0,0.0,0.0,0.0,0.0,0.0,0.0,0.0,0.0,0.0,0.0,0.0,0.0,0.0,0.0,0.0,0.0,0.0,0.0,0.0,0.0,0.0,0.0,0.0,0.0,0.0,0.0,0.0,0.0,0.0,0.0,0.0,0.0,0.0,0.0,0.0,0.0,0.0,3.3536,3.3967,3.4242,3.4242,3.464,3.4905,3.4905,3.4905,3.4905,3.4905,0.0,0.0,0.0,0.0,0.0,0.0,0.0,0.0,0.0,0.0,0.0,0.0,0.0,0.0,0.0,0.0,0.0,0.0,0.0,0.0,0.0,0.0,0.0,0.0,0.0,0.0,0.0,0.0,0.0,0.0,0.0,0.0,0.0,0.0,0.0,0.0,0.0,0.0,0.0,0.0,0.0,0.0,0.0,0.0,0.0,0.0,0.0,0.0,0.0,0.0,0.0,0.0,0.0,0.0,0.0,0.0,0.0,0.0,0.0,0.0,0.0,0.0,0.0,0.0,0.0,0.0,0.0,0.0,0.0,0.0,0.0,0.0,0.0,0.0,0.0,0.0,0.0,0.0,0.0,0.0,0.0,0.0,0.0,0.0,0.0,0.0,0.0,0.0,0.0,0.0,0.0,0.0,0.0,0.0,0.0,0.0,0.0,0.0,0.0,0.0,0.0,0.0,3.4816,3.4905,3.4905,3.4905,3.4905,3.4905,3.4905,3.4905,3.4905,3.4905,0.0,0.0,0.0,0.0,0.0,0.0,0.0,0.0,0.0,0.0,0.0,0.0,0.0,0.0,0.0,0.0,0.0,0.0,0.0,0.0,0.0,0.0,0.0,0.0,0.0,0.0,0.0,0.0,0.0,0.0,0.0,0.0,0.0,0.0,0.0,0.0,0.0,0.0,0.0,0.0,0.0,0.0,0.0,0.0,0.0,0.0,0.0,0.0,0.0,0.0,0.0,0.0,0.0,0.0,0.0,0.0,0.0,0.0,0.0,0.0,2.9257,0.0,0.0,0.0,0.0,0.0,0.0,0.0,0.0,0.0,0.0,0.0,0.0,0.0,0.0,0.0,0.0,0.0,0.0,0.0,0.0,0.0,0.0,0.0,0.0,0.0,0.0,0.0,0.0,0.0,0.0,0.0,0.0,0.0,0.0,0.0,0.0,0.0,0.0,0.0,0.0,0.0,3.4883,3.4905,3.4905,3.4905,3.4905,3.4905,3.4905,3.4905,3.4905,3.4905,3.4905,0.0,0.0,0.0,0.0,0.0,0.0,0.0,0.0,0.0,0.0,0.0,0.0,0.0,0.0,0.0,0.0,0.0,0.0,0.0,0.0,0.0,0.0,0.0,0.0,0.0,0.0,0.0,0.0,0.0,0.0,0.0,0.0,0.0,0.0,0.0,0.0,0.0,0.0,0.0,0.0,0.0,0.0,0.0,0.0,0.0,0.0,0.0,0.0,0.0,0.0,0.0,0.0,0.0,0.0,0.0,0.0,0.0,0.0,0.0,0.0,2.9926,0.0,0.0,0.0,0.0,0.0,0.0,0.0,0.0,0.0,0.0,0.0,0.0,0.0,0.0,0.0,0.0,0.0,0.0,0.0,0.0,0.0,0.0,0.0,0.0,0.0,0.0,0.0,0.0,0.0,0.0,0.0,0.0,0.0,0.0,0.0,0.0,0.0,0.0,0.0,0.0,3.4905,3.4905,3.4905,3.4905,3.4905,3.4905,3.4905,3.4905,3.4905,3.4905,3.4905,0.0,0.0,0.0,0.0,0.0,0.0,0.0,0.0,0.0,0.0,0.0,0.0,0.0,0.0,0.0,0.0,0.0,0.0,0.0,0.0,0.0,0.0,0.0,0.0,0.0,0.0,0.0,0.0,0.0,0.0,0.0,0.0,0.0,0.0,0.0,0.0,0.0,0.0,0.0,0.0,0.0,0.0,0.0,0.0,0.0,0.0,0.0,0.0,0.0,0.0,0.0,0.0,0.0,3.1812,3.2377,3.2867,3.2867,3.3213,3.3726,3.1611,3.0638,3.0516,0.0,0.0,0.0,0.0,0.0,0.0,0.0,0.0,0.0,0.0,0.0,0.0,0.0,0.0,0.0,0.0,0.0,0.0,0.0,0.0,0.0,0.0,0.0,0.0,0.0,3.2567,3.2718,0.0,0.0,0.0,0.0,0.0,0.0,0.0,0.0,0.0,0.0,0.0,0.0,3.4905,3.4905,3.4905,3.4905,3.4905,3.4905,3.4905,3.4905,3.4905,3.4905,3.4905,3.4905,0.0,0.0,0.0,0.0,0.0,0.0,0.0,0.0,0.0,0.0,0.0,0.0,0.0,0.0,0.0,0.0,0.0,0.0,0.0,0.0,0.0,0.0,0.0,0.0,0.0,0.0,0.0,0.0,0.0,0.0,0.0,0.0,2.908,2.9462,0.0,0.0,0.0,0.0,0.0,0.0,0.0,0.0,0.0,0.0,0.0,0.0,0.0,3.2156,3.2117,3.2896,3.3255,3.3222,3.3313,3.3405,3.3475,3.3475,3.3548,3.3627,3.3284,0.0,3.2176,3.2176,0.0,0.0,0.0,0.0,0.0,0.0,0.0,0.0,0.0,0.0,0.0,0.0,0.0,0.0,0.0,0.0,0.0,0.0,0.0,0.0,0.0,0.0,3.2613,3.2613,3.3155,3.3635,0.0,3.3088,3.2895,3.3536,3.3646,0.0,0.0,0.0,0.0,0.0,0.0,0.0,3.4905,3.4905,3.4905,3.4905,3.4905,3.4905,3.4905,3.4905,3.4905,3.4905,3.4905,3.4905,3.4905,3.4905,0.0,0.0,0.0,0.0,0.0,0.0,0.0,0.0,0.0,0.0,0.0,0.0,0.0,0.0,0.0,0.0,0.0,0.0,0.0,0.0,0.0,0.0,0.0,0.0,0.0,0.0,0.0,0.0,0.0,2.9363,2.9608,2.9938,2.9875,2.9868,0.0,0.0,0.0,0.0,0.0,0.0,0.0,0.0,0.0,3.2107,3.2767,3.3056,3.2887,3.381,3.4179,3.4004,3.4404,3.4503,3.4331,3.4331,3.4331,3.4331,3.4331,3.4141,3.3811,3.3324,3.3008,3.2806,0.0,0.0,0.0,0.0,3.2806,3.2787,3.2641,3.2493,0.0,0.0,0.0,0.0,0.0,0.0,0.0,0.0,0.0,0.0,0.0,0.0,0.0,3.332,3.3884,3.4425,3.4425,3.416,3.4027,0.0,3.4425,3.4524,3.4839,0.0,0.0,0.0,0.0,3.4905,3.4905,3.4905,3.4905,3.4905,3.4905,3.4905,3.4905,3.4905,3.4905,3.4905,3.4905,3.4905,3.4905,3.4905,3.4905,0.0,0.0,0.0,0.0,0.0,0.0,0.0,0.0,0.0,0.0,0.0,0.0,0.0,0.0,0.0,0.0,0.0,0.0,0.0,0.0,0.0,0.0,0.0,0.0,0.0,0.0,0.0,0.0,3.0196,3.0265,3.0793,3.0556,3.0529,0.0,0.0,0.0,0.0,0.0,0.0,3.2681,3.3389,3.3697,3.349,3.3765,3.393,3.3918,3.4705,3.5082,3.5017,3.5571,3.5709,3.5462,3.5462,3.5462,3.5462,3.5462,3.5462,3.5388,3.4364,3.3972,3.4052,3.4052,3.4115,3.4183,3.4088,3.4052,3.4041,3.3956,3.3791,3.3672,3.3866,0.0,3.3797,3.4005,0.0,0.0,0.0,0.0,3.3584,3.3322,3.3668,3.4077,3.4077,3.4507,3.4905,3.4905,3.4905,3.4905,0.0,3.4905,3.4905,3.4905,0.0,0.0,0.0,0.0,3.4905,3.4905,3.4905,3.4905,3.4905,3.4905,3.4905,3.4905,3.4905,3.4905,3.4905,3.4905,3.4905,3.4905,3.4905,3.4905,3.4905,0.0,0.0,0.0,0.0,0.0,0.0,0.0,0.0,0.0,0.0,0.0,0.0,0.0,0.0,0.0,0.0,0.0,0.0,0.0,0.0,0.0,0.0,0.0,0.0,0.0,0.0,0.0,0.0,0.0,3.2776,3.2604,0.0,0.0,0.0,0.0,3.3094,3.3375,3.3423,3.3174,3.3865,3.4252,3.4241,3.4628,3.5156,3.5851,3.5919,3.6284,3.6955,3.6995,3.7015,3.6996,3.6996,3.6996,3.6996,3.6996,3.6996,3.6887,3.5432,3.5019,3.5312,3.5312,3.5509,3.5744,3.5425,3.5312,3.5255,3.496,3.4825,3.4819,3.483,3.5042,3.5289,3.5307,3.5312,0.0,0.0,3.506,3.4807,3.4789,3.4822,3.4839,3.4839,3.4872,3.4905,3.4905,3.4905,3.4905,0.0,3.4905,3.4905,3.4905,0.0,3.4905,3.4905,3.4905,3.4905,3.4905,3.4905,3.4905,3.4905,3.4905,3.4905,3.4905,3.4905,3.4905,3.4905,3.4905,3.4905,3.4905,3.4905,3.4905,3.4905,3.4905,0.0,0.0,0.0,0.0,0.0,0.0,0.0,0.0,0.0,0.0,0.0,0.0,0.0,0.0,0.0,0.0,0.0,0.0,0.0,0.0,0.0,0.0,0.0,0.0,0.0,0.0,0.0,0.0,3.3279,3.3141,0.0,3.3586,3.3897,3.4013,3.3916,3.4231,3.4392,3.4294,3.4999,3.5393,3.5393,3.5981,3.6433,3.6715,3.6715,3.6831,3.7096,3.7096,3.7096,3.7112,3.7593,3.7801,3.7841,3.8301,3.8523,3.8473,3.7943,3.7234,3.6497,3.6497,3.6566,3.6652,3.653,3.6497,3.6479,3.6367,3.6324,3.6324,3.6324,3.6404,3.6497,3.6497,3.6497,3.6497,3.6497,3.6399,3.6324,3.6324,3.6324,3.6324,3.6324,3.6324,3.6324,3.6324,3.6324,3.6324,3.6324,3.592,3.5611,3.5611,3.6009,3.6324,3.6324,3.6324,3.6324,3.6324,3.6324,3.6324,3.6324,3.6324,3.6324,3.6324,3.6324,3.6108,3.5644,3.5611,3.5396,3.4922,3.4905,3.4905,3.4905,3.4905,3.4905,0.0,0.0,0.0,0.0,0.0,0.0,0.0,0.0,0.0,0.0,0.0,0.0,0.0,0.0,0.0,0.0,0.0,0.0,0.0,0.0,0.0,0.0,0.0,0.0,0.0,0.0,3.2858,3.3879,3.3643,3.3609,3.4152,3.4611,3.4866,3.4866,3.5356,3.5644,3.5644,3.6108,3.6367,3.6367,3.7096,3.7593,3.7831,3.8096,3.8328,3.8553,3.8553,3.8553,3.857,3.906,3.9275,3.9308,3.9809,4.0014,4.0014,4.0014,3.9428,3.848,3.7758,3.7328,3.7096,3.7096,3.7096,3.7096,3.7096,3.7096,3.7096,3.7096,3.7096,3.7096,3.7096,3.7096,3.7096,3.7096,3.7096,3.7096,3.7096,3.7096,3.7096,3.7096,3.7096,3.7096,3.7096,3.7096,3.7096,3.7096,3.6715,3.6367,3.6367,3.6781,3.7096,3.7096,3.7096,3.7096,3.7096,3.7096,3.7096,3.7096,3.7096,3.7096,3.7096,3.7096,3.6897,3.64,3.6367,3.6152,3.5655,3.5644,3.5528,3.528,3.5038,3.4905,3.4905,0.0,0.0,0.0,0.0,0.0,0.0,0.0,0.0,0.0,0.0,0.0,0.0,0.0,0.0,0.0,0.0,0.0,0.0,0.0,0.0,0.0,0.0,0.0,3.2573,3.2933,3.3609,3.4686,3.4253,3.4288,3.5322,3.5783,3.6025,3.6025,3.6698,3.7112,3.7129,3.7162,3.7178,3.7195,3.7917,3.8642,3.9365,4.0071,4.0753,4.1394,4.1394,4.1394,4.1394,4.1428,4.1428,4.1444,4.1477,4.1494,4.1494,4.1494,4.1494,4.1262,3.9126,3.7851,3.7228,3.7228,3.7228,3.7228,3.7228,3.7228,3.7228,3.7228,3.7228,3.7228,3.7228,3.7228,3.7228,3.7228,3.7228,3.7228,3.7228,3.7228,3.7228,3.7228,3.7228,3.7228,3.7228,3.7228,3.7222,3.7213,3.7196,3.7186,3.7139,3.7133,3.7137,3.7137,3.7124,0.0,3.7111,3.7111,3.7118,3.7137,3.7137,3.7143,3.7162,3.7162,3.7162,3.7145,3.7129,3.7122,3.7096,3.7096,3.6764,3.6059,3.533,3.4971,3.4971,0.0,0.0,0.0,0.0,0.0,0.0,0.0,0.0,0.0,0.0,0.0,0.0,0.0,0.0,0.0,0.0,0.0,0.0,0.0,0.0,0.0,3.3278,3.3567,3.3779,3.3712,3.3939,3.4764,3.5184,3.5504,3.58,3.6412,3.6798,3.6798,3.6996,3.7321,3.7868,3.8401,3.8937,3.9484,4.0159,4.0623,4.0829,4.1021,4.1219,4.1394,4.1394,4.1394,4.1411,4.1957,4.2199,4.2255,4.333,4.3785,4.3785,4.3785,4.3472,4.2828,4.1179,4.0401,4.0219,4.0219,4.0219,4.0219,4.0219,4.0219,4.0219,4.0219,4.0219,4.0219,4.0219,4.0219,4.0219,4.0219,4.0219,4.0219,4.0219,4.0219,4.0219,4.0219,4.0219,4.0219,4.0219,4.0219,4.0064,3.9594,3.9492,3.9142,3.8077,3.7945,3.7969,3.7969,3.7609,0.0,3.7327,3.7327,3.749,3.7928,3.7969,3.8162,3.8656,3.8695,3.8467,3.7934,3.7901,3.7659,3.7112,3.7096,3.6996,3.6798,3.6599,3.65,0.0,0.0,0.0,0.0,0.0,0.0,0.0,0.0,0.0,0.0,0.0,0.0,0.0,0.0,0.0,0.0,0.0,0.0,0.0,0.0,0.0,0.0,3.391,3.4445,3.4947,3.4841,3.4883,3.5313,3.6003,3.645,3.645,3.74,3.8019,3.8019,3.857,3.9093,3.9523,3.9951,4.0372,4.0803,4.1501,4.1858,4.1858,4.2478,4.2783,4.2783,4.3098,4.324,4.3264,4.3687,4.3886,0.0,4.4795,4.5167,4.5167,4.5167,4.4903,0.0,0.0,0.0,0.0,0.0,4.1394,4.1394,4.1394,4.1394,4.1394,4.1394,4.1394,4.1394,4.1394,4.1394,4.1394,4.1394,4.1394,4.1394,4.1394,4.1394,4.1394,4.1394,4.1394,4.1394,4.1394,4.1394,4.1281,4.0883,4.0809,0.0,3.932,3.889,3.8724,3.8724,3.8426,3.8192,3.8192,3.8465,3.8666,3.87,3.8744,3.8904,3.9268,3.9044,0.0,0.0,0.0,3.8467,3.8036,3.7725,0.0,0.0,0.0,3.7096,3.7096,0.0,0.0,0.0,3.5821,3.5821,0.0,0.0,0.0,0.0,0.0,0.0,0.0,0.0,0.0,0.0,0.0,0.0,0.0,0.0,0.0,0.0,3.4541,3.5247,3.5909,3.6135,3.6218,3.6135,3.6854,3.7344,3.7344,3.8672,3.954,3.954,4.0696,4.1444,4.1527,0.0,0.0,0.0,0.0,4.2861,4.2861,4.4166,4.4819,4.4836,4.5491,4.5806,4.5806,4.5806,4.5806,4.5806,4.5888,4.5922,4.5922,4.5922,4.5872,4.5607,4.3637,4.2471,4.1898,4.1898,4.1898,4.1898,4.1898,0.0,0.0,4.1775,4.1716,4.1659,4.1659,4.1659,4.1659,4.1659,4.1659,4.1659,4.1659,4.1659,4.1659,4.1659,4.1659,4.1659,4.1659,4.1659,4.1621,4.155,4.1536,4.1311,4.0647,3.9853,3.929,3.9212,3.9204,3.9204,3.9204,3.985,4.0087,3.9502,0.0,0.0,3.9538,3.8995,3.8904,3.9507,3.9481,3.9431,3.9431,3.8725,3.8315,3.8315,3.7675,3.7344,3.7344,3.7344,3.7344,3.7344,3.7178,3.7096,0.0,0.0,0.0,0.0,0.0,0.0,0.0,0.0,0.0,0.0,0.0,0.0,0.0,0.0,0.0,3.459,3.5313,3.5843,3.597,3.7029,3.7553,3.6963,3.8053,3.8878,3.8878,4.015,4.0987,4.0987,4.1245,4.1659,4.2255,4.2844,4.3448,4.4033,4.4779,4.516,4.516,4.5441,4.5598,4.559,0.0,0.0,4.5806,4.5806,4.5806,4.5822,4.6435,4.6684,4.6684,4.6684,4.6336,4.5756,4.5325,4.5069,4.4953,4.4953,4.4953,4.4953,4.4953,4.4563,4.405,4.405,4.3661,4.3175,4.3175,4.3175,0.0,4.3175,4.3175,4.3175,4.3175,4.3175,4.3175,4.3175,4.3175,4.3175,4.3175,4.3175,4.3011,4.2473,4.2373,4.2141,4.1414,4.0222,3.9204,3.8659,3.8626,3.865,3.865,3.9259,3.9826,4.023,4.0289,4.0473,4.096,4.0878,4.0852,4.098,4.0495,4.0194,4.0194,3.9474,3.9093,3.9093,3.8944,3.8878,3.8878,3.8878,3.8878,3.8844,3.7649,3.7096,0.0,0.0,0.0,0.0,0.0,0.0,0.0,0.0,0.0,0.0,0.0,3.3917,3.4276,0.0,3.5015,3.5396,3.6075,3.6682,3.7046,3.8046,3.8616,3.8235,3.9176,3.9988,4.0322,4.1319,4.1957,4.1957,4.2627,4.3214,4.3578,4.43,4.487,4.525,4.5607,4.5806,4.5806,4.617,4.6352,4.6352,4.6725,4.6891,4.6891,4.6891,4.6891,4.6924,4.7289,4.7454,4.7454,4.7454,4.7222,4.6891,4.6891,4.6452,4.5806,4.5806,4.5806,4.5806,4.5806,4.5557,4.5242,4.5242,4.501,4.4697,4.4697,4.4697,4.4697,4.4697,4.4697,4.4697,4.4697,4.4697,4.4697,4.4697,4.4415,4.415,4.415,4.3861,4.3492,4.3166,4.3105,4.2881,4.2174,4.1469,4.0761,4.0053,3.9978,3.9995,3.9995,4.0297,4.0626,4.0958,4.0701,4.0761,4.1392,4.1415,4.1394,4.1394,4.1094,4.0895,4.0895,4.0554,4.0355,4.0355,4.0355,4.0355,4.0355,4.0355,4.0355,4.0339,3.9603,3.8868,0.0,0.0,0.0,0.0,0.0,0.0,0.0,0.0,3.401,3.401,3.4491,3.4905,3.4905,3.5495,3.6009,3.6009,3.6731,3.757,3.8305,3.9053,3.9613,3.9882,4.0445,4.1018,4.156,4.2404,4.2942,4.2942,4.4158,4.4911,4.4911,4.5607,4.6021,4.6021,4.6153,4.6236,4.6236,4.6825,4.7106,4.7123,4.7719,4.8001,4.8001,4.8001,4.8001,4.8001,4.8001,4.8001,4.8001,4.8001,4.8001,4.8001,4.8001,4.7272,4.6236,4.6236,4.6236,4.6236,4.6236,4.6137,4.6021,4.6021,4.5922,4.5806,4.5806,4.5806,4.5806,4.5806,4.5806,4.5806,4.5806,4.5806,4.5806,4.5806,4.5349,4.4911,4.4911,4.4456,4.4027,4.4027,4.4027,4.3852,4.3312,4.3226,4.279,4.1507,4.1542,4.1665,4.1525,4.1738,4.1909,4.1909,4.1422,4.1323,4.1856,4.1857,4.1825,4.1825,4.1692,4.161,4.161,4.1477,4.1394,4.1394,4.1394,4.1394,4.1394,4.1394,4.1394,4.1394,4.1394,4.0796,3.2035,3.2402,3.2591,3.2674,3.3188,3.3685,0.0,0.0,3.4773,3.4773,3.4839,3.4905,3.4905,3.5495,3.6009,3.6009,3.7162,3.8321,3.907,3.9806,4.0743,4.199,4.2206,4.2289,4.2364,4.3645,4.4455,4.4455,4.5209,4.5673,4.5673,4.6385,4.6783,4.6783,4.7404,4.7752,4.7752,4.7835,4.7885,4.7885,4.7968,4.8001,4.8001,4.8001,4.8001,4.8001,4.8001,4.8001,4.8001,4.8001,4.8001,4.8001,4.8001,4.7901,4.7752,4.7752,4.7752,4.7752,4.7752,4.7322,4.6783,4.6783,4.6336,4.5806,4.5806,4.5806,4.5806,4.5806,4.5806,4.5806,4.5806,4.5806,4.5806,4.5806,4.5739,4.5673,4.5673,4.5607,4.5557,4.5557,4.5557,4.5534,4.5447,4.5432,4.434,4.1102,4.1673,4.2245,4.1583,4.2585,4.3379,4.3379,4.3305,4.3285,4.3362,4.337,4.3357,4.3357,4.2745,4.2388,4.2388,4.1742,4.1394,4.1394,4.1394,4.1394,4.1394,4.1394,4.1394,4.1394,4.1394,4.1319,3.2979,3.3571,3.3983,0.0,3.4209,3.4441,3.4441,3.4673,3.4905,3.4905,3.4905,3.5038,3.5462,3.6135,3.6781,0.0,3.8526,3.9593,3.9905,4.0919,4.1832,4.2438,4.3256,4.3777,4.3777,4.4348,4.4886,4.5309,4.6021,4.6452,4.6452,4.7139,4.7537,4.7537,4.7835,4.8001,4.8001,4.8431,4.8638,4.8638,4.9069,4.9284,4.9284,4.9284,4.9284,4.9284,4.9284,4.9284,4.9251,4.8821,4.8638,4.8589,4.8158,4.8001,4.8001,4.8001,4.8001,4.8001,4.8001,4.7802,4.7537,4.7537,4.7322,4.7073,4.7073,4.7073,4.7073,4.7073,4.7073,4.7073,4.7073,4.7073,4.7073,4.7073,4.6742,4.6452,4.6452,4.6104,4.5806,4.5806,4.5806,4.5806,4.5806,4.5806,4.5157,4.3274,4.3848,4.4349,4.404,4.3801,4.3494,4.3061,4.3372,4.3606,4.3606,4.3606,4.3606,4.3606,4.3308,4.3142,4.3142,4.2844,4.2679,4.2679,4.2679,4.2679,4.2679,4.2679,4.2679,4.2679,4.2679,4.2679,3.3943,3.4491,0.0,3.4905,3.4905,3.4905,3.4905,3.4905,3.4905,3.4905,3.5054,3.5363,3.5903,3.6764,3.7576,3.8116,3.9444,4.0462,4.0644,4.1733,4.2579,4.2778,4.3926,4.4786,4.4985,4.52,4.5524,4.6071,4.6792,4.7206,4.7206,4.7719,4.8001,4.8001,4.8191,4.8299,4.8299,4.9036,4.94,4.9417,4.9938,5.0203,5.0203,5.0203,5.0203,5.0203,5.0203,5.0203,5.0162,4.9615,4.94,4.9351,4.8821,4.8605,4.8605,4.8605,4.8349,4.8001,4.8001,4.8001,4.8001,4.8001,4.8001,4.8001,4.8001,4.8001,4.8001,4.8001,4.8001,4.8001,4.8001,4.8001,4.8001,4.8001,4.7587,4.7206,4.7206,4.6775,4.6419,4.6419,4.6419,4.6419,4.6419,4.6419,4.6243,4.5751,4.6099,4.619,4.5595,4.4792,4.4079,4.3533,4.391,4.4209,4.4209,4.4209,4.4209,4.4209,4.4209,4.4209,4.4209,4.4209,4.4209,4.4209,4.4209,4.4209,4.4209,4.4209,4.4209,4.4209,4.4209,4.4209,3.4784,0.0,3.4905,3.4905,3.4905,3.4905,3.4905,3.4905,3.4905,3.4905,3.5462,3.5976,3.6009,3.7195,3.8166,3.8199,3.9444,4.0627,4.1286,4.2016,4.2761,4.3473,4.4241,4.4985,0.0,4.6419,4.6841,4.6858,4.7554,4.7968,4.7968,4.7984,4.8001,4.8001,4.8688,4.9069,4.9069,4.9798,5.017,5.017,5.0195,5.0203,5.0203,5.0203,5.0203,5.0203,5.0203,5.0203,5.0203,5.0179,5.017,5.0153,5.0137,5.0137,5.0137,5.0137,4.9235,4.8001,4.8001,4.8001,4.8001,4.8001,4.8001,4.8001,4.8001,4.8001,4.8001,4.8001,4.8001,4.8001,4.8001,4.8001,4.8001,4.8001,4.7984,4.7968,4.7968,4.7951,4.7926,4.7926,4.7926,4.7926,4.7926,4.7926,4.7926,4.791,4.7918,4.7177,4.5106,4.5371,4.5725,4.5716,4.5724,4.5723,4.5723,4.5723,4.5723,4.5723,4.5723,4.5723,4.5723,4.5723,4.5723,4.5723,4.5723,4.5723,4.5723,4.5723,4.5723,4.5723,4.5723,4.5723,3.4606,0.0,3.4863,3.4673,3.4774,3.4905,3.4905,3.4905,3.4905,3.4905,3.5479,3.6152,3.6649,3.7536,3.8354,3.8854,4.0133,4.1136,4.1361,4.2471,4.3324,4.3573,4.468,0.0,0.0,0.0,0.0,4.7587,4.7868,4.8001,4.8001,4.8001,4.8216,4.8705,4.897,4.9334,4.9831,5.0551,5.0925,5.095,5.1422,5.1653,5.1653,5.1653,5.1653,5.1653,5.1653,5.1653,5.162,5.1123,5.0925,5.0875,5.0394,5.0203,5.0203,5.0203,4.9897,4.9466,4.9466,4.9466,4.9384,4.8887,4.8721,4.8638,4.815,4.8001,4.8001,4.8001,4.8001,4.8001,4.8001,4.8001,4.8001,4.8001,4.8001,4.8001,4.8001,4.8001,4.8001,4.8001,4.8001,4.8001,4.8001,4.8001,4.8001,4.8001,4.8001,4.7555,4.6346,4.6383,4.6344,4.5855,4.5806,4.5806,4.5806,4.5806,4.5806,4.5806,4.5806,4.5806,4.5806,4.5806,4.5806,4.5806,4.5806,4.5806,4.5806,4.5806,4.5806,4.5806,4.5806,4.5806,3.4618,3.4774,3.4863,3.4679,3.4763,3.4905,3.4905,3.4905,3.4965,3.5247,3.5876,3.6615,3.7361,3.8096,3.8831,3.9574,4.0647,4.1494,4.1759,4.2851,4.3606,4.3606,4.4896,4.5806,0.0,0.0,0.0,4.7959,4.8001,4.8001,4.8001,4.8241,4.8605,4.9086,4.9607,5.0104,5.0585,5.1322,5.1688,5.1704,5.2176,5.2391,5.2391,5.2391,5.2391,5.2391,5.2391,5.2391,5.2358,5.1887,5.1688,5.1654,5.1164,5.0982,5.0982,5.0982,5.0982,5.0916,5.0369,5.0203,5.012,4.9649,4.95,4.9367,4.863,4.839,4.834,4.8075,4.8001,4.8001,4.8001,4.8001,4.8001,4.8001,4.8001,4.8001,4.8001,4.8001,4.8001,4.8001,4.8001,4.8001,4.8001,4.8001,4.8001,4.8001,4.8001,4.7835,4.7355,4.7289,4.7106,4.6634,4.6584,4.6584,4.6584,4.6584,4.6584,4.6584,4.6584,4.6584,4.6584,4.6584,4.6584,4.6584,4.6584,4.6584,4.6584,4.6584,4.6584,4.6584,4.6584,4.6584,3.4786,3.4869,3.4893,3.4869,3.4881,3.4905,3.4905,3.4905,3.5098,3.5794,3.6566,3.7305,0.0,0.0,3.9524,4.0236,4.0945,4.1636,4.2355,4.3109,4.3606,0.0,0.0,0.0,0.0,0.0,0.0,4.8001,0.0,4.8001,4.8001,4.8705,4.9119,4.9168,5.0544,5.1323,5.1356,5.2043,5.2391,5.2391,5.2391,5.2391,5.2391,5.2391,5.2391,5.2391,5.2391,5.2391,5.2391,5.2391,5.2391,5.2391,5.2391,5.2391,5.2391,5.2391,5.2391,5.2192,5.08,5.0302,5.0311,5.0278,5.0261,5.0129,4.9384,4.9168,4.9003,4.8307,4.8084,4.8067,4.8067,4.8034,4.8001,4.8001,4.8001,4.8001,4.8001,4.8001,4.8001,4.8001,4.8001,4.8001,4.8001,4.8001,4.8001,4.8001,4.8001,4.8001,4.8001,4.8001,4.8001,4.8001,4.8001,4.8001,4.8001,4.8001,4.8001,4.8001,4.8001,4.8001,4.8001,4.8001,4.8001,4.8001,4.8001,4.8001,4.8001,4.8001,4.8001,4.8001,4.8001,4.8001,3.4094,3.4442,3.4793,3.4405,3.46,3.4905,3.4905,3.4905,3.4955,3.5137,3.6201,3.7162,0.0,0.0,0.0,3.9547,4.0597,0.0,4.1659,4.2794,0.0,4.3606,0.0,4.5806,4.5806,4.7123,0.0,0.0,4.8001,4.8001,4.8001,4.8705,4.9351,4.9889,5.0825,5.1563,5.211,5.2308,5.2391,5.2391,5.2391,5.2391,5.2391,5.2391,5.2391,5.2391,5.2391,5.2391,5.2391,5.2391,5.2391,5.2391,5.2391,5.2391,5.2391,5.2391,5.2391,5.2342,5.1968,5.1836,5.1753,5.1198,5.1016,5.0875,5.0145,4.993,4.9872,4.969,4.9235,4.8821,4.8821,4.8407,4.8001,4.8001,4.8001,4.8001,4.8001,4.8001,4.8001,4.8001,4.8001,4.8001,4.8001,4.8001,4.8001,4.8001,4.8001,4.8001,4.8001,4.8001,4.8001,4.8001,4.8001,4.8001,4.8001,4.8001,4.8001,4.8001,4.8001,4.8001,4.8001,4.8001,4.8001,4.8001,4.8001,4.8001,4.8001,4.8001,4.8001,4.8001,4.8001,4.8001,3.4132,3.4466,3.4834,3.4527,3.4673,3.4905,3.4905,3.4905,3.4982,3.5319,3.6036,0.0,3.7046,3.8046,0.0,0.0,0.0,0.0,4.1792,4.2596,4.3241,0.0,4.4896,0.0,4.5806,4.7123,4.8001,0.0,4.8001,4.815,4.8473,4.9185,4.9914,5.0651,5.1397,5.1986,5.2391,5.2391,5.2391,5.2391,5.2391,5.2391,5.2391,5.2391,5.2391,5.2391,0.0,5.2391,5.2391,5.2391,5.2391,5.2391,5.2391,5.2391,5.2391,5.2391,5.2391,5.2391,5.2391,5.2391,5.2325,5.192,5.1778,5.1646,5.0908,5.0684,5.0618,5.0294,4.9889,4.9574,4.9574,4.9284,4.897,4.897,4.897,4.897,4.897,4.897,4.897,4.897,4.897,4.897,4.897,4.897,4.897,4.897,4.897,4.897,4.897,4.8398,4.8001,4.8001,4.8001,4.8001,4.8001,4.8001,4.8001,4.8001,4.8001,4.8001,4.8001,4.8001,4.8001,4.8001,4.8001,4.8001,4.8001,4.8001,4.8001,4.8017,4.8324,4.8473,3.4466,3.4637,3.4851,3.4851,3.4851,3.4857,3.4893,3.4905,3.5081,3.5727,0.0,3.6208,3.6831,3.7559,3.8305,3.9027,0.0,4.0743,4.2156,4.243,4.2761,4.3506,4.4896,4.5806,4.5806,4.7123,4.8001,4.8001,4.8001,4.8315,4.9052,4.9789,5.0585,5.1422,5.206,5.2391,5.2391,5.2391,5.2391,5.2391,5.2391,5.2391,5.2391,5.2391,5.2391,5.2391,5.2391,0.0,5.2391,5.2391,5.2391,5.2391,5.2391,5.2391,5.2391,5.2391,5.2391,5.2391,5.2391,5.2391,5.2391,5.2391,5.2391,5.2275,5.1629,5.1456,5.1314,5.0667,5.0427,5.0344,5.0344,5.0278,5.0203,5.0203,5.0203,5.0203,5.0203,5.0203,5.0203,5.0203,5.0203,5.0203,5.0203,5.0203,5.0203,5.0203,5.0203,5.0203,5.0203,4.9086,4.8291,4.8291,4.8291,4.8291,4.8291,4.8291,4.8291,4.8291,4.8291,4.8291,4.8291,4.8291,4.8291,4.8291,4.8291,4.8291,4.8291,4.8291,4.8291,4.8307,4.8953,4.9251,3.4288,3.4368,3.4564,3.4564,3.4564,3.4625,3.4851,3.4905,0.0,0.0,3.5578,3.6042,3.6168,3.6781,3.7526,3.8271,3.9004,3.9981,4.1394,4.2116,4.2761,0.0,0.0,0.0,0.0,0.0,0.0,0.0,0.0,4.8315,4.9052,4.9789,5.0817,5.2159,5.2325,5.2391,5.2391,5.2391,5.2391,5.2391,5.2391,5.2391,5.2391,5.2391,5.2391,5.2391,5.2391,0.0,5.2391,5.2391,5.2391,5.2391,5.2391,5.2391,5.2391,5.2391,5.2391,5.2391,5.2391,5.2391,5.2391,5.2391,5.2391,5.2384,5.2242,5.2209,5.2176,5.206,5.1579,5.1116,5.1116,5.0651,5.0203,5.0203,5.0203,5.0203,5.0203,5.0203,5.0203,5.0203,5.0203,5.0203,5.0203,5.0203,5.0203,5.0203,5.0203,5.0203,5.0203,4.9971,4.9822,4.9822,4.9822,4.9822,4.9822,4.9822,4.9822,4.9822,4.9822,4.9822,4.9822,4.9822,4.9822,4.9822,4.9822,4.9822,4.9822,4.9822,4.9822,4.9822,4.9947,5.0004,3.425,3.4294,3.4533,3.4667,3.4594,3.457,3.4845,0.0,0.0,0.0,3.5181,3.5429,3.5429,3.6025,0.0,3.751,3.8245,3.9355,4.1146,4.1692,0.0,4.3473,0.0,0.0,0.0,0.0,0.0,0.0,0.0,4.8489,4.9607,5.0734,5.167,5.2375,5.2391,5.2391,5.2391,5.2391,5.2391,5.2391,5.2391,5.2391,5.2391,5.2391,5.2391,5.2391,5.2391,0.0,5.2391,5.2391,5.2391,5.2391,5.2391,5.2391,5.2391,5.2391,5.2391,5.2391,5.2391,5.2391,5.2391,5.2391,5.2391,5.2391,5.2391,5.2391,5.2391,5.2391,5.2143,5.187,5.187,5.1613,5.1347,5.1347,5.1347,5.1347,5.1347,5.1347,5.1347,5.1347,5.1347,5.1347,5.1347,5.1347,5.1347,5.1347,5.1347,5.1347,5.1347,5.1347,5.1048,5.0269,5.0203,5.0203,5.0203,5.0203,5.0203,5.0203,5.0203,5.0203,5.0203,5.0203,5.0203,5.0203,5.0203,5.0203,5.0203,5.0203,5.0203,5.0203,5.0585,5.0775,3.4386,3.438,3.4552,3.4751,3.4665,3.4552,3.4774,3.4863,0.0,0.0,3.4905,3.4905,3.4905,0.0,3.6052,0.0,3.7593,3.8712,4.0888,4.1312,4.1891,0.0,4.4671,0.0,0.0,0.0,0.0,0.0,0.0,0.0,5.0137,5.1604,5.2391,5.2391,5.2391,5.2391,5.2391,5.2391,5.2391,5.2391,5.2391,5.2391,5.2391,5.2391,5.2391,5.2391,5.2391,0.0,0.0,5.2391,5.2391,5.2391,5.2391,5.2391,5.2391,5.2391,5.2391,5.2391,5.2391,5.2391,5.2391,5.2391,5.2391,5.2391,5.2391,5.2391,5.2391,5.2391,5.2391,5.2391,5.2391,5.2391,5.2391,5.2391,5.2391,5.2391,5.2391,5.2391,5.2391,5.2391,5.2391,5.2391,5.2391,5.2391,5.2391,5.2391,5.2391,5.2391,5.2391,5.2391,5.1952,5.08,5.0675,5.0675,5.0675,5.0675,5.0675,5.0675,5.0675,5.0675,5.0675,5.0675,5.0675,5.0675,5.0675,5.0675,5.0675,5.0675,5.0675,5.0692,5.1265,5.1538,3.4845,3.4661,3.4509,3.4533,3.4521,3.4509,3.4533,0.0,3.4905,3.4905,3.4905,3.4905,3.4905,0.0,0.0,0.0,0.0,3.7963,4.018,4.1011,4.1692,4.2504,0.0,0.0,0.0,0.0,0.0,0.0,0.0,0.0,5.0162,5.1604,5.2391,5.2391,5.2391,5.2391,5.2391,5.2391,5.2391,5.2391,5.2391,5.2391,5.2391,5.2391,5.2391,5.2391,5.2391,0.0,0.0,5.2391,5.2391,5.2391,5.2391,5.2391,5.2391,5.2391,5.2391,5.2391,5.2391,5.2391,5.2391,5.2391,5.2391,5.2391,5.2391,5.2391,5.2391,5.2391,5.2391,5.2391,5.2391,5.2391,5.2391,5.2391,5.2391,5.2391,5.2391,5.2391,5.2391,5.2391,5.2391,5.2391,5.2391,5.2391,5.2391,5.2391,5.2391,5.2391,5.2391,5.2391,5.2342,5.2209,5.2192,5.2192,5.2192,5.2192,5.2192,5.2192,5.2192,5.2192,5.2192,5.2192,5.2192,5.2192,5.2192,5.2192,5.2192,5.2192,5.2192,5.2192,5.2275,5.2292,3.4691,3.4576,3.4497,3.4497,3.4497,3.4497,3.4497,0.0,3.4905,3.4905,3.4905,3.4905,3.4905,3.4905,0.0,0.0,0.0,0.0,3.9491,4.0696,4.1676,4.2421,4.3794,0.0,0.0,0.0,0.0,0.0,0.0,0.0,5.0162,5.1173,5.1944,5.2391,5.2391,5.2391,5.2391,5.2391,5.2391,5.2391,5.2391,5.2391,5.2391,5.2391,5.2391,5.2391,5.2391,0.0,0.0,5.2391,5.2391,5.2391,5.2391,5.2391,5.2391,5.2391,5.2391,5.2391,5.2391,5.2391,5.2391,5.2391,5.2391,5.2391,5.2391,5.2391,5.2391,5.2391,5.2391,5.2391,5.2391,5.2391,5.2391,5.2391,5.2391,5.2391,5.2391,5.2391,5.2391,5.2391,5.2391,5.2391,5.2391,5.2391,5.2391,5.2391,5.2391,5.2391,5.2391,5.2391,5.2391,5.2391,5.2391,5.2391,5.2391,5.2391,5.2391,5.2391,5.2391,5.2391,5.2391,5.2391,5.2391,5.2391,5.2391,5.2391,5.2391,5.2391,5.2391,5.2391,5.2391,5.2391,3.4661,3.4618,3.4576,3.4417,3.4497,3.4576,0.0,0.0,3.4905,3.4905,3.4905,3.4905,3.4905,3.4905,3.5137,3.5876,0.0,3.7549,3.8805,4.0365,4.1593,0.0,0.0,0.0,0.0,0.0,0.0,0.0,0.0,0.0,5.0153,5.0684,5.1414,5.2375,5.2391,5.2391,5.2391,5.2391,5.2391,5.2391,5.2391,5.2391,5.2391,5.2391,5.2391,5.2391,5.2391,0.0,0.0,5.2391,5.2391,5.2391,5.2391,5.2391,5.2391,5.2391,5.2391,5.2391,5.2391,5.2391,5.2391,5.2391,5.2391,5.2391,5.2391,5.2391,5.2391,5.2391,5.2391,5.2391,5.2391,5.2391,5.2391,5.2391,5.2391,5.2391,5.2391,5.2391,5.2391,5.2391,5.2391,5.2391,5.2391,5.2391,5.2391,5.2391,5.2391,5.2391,5.2391,5.2391,5.2391,5.2391,5.2391,5.2391,5.2391,5.2391,5.2391,5.2391,5.2391,5.2391,5.2391,5.2391,5.2391,5.2391,5.2391,5.2391,5.2391,5.2391,5.2391,5.2391,5.2391,5.2391,3.4899,3.4899,3.4774,3.4244,3.4497,3.4751,0.0,0.0,3.4905,3.4905,3.4905,3.4905,3.4905,3.4905,3.5137,3.5876,3.6615,0.0,3.8116,4.0053,4.1394,0.0,0.0,0.0,0.0,0.0,0.0,0.0,0.0,0.0,5.012,5.0212,5.0883,5.2342,5.2391,5.2391,5.2391,5.2391,5.2391,5.2391,5.2391,5.2391,5.2391,5.2391,5.2391,0.0,0.0,0.0,0.0,5.2391,5.2391,5.2391,5.2391,5.2391,5.2391,5.2391,5.2391,5.2391,5.2391,5.2391,5.2391,5.2391,5.2391,5.2391,5.2391,5.2391,5.2391,5.2391,5.2391,5.2391,5.2391,5.2391,5.2391,5.2391,5.2391,5.2391,5.2391,5.2391,5.2391,5.2391,5.2391,5.2391,5.2391,5.2391,5.2391,5.2391,5.2391,5.2391,5.2391,5.2391,5.2391,5.2391,5.2391,5.2391,5.2391,5.2391,5.2391,5.2391,5.2391,5.2391,5.2391,5.2391,5.2391,5.2391,5.2391,5.2391,5.2391,5.2391,5.2391,5.2391,5.2391,5.2391,3.4905,3.4905,3.4822,3.446,3.4637,3.4816,3.4454,3.4643,3.4905,3.4905,3.4905,3.4905,3.4905,3.4905,3.4988,3.5214,3.629,3.7178,0.0,0.0,0.0,4.1394,4.3794,0.0,0.0,0.0,0.0,0.0,0.0,0.0,4.94,4.9922,5.0883,5.2342,5.2391,5.2391,5.2391,5.2391,5.2391,5.2391,5.2391,5.2391,5.2391,5.2391,5.2391,0.0,0.0,0.0,0.0,5.2391,5.2391,5.2391,5.2391,5.2391,5.2391,5.2391,5.2391,5.2391,5.2391,5.2391,5.2391,5.2391,5.2391,5.2391,5.2391,5.2391,5.2391,5.2391,5.2391,5.2391,5.2391,5.2391,5.2391,5.2391,5.2391,5.2391,5.2391,5.2391,5.2391,5.2391,5.2391,5.2391,5.2391,5.2391,5.2391,5.2391,5.2391,5.2391,5.2391,5.2391,5.2391,5.2391,5.2391,5.2391,5.2391,5.2391,5.2391,5.2391,5.2391,5.2391,5.2391,5.2391,5.2391,5.2391,5.2391,5.2391,5.2391,5.2391,5.2391,5.2391,5.2391,5.2391,3.4822,3.4905,3.4839,3.4564,3.4691,3.4834,3.4558,0.0,3.4905,3.4905,3.4905,3.4905,3.4905,3.4905,3.4905,3.4905,3.6135,3.7096,0.0,0.0,0.0,4.2551,0.0,0.0,0.0,0.0,0.0,0.0,0.0,0.0,4.9052,4.9549,5.0469,5.1944,5.2242,5.2391,5.2391,5.2391,5.2391,5.2391,5.2391,5.2391,5.2391,5.2391,5.2391,0.0,0.0,0.0,0.0,5.2391,5.2391,5.2391,5.2391,5.2391,5.2391,5.2391,5.2391,5.2391,5.2391,5.2391,5.2391,5.2391,5.2391,5.2391,5.2391,5.2391,5.2391,5.2391,5.2391,5.2391,5.2391,5.2391,5.2391,5.2391,5.2391,5.2391,5.2391,5.2391,5.2391,5.2391,5.2391,5.2391,5.2391,5.2391,5.2391,5.2391,5.2391,5.2391,5.2391,5.2391,5.2391,5.2391,5.2391,5.2391,5.2391,5.2391,5.2391,5.2391,5.2391,5.2391,5.2391,5.2391,5.2391,5.2391,5.2391,5.2391,5.2391,5.2391,5.2391,5.2391,5.2391,5.2391,0.0,3.4905,3.4845,3.4588,3.4726,3.4839,3.4582,0.0,0.0,3.4881,3.4893,3.4893,3.4881,3.4893,3.4905,3.4905,3.6135,3.7096,0.0,3.9573,0.0,0.0,4.5325,0.0,0.0,0.0,0.0,0.0,0.0,0.0,4.8986,4.9069,4.9723,5.1108,5.1861,5.2292,5.2391,5.2391,5.2391,5.2391,5.2391,5.2391,5.2391,5.2391,5.2391,0.0,0.0,0.0,0.0,5.2391,5.2391,5.2391,5.2391,5.2391,5.2391,5.2391,5.2391,5.2391,5.2391,5.2391,5.2391,5.2391,5.2391,5.2391,5.2391,5.2391,5.2391,5.2391,5.2391,5.2391,5.2391,5.2391,5.2391,5.2391,5.2391,5.2391,5.2391,5.2391,5.2391,5.2391,5.2391,5.2391,5.2391,5.2391,5.2391,5.2391,5.2391,5.2391,5.2391,5.2391,5.2391,5.2391,5.2391,5.2391,5.2391,5.2391,5.2391,5.2391,5.2391,5.2391,5.2391,5.2391,5.2391,5.2391,5.2391,5.2391,5.2391,5.2391,5.2391,5.2391,5.2391,5.2391,3.4541,0.0,3.4887,3.4828,3.4857,3.4887,0.0,0.0,0.0,0.0,0.0,3.4845,3.4631,3.4751,3.4905,3.4905,3.6135,3.7096,3.7096,0.0,0.0,4.3663,0.0,0.0,0.0,0.0,0.0,0.0,0.0,4.8084,4.8241,4.8787,4.926,4.9607,5.0328,5.1264,5.2391,5.2391,5.2391,5.2391,5.2391,5.2391,5.2391,5.2391,5.2391,0.0,0.0,0.0,5.2391,5.2391,5.2391,5.2391,5.2391,5.2391,5.2391,5.2391,5.2391,5.2391,5.2391,5.2391,5.2391,5.2391,5.2391,5.2391,5.2391,5.2391,5.2391,5.2391,5.2391,5.2391,5.2391,5.2391,5.2391,5.2391,5.2391,5.2391,5.2391,5.2391,5.2391,5.2391,5.2391,5.2391,5.2391,5.2391,5.2391,5.2391,5.2391,5.2391,5.2391,5.2391,5.2391,5.2391,5.2391,5.2391,5.2391,5.2391,5.2391,5.2391,5.2391,5.2391,5.2391,5.2391,5.2391,5.2391,5.2391,5.2391,5.2391,5.2391,5.2391,5.2391,5.2391,5.2391,3.4099,3.4634,3.4905,3.4905,3.4905,3.4905,3.4905,0.0,0.0,0.0,0.0,3.4857,3.4703,3.4691,3.4861,3.5328,3.6128,0.0,0.0,0.0,4.1806,4.3409,0.0,0.0,0.0,0.0,0.0,0.0,0.0,4.8001,4.8001,4.8382,4.8754,4.9086,4.95,5.0402,5.1878,5.1903,5.206,5.2391,5.2391,5.2391,5.2391,5.2391,5.2391,0.0,0.0,0.0,5.2391,5.2391,5.2391,5.2391,5.2391,5.2391,5.2391,5.2391,5.2391,5.2391,5.2391,5.2391,5.2391,5.2391,5.2391,5.2391,5.2391,5.2391,5.2391,5.2391,5.2391,5.2391,5.2391,5.2391,5.2391,5.2391,5.2391,5.2391,5.2391,5.2391,5.2391,5.2391,5.2391,5.2391,5.2391,5.2391,5.2391,5.2391,5.2391,5.2391,5.2391,5.2391,5.2391,5.2391,5.2391,5.2391,5.2391,5.2391,5.2391,5.2391,5.2391,5.2391,5.2391,5.2391,5.2391,5.2391,5.2391,5.2391,5.2391,5.2391,5.2391,5.2391,5.2391,5.2391,3.3735,3.4425,3.4905,3.4905,3.4905,3.4905,3.4905,0.0,0.0,0.0,0.0,0.0,0.0,3.4655,0.0,0.0,0.0,0.0,4.0626,4.1063,4.1683,4.341,0.0,0.0,0.0,0.0,0.0,0.0,0.0,4.8001,4.8001,4.8001,4.8299,4.8903,4.8937,4.9591,5.095,5.1082,5.1497,5.2226,5.2226,5.2292,5.2391,5.2391,5.2391,5.2391,0.0,0.0,5.2391,5.2391,5.2391,5.2391,5.2391,5.2391,5.2391,5.2391,5.2391,5.2391,5.2391,5.2391,5.2391,5.2391,5.2391,5.2391,5.2391,5.2391,5.2391,5.2391,5.2391,5.2391,5.2391,5.2391,5.2391,5.2391,5.2391,5.2391,5.2391,5.2391,5.2391,5.2391,5.2391,5.2391,5.2391,5.2391,5.2391,5.2391,5.2391,5.2391,5.2391,5.2391,5.2391,5.2391,5.2391,5.2391,5.2391,5.2391,5.2391,5.2391,5.2391,5.2391,5.2391,5.2391,5.2391,5.2391,5.2391,5.2391,5.2391,5.2391,5.2391,5.2391,5.2391,5.2391,3.4358,3.4816,3.4905,3.4905,3.4905,3.4905,0.0,0.0,0.0,0.0,0.0,0.0,0.0,3.4558,3.4932,0.0,0.0,3.8387,0.0,0.0,0.0,0.0,0.0,0.0,0.0,0.0,0.0,0.0,0.0,4.8001,4.8001,4.8001,4.805,4.8158,4.8158,4.858,4.9425,5.0071,5.0734,5.1472,5.1472,5.1795,5.2391,5.2391,5.2391,5.2391,0.0,5.2391,5.2391,5.2391,5.2391,5.2391,5.2391,5.2391,5.2391,5.2391,5.2391,5.2391,5.2391,5.2391,5.2391,5.2391,5.2391,5.2391,5.2391,5.2391,5.2391,5.2391,5.2391,5.2391,5.2391,5.2391,5.2391,5.2391,5.2391,5.2391,5.2391,5.2391,5.2391,5.2391,5.2391,5.2391,5.2391,5.2391,5.2391,5.2391,5.2391,5.2391,5.2391,5.2391,5.2391,5.2391,5.2391,5.2391,5.2391,5.2391,5.2391,5.2391,5.2391,5.2391,5.2391,5.2391,5.2391,5.2391,5.2391,5.2391,5.2391,5.2391,5.2391,5.2391,5.2391,5.2391,3.401,3.4607,3.4869,3.4715,3.4679,0.0,0.0,0.0,0.0,0.0,0.0,0.0,0.0,0.0,3.5497,3.6184,0.0,0.0,0.0,0.0,0.0,0.0,0.0,0.0,0.0,0.0,0.0,0.0,0.0,0.0,4.8001,4.8001,4.8001,4.8001,4.8001,4.8166,4.8506,4.8837,4.9591,5.0701,5.0701,5.109,5.1804,5.1804,5.201,5.2391,0.0,5.2391,5.2391,5.2391,5.2391,5.2391,5.2391,5.2391,5.2391,5.2391,5.2391,5.2391,5.2391,5.2391,5.2391,5.2391,5.2391,5.2391,5.2391,5.2391,5.2391,5.2391,5.2391,5.2391,5.2391,5.2391,5.2391,5.2391,5.2391,5.2391,5.2391,5.2391,5.2391,5.2391,5.2391,5.2391,5.2391,5.2391,5.2391,5.2391,5.2391,5.2391,5.2391,5.2391,5.2391,5.2391,5.2391,5.2391,5.2391,5.2391,5.2391,5.2391,5.2391,5.2391,5.2391,5.2391,5.2391,5.2391,5.2391,5.2391,5.2391,5.2391,5.2391,5.2391,5.2391,5.2391,3.3861,3.4474,3.4839,3.4564,0.0,0.0,0.0,0.0,0.0,0.0,0.0,0.0,0.0,3.5085,0.0,3.7323,3.8721,0.0,0.0,0.0,0.0,0.0,0.0,0.0,0.0,0.0,0.0,0.0,0.0,0.0,4.8001,4.8001,4.8001,4.8001,4.8001,4.8001,4.8001,4.8001,4.8655,4.9938,4.9938,5.0336,5.1049,5.1049,5.1447,5.2143,5.2143,5.2242,5.2391,5.2391,5.2391,5.2391,5.2391,5.2391,5.2391,5.2391,5.2391,5.2391,5.2391,5.2391,5.2391,5.2391,5.2391,5.2391,5.2391,5.2391,5.2391,5.2391,5.2391,5.2391,5.2391,5.2391,5.2391,5.2391,5.2391,5.2391,5.2391,5.2391,5.2391,5.2391,5.2391,5.2391,5.2391,5.2391,5.2391,5.2391,5.2391,5.2391,5.2391,5.2391,5.2391,5.2391,5.2391,5.2391,5.2391,5.2391,5.2391,5.2391,5.2391,5.2391,5.2391,5.2391,5.2391,5.2391,5.2391,5.2391,5.2391,5.2391,5.2391,5.2391,5.2391,5.2391,3.4623,3.4855,3.4839,3.4564,0.0,0.0,0.0,0.0,0.0,0.0,0.0,0.0,0.0,3.5577,3.6736,3.7943,3.8609,0.0,0.0,0.0,0.0,0.0,0.0,0.0,0.0,0.0,0.0,0.0,0.0,0.0,4.8001,4.8001,4.8001,4.8001,4.8001,4.8001,4.8001,4.8001,4.8398,4.9185,4.9185,4.9566,5.0278,5.0278,5.0684,5.1389,5.1389,5.1771,5.2391,5.2391,5.2391,5.2391,5.2391,5.2391,5.2391,5.2391,5.2391,5.2391,5.2391,5.2391,5.2391,5.2391,5.2391,5.2391,5.2391,5.2391,5.2391,5.2391,5.2391,5.2391,5.2391,5.2391,5.2391,5.2391,5.2391,5.2391,5.2391,5.2391,5.2391,5.2391,5.2391,5.2391,5.2391,5.2391,5.2391,5.2391,5.2391,5.2391,5.2391,5.2391,5.2391,5.2391,5.2391,5.2391,5.2391,5.2391,5.2391,5.2391,5.2391,5.2391,5.2391,5.2391,5.2391,5.2391,5.2391,5.2391,5.2391,5.2391,5.2391,5.2391,5.2391,5.2391,3.4765,3.4786,3.4625,3.4527,0.0,0.0,0.0,0.0,0.0,0.0,0.0,0.0,0.0,0.0,3.7127,3.8373,3.9317,0.0,0.0,0.0,0.0,0.0,0.0,0.0,0.0,0.0,0.0,0.0,0.0,0.0,4.8001,4.8001,4.8001,4.8001,4.8001,4.8001,4.8001,4.8001,4.815,4.8415,4.8415,4.8804,4.9516,4.9516,4.9914,5.0618,5.0618,5.1024,5.1721,5.1721,5.1994,5.2391,5.2391,5.2391,5.2391,5.2391,5.2391,5.2391,5.2391,5.2391,5.2391,5.2391,5.2391,5.2391,5.2391,5.2391,5.2391,5.2391,5.2391,5.2391,5.2391,5.2391,5.2391,5.2391,5.2391,5.2391,5.2391,5.2391,5.2391,5.2391,5.2391,5.2391,5.2391,5.2391,5.2391,5.2391,5.2391,5.2391,5.2391,5.2391,5.2391,5.2391,5.2391,5.2391,5.2391,5.2391,5.2391,5.2391,5.2391,5.2391,5.2391,5.2391,5.2391,5.2391,5.2391,5.2391,5.2391,5.2391,5.2391,5.2391,5.2391,5.2391,3.472,3.4637,3.4478,0.0,0.0,0.0,0.0,0.0,0.0,0.0,0.0,0.0,0.0,0.0,0.0,0.0,0.0,0.0,0.0,0.0,0.0,0.0,0.0,0.0,0.0,0.0,0.0,0.0,0.0,0.0,0.0,4.8001,4.8001,4.8001,4.8001,4.8001,4.8001,4.8001,4.8001,4.8001,4.8001,4.8258,4.8754,4.8754,4.9168,4.9839,4.9839,5.027,5.0941,5.0941,5.1381,5.2085,5.2308,5.2391,5.2391,5.2391,5.2391,5.2391,5.2391,5.2391,5.2391,5.2391,5.2391,5.2391,5.2391,5.2391,5.2391,5.2391,5.2391,5.2391,5.2391,5.2391,5.2391,5.2391,5.2391,5.2391,5.2391,5.2391,5.2391,5.2391,5.2391,5.2391,5.2391,5.2391,5.2391,5.2391,5.2391,5.2391,5.2391,5.2391,5.2391,5.2391,5.2391,5.2391,5.2391,5.2391,5.2391,5.2391,5.2391,5.2391,5.2391,5.2391,5.2391,5.2391,5.2391,5.2391,5.2391,5.2391,5.2391,5.2391,5.2391,5.2391,3.4576,3.4497,3.4429,0.0,0.0,0.0,0.0,0.0,0.0,0.0,0.0,0.0,0.0,0.0,0.0,0.0,0.0,0.0,0.0,0.0,0.0,0.0,0.0,0.0,0.0,0.0,0.0,0.0,0.0,0.0,0.0,4.8001,4.8001,4.8001,4.8001,4.8001,4.8001,4.8001,4.8001,4.8001,4.8001,4.8001,4.8001,4.8001,4.8398,4.9086,4.9086,4.9516,5.0195,5.0203,5.0634,5.1373,5.2093,5.2391,5.2391,5.2391,5.2391,5.2391,5.2391,5.2391,5.2391,5.2391,5.2391,5.2391,5.2391,5.2391,5.2391,5.2391,5.2391,5.2391,5.2391,5.2391,5.2391,5.2391,5.2391,5.2391,5.2391,5.2391,5.2391,5.2391,5.2391,5.2391,5.2391,5.2391,5.2391,5.2391,5.2391,5.2391,5.2391,5.2391,5.2391,5.2391,5.2391,5.2391,5.2391,5.2391,5.2391,5.2391,5.2391,5.2391,5.2391,5.2391,5.2391,5.2391,5.2391,5.2391,5.2391,5.2391,5.2391,5.2391,5.2391,5.2391,3.4865,3.4509,0.0,3.4356,0.0,0.0,0.0,0.0,0.0,0.0,0.0,0.0,0.0,0.0,0.0,0.0,0.0,0.0,0.0,0.0,0.0,0.0,0.0,0.0,0.0,0.0,0.0,0.0,0.0,0.0,0.0,4.7719,4.8001,4.8001,4.8001,4.8001,4.8001,4.8001,4.8001,4.8001,4.8001,4.8001,4.8001,4.8001,4.8125,4.8324,4.8324,4.8738,4.9466,4.9996,5.0634,5.1323,5.1538,5.1944,5.2391,5.2391,5.2391,5.2391,5.2391,5.2391,5.2391,5.2391,5.2391,5.2391,5.2391,5.2391,5.2391,5.2391,5.2391,5.2391,5.2391,5.2391,5.2391,5.2391,5.2391,5.2391,5.2391,5.2391,5.2391,5.2391,5.2391,5.2391,5.2391,5.2391,5.2391,5.2391,5.2391,5.2391,5.2391,5.2391,5.2391,5.2391,5.2391,5.2391,5.2391,5.2391,5.2391,5.2391,5.2391,5.2391,5.2391,5.2391,5.2391,5.2391,5.2391,5.2391,5.2391,5.2391,5.2391,5.2391,5.2391,5.2391,3.4697,3.4423,0.0,3.4063,3.3733,3.362,0.0,0.0,0.0,0.0,0.0,0.0,0.0,0.0,0.0,0.0,0.0,0.0,0.0,0.0,0.0,0.0,0.0,0.0,0.0,0.0,0.0,0.0,0.0,0.0,0.0,4.7156,4.7554,4.7554,4.7852,4.8001,4.8001,4.8001,4.8001,4.8001,4.8001,4.8001,4.8001,4.8001,4.8001,4.8001,4.8001,4.8241,4.8721,4.9466,5.0021,5.0469,5.0742,5.1314,5.1961,5.1961,5.2143,5.2391,5.2391,5.2391,5.2391,5.2391,5.2391,5.2391,5.2391,5.2391,5.2391,5.2391,5.2391,5.2391,5.2391,5.2391,5.2391,5.2391,5.2391,5.2391,5.2391,5.2391,5.2391,5.2391,5.2391,5.2391,5.2391,5.2391,5.2391,5.2391,5.2391,5.2391,5.2391,5.2391,5.2391,5.2391,5.2391,5.2391,5.2391,5.2391,5.2391,5.2391,5.2391,5.2391,5.2391,5.2391,5.2391,5.2391,5.2391,5.2391,5.2391,5.2391,5.2391,5.2391,5.2391,5.2391,3.43,0.0,0.0,3.3561,3.3522,0.0,3.5125,0.0,3.4794,0.0,0.0,0.0,0.0,0.0,0.0,0.0,0.0,0.0,0.0,0.0,0.0,0.0,0.0,0.0,0.0,0.0,0.0,0.0,0.0,0.0,0.0,4.6402,4.6825,4.6891,4.7554,4.7926,4.8001,4.8001,4.8001,4.8001,4.8001,4.8001,4.8001,4.8001,4.8001,4.8001,4.8001,4.8001,4.805,4.8721,4.9036,4.9168,4.9847,5.0551,5.1207,5.129,5.1712,5.2308,5.2375,5.2391,5.2391,5.2391,5.2391,5.2391,5.2391,5.2391,5.2391,5.2391,5.2391,5.2391,5.2391,5.2391,5.2391,5.2391,5.2391,5.2391,5.2391,5.2391,5.2391,5.2391,5.2391,5.2391,5.2391,5.2391,5.2391,5.2391,5.2391,5.2391,5.2391,5.2391,5.2391,5.2391,5.2391,5.2391,5.2391,5.2391,5.2391,5.2391,5.2391,5.2391,5.2391,5.2391,5.2391,5.2391,5.2391,5.2391,5.2391,5.2391,5.2391,5.2391,5.2391,5.2391,3.4691,3.446,0.0,0.0,3.3642,3.3745,3.5083,3.5282,3.5559,0.0,0.0,0.0,0.0,0.0,0.0,0.0,0.0,0.0,0.0,0.0,0.0,0.0,0.0,0.0,0.0,0.0,0.0,0.0,0.0,0.0,4.4928,4.564,4.6303,4.6874,4.7057,4.7404,4.7993,4.8001,4.8001,0.0,4.8001,4.8001,4.8001,4.8001,4.8001,4.8001,4.8001,4.8001,4.8009,4.8158,4.8572,4.9119,4.9268,4.9798,5.0518,5.1082,5.1406,5.1621,5.2192,5.2391,5.2391,5.2391,5.2391,5.2391,5.2391,5.2391,5.2391,5.2391,5.2391,5.2391,5.2391,5.2391,5.2391,5.2391,5.2391,5.2391,5.2391,5.2391,5.2391,5.2391,5.2391,5.2391,5.2391,5.2391,5.2391,5.2391,5.2391,5.2391,5.2391,5.2391,5.2391,5.2391,5.2391,5.2391,5.2391,5.2391,5.2391,5.2391,5.2391,5.2391,5.2391,5.2391,5.2391,5.2391,5.2391,5.2391,5.2391,5.2391,5.2391,5.2391,5.2391,5.2391,3.472,0.0,0.0,3.3975,0.0,3.3672,3.5085,3.5401,3.5797,3.7218,0.0,0.0,0.0,0.0,0.0,0.0,0.0,0.0,0.0,0.0,0.0,0.0,0.0,0.0,0.0,0.0,0.0,0.0,0.0,4.4167,4.4167,4.487,4.5441,4.5822,4.6187,4.6733,4.7471,4.7471,4.7653,4.8001,4.8001,4.8001,4.8001,4.8001,4.8001,4.8001,4.8001,4.8001,4.8001,4.8001,4.8233,4.8572,4.8572,4.9019,4.9765,5.0502,5.1,5.1406,5.2143,5.2391,5.2391,5.2391,5.2391,5.2391,5.2391,5.2391,5.2391,5.2391,5.2391,5.2391,5.2391,5.2391,5.2391,5.2391,5.2391,5.2391,5.2391,5.2391,5.2391,5.2391,5.2391,5.2391,5.2391,5.2391,5.2391,5.2391,5.2391,5.2391,5.2391,5.2391,5.2391,5.2391,5.2391,5.2391,5.2391,5.2391,5.2391,5.2391,5.2391,5.2391,5.2391,5.2391,5.2391,5.2391,5.2391,5.2391,5.2391,5.2391,5.2391,5.2391,5.2391,5.2391,3.4618,0.0,3.4374,3.3829,3.3535,0.0,3.4925,3.5314,3.5749,3.7052,0.0,0.0,0.0,0.0,0.0,0.0,0.0,0.0,0.0,0.0,0.0,0.0,0.0,0.0,0.0,0.0,0.0,0.0,0.0,4.3606,4.3606,4.4184,4.4563,4.4703,4.5292,4.5955,4.67,4.6841,4.7214,4.7819,4.7934,4.8001,4.8001,4.8001,4.8001,4.8001,4.8001,4.8001,4.8001,4.8001,4.8001,4.8001,4.8001,4.8373,4.9003,4.9739,5.0485,5.1215,5.1944,5.2292,5.2391,5.2391,5.2391,5.2391,5.2391,5.2391,5.2391,5.2391,5.2391,5.2391,5.2391,5.2391,5.2391,5.2391,5.2391,5.2391,5.2391,5.2391,5.2391,5.2391,5.2391,5.2391,5.2391,5.2391,5.2391,5.2391,5.2391,5.2391,5.2391,5.2391,5.2391,5.2391,5.2391,5.2391,5.2391,5.2391,5.2391,5.2391,5.2391,5.2391,5.2391,5.2391,5.2391,5.2391,5.2391,5.2391,5.2391,5.2391,5.2391,5.2391,5.2391,5.2391,0.0,0.0,3.4374,0.0,3.3662,3.3785,0.0,0.0,3.5623,0.0,3.7054,0.0,0.0,0.0,0.0,0.0,0.0,0.0,0.0,0.0,0.0,0.0,0.0,0.0,0.0,0.0,0.0,0.0,4.3606,4.3606,4.3606,4.3688,4.4035,4.4687,4.4803,4.5193,4.5938,4.6576,4.6941,4.7057,4.7694,4.8001,4.8001,4.8001,4.8001,4.8001,4.8001,4.8001,4.8001,4.8001,4.8001,4.8001,4.8001,4.8067,4.8249,4.897,4.9715,5.0444,5.1198,5.187,5.2391,5.2391,5.2391,5.2391,5.2391,5.2391,5.2391,5.2391,5.2391,5.2391,5.2391,5.2391,5.2391,5.2391,5.2391,5.2391,5.2391,5.2391,5.2391,5.2391,5.2391,5.2391,5.2391,5.2391,5.2391,5.2391,5.2391,5.2391,5.2391,5.2391,5.2391,5.2391,5.2391,5.2391,5.2391,5.2391,5.2391,5.2391,5.2391,5.2391,5.2391,5.2391,5.2391,5.2391,5.2391,5.2391,5.2391,5.2391,5.2391,5.2391,5.2391,5.2391,3.4679,3.4582,3.4411,0.0,3.3809,3.3886,3.4594,0.0,3.5633,3.6442,3.7084,0.0,0.0,0.0,0.0,0.0,0.0,0.0,0.0,0.0,0.0,0.0,0.0,0.0,0.0,0.0,0.0,0.0,4.3606,4.3606,4.3606,4.3606,4.3738,4.4068,4.4084,4.444,4.5184,4.5515,4.6087,4.6908,4.7653,4.8001,4.8001,4.8001,4.8001,4.8001,4.8001,4.8001,4.8001,4.8001,4.8001,4.8001,4.8001,4.8001,4.8092,4.8837,4.9566,5.0311,5.1049,5.1778,5.2391,5.2391,5.2391,5.2391,5.2391,5.2391,5.2391,5.2391,5.2391,5.2391,5.2391,5.2391,5.2391,5.2391,5.2391,5.2391,5.2391,5.2391,5.2391,5.2391,5.2391,5.2391,5.2391,5.2391,5.2391,5.2391,5.2391,5.2391,5.2391,5.2391,5.2391,5.2391,5.2391,5.2391,5.2391,5.2391,5.2391,5.2391,5.2391,5.2391,5.2391,5.2391,5.2391,5.2391,5.2391,5.2391,5.2391,5.2391,5.2391,5.2391,5.2391,5.2391,0.0,0.0,3.4503,3.4101,3.3899,3.3973,0.0,0.0,3.5476,0.0,3.6959,0.0,0.0,0.0,0.0,0.0,0.0,0.0,0.0,0.0,0.0,0.0,0.0,0.0,0.0,0.0,0.0,0.0,4.3606,4.3606,4.3606,4.3606,4.3606,4.3606,4.3606,4.3861,4.4414,4.462,4.5441,4.6916,4.7454,4.7819,4.8001,4.8001,4.8001,4.8001,4.8001,4.8001,4.8001,4.8001,4.8001,4.8001,4.8001,4.8001,4.8067,4.863,4.9284,5.003,5.0759,5.1497,5.2143,5.2342,5.2391,5.2391,5.2391,5.2391,5.2391,5.2391,5.2391,5.2391,5.2391,5.2391,5.2391,5.2391,5.2391,5.2391,5.2391,5.2391,5.2391,5.2391,5.2391,5.2391,5.2391,5.2391,5.2391,5.2391,5.2391,5.2391,5.2391,5.2391,5.2391,5.2391,5.2391,5.2391,5.2391,5.2391,5.2391,5.2391,5.2391,5.2391,5.2391,5.2391,5.2391,5.2391,5.2391,5.2391,5.2391,5.2391,5.2391,5.2391,5.2391,5.2391,0.0,3.4679,0.0,3.3911,3.3899,0.0,0.0,0.0,0.0,0.0,3.6381,0.0,0.0,0.0,0.0,0.0,0.0,0.0,0.0,0.0,0.0,0.0,0.0,0.0,0.0,0.0,0.0,0.0,4.3606,4.3606,4.3606,4.3606,4.3606,4.3606,4.3606,4.3622,4.3655,4.4357,4.5441,4.6891,4.6949,4.7322,4.8001,4.8001,4.8001,4.8001,4.8001,4.8001,4.8001,4.8001,4.8001,4.8001,4.8001,4.8001,4.8001,4.8042,4.8522,4.9268,4.9996,5.0734,5.1472,5.2176,5.2391,5.2391,5.2391,5.2391,5.2391,5.2391,5.2391,5.2391,5.2391,5.2391,5.2391,5.2391,5.2391,5.2391,5.2391,5.2391,5.2391,5.2391,5.2391,5.2391,5.2391,5.2391,5.2391,5.2391,5.2391,5.2391,5.2391,5.2391,5.2391,5.2391,5.2391,5.2391,5.2391,5.2391,5.2391,5.2391,5.2391,5.2391,5.2391,5.2391,5.2391,5.2391,5.2391,5.2391,5.2391,5.2391,5.2391,5.2391,5.2391,5.2391,0.0,0.0,0.0,3.454,3.4411,3.4374,3.4454,3.4727,3.5032,3.5296,3.6285,3.7196,0.0,0.0,0.0,0.0,0.0,0.0,0.0,0.0,0.0,0.0,0.0,0.0,0.0,0.0,0.0,0.0,0.0,4.3606,4.3606,4.3606,4.3606,4.3606,4.3606,4.3606,4.3606,4.4324,4.4968,4.5491,4.6452,4.704,4.7305,4.7785,4.8001,4.8001,4.8001,4.8001,4.8001,4.8001,4.8001,4.8001,4.8001,4.8001,4.8001,4.8001,4.8473,4.9218,4.9938,5.0684,5.1422,5.2159,5.2391,5.2391,5.2391,5.2391,5.2391,5.2391,5.2391,5.2391,5.2391,5.2391,5.2391,5.2391,5.2391,5.2391,5.2391,5.2391,5.2391,5.2391,5.2391,5.2391,5.2391,5.2391,5.2391,5.2391,5.2391,5.2391,5.2391,5.2391,5.2391,5.2391,5.2391,5.2391,5.2391,5.2391,5.2391,5.2391,5.2391,5.2391,5.2391,5.2391,5.2391,5.2391,5.2391,5.2391,5.2391,5.2391,5.2391,5.2391,5.2391,5.2391,3.4905,0.0,0.0,0.0,0.0,3.4546,3.4738,0.0,3.4957,3.5188,3.6006,3.6794,0.0,0.0,0.0,0.0,0.0,0.0,0.0,0.0,0.0,0.0,0.0,0.0,0.0,0.0,0.0,0.0,0.0,0.0,4.3606,4.3606,4.3606,4.3606,4.3606,4.3606,4.3606,4.4084,4.4464,4.472,4.569,4.6411,4.6924,4.7404,4.7769,4.8001,4.8001,4.8001,4.8001,4.8001,4.8001,4.8001,4.8001,4.8001,4.8001,4.8001,4.8307,4.8837,4.9566,5.0303,5.1049,5.1795,5.2192,5.2391,5.2391,5.2391,5.2391,5.2391,5.2391,5.2391,5.2391,5.2391,5.2391,5.2391,5.2391,5.2391,5.2391,5.2391,5.2391,5.2391,5.2391,5.2391,5.2391,5.2391,5.2391,5.2391,5.2391,5.2391,5.2391,5.2391,5.2391,5.2391,5.2391,5.2391,5.2391,5.2391,5.2391,5.2391,5.2391,5.2391,5.2391,5.2391,5.2391,5.2391,5.2391,5.2391,5.2391,5.2391,5.2391,5.2391,5.2391,5.2391,0.0,0.0,0.0,0.0,0.0,0.0,3.4509,0.0,3.4693,3.5341,3.5482,3.5943,3.7383,0.0,0.0,0.0,0.0,0.0,0.0,0.0,0.0,0.0,0.0,0.0,0.0,0.0,0.0,0.0,4.3573,4.3582,4.3606,4.3606,4.3606,4.3606,4.3606,4.3606,4.3606,4.3606,4.3961,4.467,4.4687,4.5465,4.6874,4.6899,4.7305,4.8001,4.8001,4.8001,4.8001,4.8001,4.8001,4.8001,4.8001,4.8001,4.8001,4.8001,4.8001,4.8117,4.8837,4.9574,5.0328,5.1066,5.1795,5.2391,5.2391,5.2391,5.2391,5.2391,5.2391,5.2391,5.2391,5.2391,5.2391,5.2391,5.2391,5.2391,5.2391,5.2391,5.2391,5.2391,5.2391,5.2391,5.2391,5.2391,5.2391,5.2391,5.2391,5.2391,5.2391,5.2391,5.2391,5.2391,5.2391,5.2391,5.2391,5.2391,5.2391,5.2391,5.2391,5.2391,5.2391,5.2391,5.2391,5.2391,5.2391,5.2391,5.2391,5.2391,5.2391,5.2391,5.2391,5.2391,3.4905,0.0,0.0,0.0,0.0,0.0,3.4798,3.4798,3.4793,3.4783,3.5354,3.5922,3.614,0.0,0.0,0.0,0.0,0.0,0.0,0.0,0.0,0.0,0.0,0.0,0.0,0.0,0.0,0.0,4.2794,4.3043,4.3573,4.3606,4.3606,4.3606,4.3606,4.3606,4.3606,4.3606,4.3705,4.3911,4.4447,4.52,4.612,4.6659,4.7305,4.8001,4.8001,4.8001,4.8001,4.8001,4.8001,4.8001,4.8001,4.8001,4.8001,4.8001,4.8001,4.8117,4.8837,4.9574,5.0328,5.1066,5.1795,5.2391,5.2391,5.2391,5.2391,5.2391,5.2391,5.2391,5.2391,5.2391,5.2391,5.2391,5.2391,5.2391,5.2391,5.2391,5.2391,5.2391,5.2391,5.2391,5.2391,5.2391,5.2391,5.2391,5.2391,5.2391,5.2391,5.2391,5.2391,5.2391,5.2391,5.2391,5.2391,5.2391,5.2391,5.2391,5.2391,5.2391,5.2391,5.2391,5.2391,5.2391,5.2391,5.2391,5.2391,5.2391,5.2391,5.2391,5.2391,5.2391,0.0,0.0,0.0,0.0,0.0,0.0,3.4905,3.4905,3.4857,0.0,3.5128,3.5585,3.5745,3.6448,0.0,0.0,0.0,0.0,0.0,0.0,0.0,0.0,0.0,0.0,0.0,4.0978,4.1276,4.199,4.2033,4.2364,4.3092,4.3424,4.3606,4.3606,4.3606,4.3606,4.3606,4.3606,4.3606,4.3606,4.4035,4.4622,4.5366,4.6104,4.6841,4.7554,4.7868,4.8001,4.8001,4.8001,4.8001,4.8001,4.8001,4.8001,4.8001,4.8001,4.8001,4.8067,4.8489,4.9334,5.0278,5.0709,5.1546,5.2391,5.2391,5.2391,5.2391,5.2391,5.2391,5.2391,5.2391,5.2391,5.2391,5.2391,5.2391,5.2391,5.2391,5.2391,5.2391,5.2391,5.2391,5.2391,5.2391,5.2391,5.2391,5.2391,5.2391,5.2391,5.2391,5.2391,5.2391,5.2391,5.2391,5.2391,5.2391,5.2391,5.2391,5.2391,5.2391,5.2391,5.2391,5.2391,5.2391,5.2391,5.2391,5.2391,5.2391,5.2391,5.2391,5.2391,5.2391,5.2391,0.0,0.0,0.0,0.0,0.0,0.0,3.4905,3.4905,3.4905,3.4905,3.4905,3.5098,3.576,3.5943,3.6218,0.0,0.0,0.0,0.0,0.0,0.0,0.0,0.0,0.0,4.0203,4.0286,4.0561,4.1236,4.1361,4.1726,4.2471,4.3126,4.3523,4.3606,4.3606,4.3606,4.3606,4.3606,4.3606,4.3606,4.3606,4.3985,4.4736,4.5458,4.6203,4.6941,4.7686,4.8001,4.8001,4.8001,4.8001,4.8001,4.8001,4.8001,4.8001,4.8001,4.8001,4.8001,4.8001,4.897,5.0203,5.0203,5.1197,5.2391,5.2391,5.2391,5.2391,5.2391,5.2391,5.2391,5.2391,5.2391,5.2391,5.2391,5.2391,5.2391,5.2391,5.2391,5.2391,5.2391,5.2391,5.2391,5.2391,5.2391,5.2391,5.2391,5.2391,5.2391,5.2391,5.2391,5.2391,5.2391,5.2391,5.2391,5.2391,5.2391,5.2391,5.2391,5.2391,5.2391,5.2391,5.2391,5.2391,5.2391,5.2391,5.2391,5.2391,5.2391,5.2391,5.2391,5.2391,5.2391,0.0,0.0,0.0,0.0,0.0,0.0,3.4905,3.4905,3.4905,0.0,3.4905,3.4932,3.5087,3.5595,3.6059,3.6191,0.0,0.0,0.0,0.0,0.0,0.0,0.0,0.0,3.9491,3.9507,3.9822,4.0544,4.1103,4.1726,4.2471,4.2645,4.2993,4.3582,4.3606,4.3606,4.3606,4.3606,4.3606,4.3606,4.3606,4.3985,4.4736,4.5458,4.6203,4.6941,4.7686,4.8001,4.8001,4.8001,4.8001,4.8001,4.8001,4.8001,4.8001,4.8001,4.8001,4.8001,4.8001,4.897,5.0203,5.0203,5.1197,5.2391,5.2391,5.2391,5.2391,5.2391,5.2391,5.2391,5.2391,5.2391,5.2391,5.2391,5.2391,5.2391,5.2391,5.2391,5.2391,5.2391,5.2391,5.2391,5.2391,5.2391,5.2391,5.2391,5.2391,5.2391,5.2391,5.2391,5.2391,5.2391,5.2391,5.2391,5.2391,5.2391,5.2391,5.2391,5.2391,5.2391,5.2391,5.2391,5.2391,5.2391,5.2391,5.2391,5.2391,5.2391,5.2391,5.2391,5.2391,5.2391,0.0,0.0,0.0,3.4905,0.0,0.0,0.0,3.4905,3.4905,3.4905,3.4905,3.4905,3.4905,0.0,3.5446,3.5446,3.6075,0.0,0.0,0.0,0.0,0.0,0.0,0.0,3.9299,3.9299,3.9441,3.9822,4.0504,4.1061,4.1425,4.2123,4.2662,4.3043,4.3407,4.3606,4.3606,4.3606,4.3606,4.3606,4.3606,4.3788,4.4184,4.4911,4.5657,4.6394,4.7123,4.7653,4.8001,4.8001,4.8001,4.8001,4.8001,4.8001,4.8001,4.8001,4.8001,4.8001,4.8001,4.897,5.0203,5.0203,5.1197,5.2391,5.2391,5.2391,5.2391,5.2391,5.2391,5.2391,5.2391,5.2391,5.2391,5.2391,5.2391,5.2391,5.2391,5.2391,5.2391,5.2391,5.2391,5.2391,5.2391,5.2391,5.2391,5.2391,5.2391,5.2391,5.2391,5.2391,5.2391,5.2391,5.2391,5.2391,5.2391,5.2391,5.2391,5.2391,5.2391,5.2391,5.2391,5.2391,5.2391,5.2391,5.2391,5.2391,5.2391,5.2391,5.2391,5.2391,5.2391,5.2391,0.0,0.0,0.0,0.0,0.0,3.4905,0.0,0.0,0.0,3.4905,3.4905,0.0,0.0,0.0,0.0,0.0,0.0,0.0,0.0,0.0,0.0,0.0,0.0,0.0,3.9093,3.9216,3.9299,3.9299,3.9855,4.0253,4.0386,4.1475,4.2222,4.2487,4.3076,4.3457,4.3606,4.3606,4.3606,4.3606,4.3606,4.3606,4.3622,4.4357,4.5093,4.5839,4.6576,4.7322,4.8001,4.8001,4.8001,4.8001,4.8001,4.8001,4.8001,4.8001,4.8001,4.8001,4.8001,4.887,5.0004,5.0153,5.1197,5.2391,5.2391,5.2391,5.2391,5.2391,5.2391,5.2391,5.2391,5.2391,5.2391,5.2391,5.2391,5.2391,5.2391,5.2391,5.2391,5.2391,5.2391,5.2391,5.2391,5.2391,5.2391,5.2391,5.2391,5.2391,5.2391,5.2391,5.2391,5.2391,5.2391,5.2391,5.2391,5.2391,5.2391,5.2391,5.2391,5.2391,5.2391,5.2391,5.2391,5.2391,5.2391,5.2391,5.2391,5.2391,5.2391,5.2391,5.2391,5.2391,0.0,0.0,0.0,0.0,3.4905,0.0,0.0,0.0,3.4905,3.4905,0.0,0.0,0.0,0.0,0.0,0.0,0.0,0.0,3.5909,3.6135,3.6516,3.7261,0.0,0.0,0.0,3.8921,3.9299,3.9299,3.9381,3.9713,4.0369,4.0551,4.1217,4.2471,4.2579,4.2943,4.3582,4.3606,4.3606,4.3606,4.3606,4.3606,4.3622,4.4357,4.5093,4.5839,4.6576,4.7322,4.8001,4.8001,4.8001,4.8001,4.8001,4.8001,4.8001,4.8001,4.8001,4.8001,4.8001,4.8547,4.9334,4.9996,5.1197,5.2391,5.2391,5.2391,5.2391,5.2391,5.2391,5.2391,5.2391,5.2391,5.2391,5.2391,5.2391,5.2391,5.2391,5.2391,5.2391,5.2391,5.2391,5.2391,5.2391,5.2391,5.2391,5.2391,5.2391,5.2391,5.2391,5.2391,5.2391,5.2391,5.2391,5.2391,5.2391,5.2391,5.2391,5.2391,5.2391,5.2391,5.2391,5.2391,5.2391,5.2391,5.2391,5.2391,5.2391,5.2391,5.2391,5.2391,5.2391,5.2391,0.0,0.0,0.0,0.0,0.0,0.0,3.4834,0.0,3.4905,0.0,0.0,0.0,0.0,0.0,0.0,0.0,3.4905,0.0,0.0,0.0,3.5794,0.0,0.0,0.0,0.0,0.0,0.0,0.0,3.9299,3.9448,3.9746,4.017,4.0852,4.1825,4.2281,4.2844,4.3582,4.3606,4.3606,4.3606,4.3606,4.3606,4.3615,4.3911,4.4705,4.5822,4.6137,4.6924,4.8001,4.8001,4.8001,4.8001,4.8001,4.8001,4.8001,4.8001,4.8001,4.8001,4.8001,4.8473,4.9284,5.0461,5.1546,5.2391,5.2391,5.2391,5.2391,5.2391,5.2391,5.2391,5.2391,5.2391,5.2391,5.2391,5.2391,5.2391,5.2391,5.2391,5.2391,5.2391,5.2391,5.2391,5.2391,5.2391,5.2391,5.2391,5.2391,5.2391,5.2391,5.2391,5.2391,5.2391,5.2391,5.2391,5.2391,5.2391,5.2391,5.2391,5.2391,5.2391,5.2391,5.2391,5.2391,5.2391,5.2391,5.2391,5.2391,5.2391,5.2391,5.2391,5.2391,5.2391,3.4643,0.0,0.0,0.0,0.0,0.0,0.0,0.0,0.0,0.0,0.0,0.0,0.0,0.0,0.0,0.0,0.0,3.4905,0.0,0.0,0.0,0.0,0.0,0.0,0.0,0.0,0.0,0.0,0.0,3.9299,3.9299,3.9812,4.0412,4.1103,4.1825,4.2546,4.3291,4.3499,4.3606,4.3606,4.3606,4.3606,4.3606,4.3606,4.4408,4.5806,4.5806,4.6634,4.8001,4.8001,4.8001,4.8001,4.8001,4.8001,4.7968,4.7746,4.7812,4.7968,4.7754,4.8431,4.9582,5.0643,5.1629,5.2391,5.2391,5.2391,5.2391,5.2391,5.2391,5.2391,5.2391,5.2391,5.2391,5.2391,5.2391,5.2391,5.2391,5.2391,5.2391,5.2391,5.2391,5.2391,5.2391,5.2391,5.2391,5.2391,5.2391,5.2391,5.2391,5.2391,5.2391,5.2391,5.2391,5.2391,5.2391,5.2391,5.2391,5.2391,5.2391,5.2391,5.2391,5.2391,5.2391,5.2391,5.2391,5.2391,5.2391,5.2391,5.2391,5.2391,5.2391,5.2391,0.0,0.0,0.0,3.4774,0.0,0.0,0.0,0.0,3.4905,0.0,0.0,0.0,0.0,0.0,0.0,0.0,0.0,0.0,0.0,0.0,0.0,0.0,0.0,0.0,0.0,0.0,0.0,0.0,0.0,0.0,3.9299,3.9315,3.9673,4.0419,4.107,4.1792,4.253,4.3241,4.3606,4.3606,4.3606,4.3606,4.3606,4.3606,4.4408,4.5806,4.5806,4.6634,4.8001,4.8001,4.8001,4.8001,4.8001,4.8001,4.7911,4.7126,4.7337,4.7886,4.7118,4.8303,5.017,5.022,5.1214,5.2391,5.2391,5.2391,5.2391,5.2391,5.2391,5.2391,5.2391,5.2391,5.2391,5.2391,5.2391,5.2391,5.2391,5.2391,5.2391,5.2391,5.2391,5.2391,5.2391,5.2391,5.2391,5.2391,5.2391,5.2391,5.2391,5.2391,5.2391,5.2391,5.2391,5.2391,5.2391,5.2391,5.2391,5.2391,5.2391,5.2391,5.2391,5.2391,5.2391,5.2391,5.2391,5.2391,5.2391,5.2391,5.2391,5.2391,5.2391,5.2391,0.0,0.0,3.3097,3.3649,0.0,0.0,0.0,0.0,0.0,0.0,0.0,0.0,0.0,0.0,0.0,0.0,0.0,0.0,0.0,0.0,0.0,0.0,0.0,0.0,0.0,0.0,0.0,0.0,0.0,0.0,0.0,3.9299,3.964,4.0386,4.1054,4.1752,4.2497,4.3241,4.3606,4.3606,4.3606,4.3606,4.3606,4.3606,4.4408,4.5806,4.5806,4.6634,4.8001,4.8001,4.8001,4.8001,4.8001,4.7679,4.7177,4.6905,4.6973,4.7169,4.688,4.8286,5.0203,5.0203,5.1197,5.2391,5.2391,5.2391,5.2391,5.2391,5.2391,5.2391,5.2391,5.2391,5.2391,5.2391,5.2391,5.2391,5.2391,5.2391,5.2391,5.2391,5.2391,5.2391,5.2391,5.2391,5.2391,5.2391,5.2391,5.2391,5.2391,5.2391,5.2391,5.2391,5.2391,5.2391,5.2391,5.2391,5.2391,5.2391,5.2391,5.2391,5.2391,5.2391,5.2391,5.2391,5.2391,5.2391,5.2391,5.2391,5.2391,5.2391,5.2391,5.2391,3.3277,3.3011,0.0,3.3129,3.3195,0.0,3.3691,0.0,0.0,0.0,0.0,0.0,0.0,0.0,0.0,0.0,0.0,0.0,0.0,3.4905,0.0,0.0,0.0,0.0,0.0,0.0,0.0,0.0,0.0,0.0,0.0,0.0,3.9514,3.9988,4.0912,4.1626,4.2099,4.3092,4.3606,4.3606,4.3606,4.3606,4.3606,4.3606,4.4408,4.5806,4.5806,4.6634,4.8001,4.8001,4.7836,4.7571,4.7571,4.7101,4.6438,4.6699,4.6794,4.6845,4.7135,4.8532,5.0203,5.0203,5.1197,5.2338,5.2026,5.1935,5.1864,5.1556,5.1692,5.1935,5.1935,5.2169,5.2391,5.2391,5.2391,5.2391,5.2391,5.2391,5.2391,5.2391,5.2391,5.2391,5.2391,5.2142,5.2035,5.2356,5.2391,5.2391,5.2391,5.2391,5.2391,5.2391,5.2391,5.2391,5.2391,5.2391,5.2391,5.2391,5.2391,5.2391,5.2391,5.2391,5.2391,5.2391,5.2391,5.2391,5.2391,5.2391,5.2391,5.2391,5.2391,5.2391]},{"header":{"parameterUnit":"m.s-1","parameterCategory":1,"la1":30.6,"la2":29.2853,"lo1":-89.7004,"lo2":-87.6739,"dy":0.0162,"dx":0.0183,"nx":112,"ny":82,"refTime":"2024-02-09T06:00:00:Z","depth":0,"parameterNumber":3,"parameterNumberName":"V-component_of_WINDS"},"data":[0.0,0.0,0.0,0.0,0.0,0.0,0.0,0.0,0.0,0.0,0.0,0.0,0.0,0.0,0.0,0.0,0.0,0.0,0.0,0.0,0.0,0.0,0.0,0.0,0.0,0.0,0.0,0.0,0.0,0.0,0.0,0.0,0.0,0.0,0.0,0.0,0.0,0.0,0.0,0.0,0.0,0.0,0.0,0.0,0.0,0.0,0.0,0.0,0.0,0.0,0.0,0.0,0.0,0.0,0.0,0.0,0.0,0.0,0.0,0.0,0.0,0.0,0.0,0.0,0.0,0.0,0.0,0.0,0.0,0.0,0.0,0.0,0.0,0.0,0.0,0.0,0.0,0.0,0.0,0.0,0.0,0.0,0.0,0.0,0.0,0.0,0.0,0.0,0.0,0.0,0.0,1.4969,1.4967,1.5215,1.5911,1.5968,1.6244,1.6908,0.0,0.0,0.0,0.0,0.0,0.0,0.0,0.0,0.0,0.0,0.0,0.0,0.0,0.0,0.0,0.0,0.0,0.0,0.0,0.0,0.0,0.0,0.0,0.0,0.0,0.0,0.0,0.0,0.0,0.0,0.0,0.0,0.0,0.0,0.0,0.0,0.0,0.0,0.0,0.0,0.0,0.0,0.0,0.0,0.0,0.0,0.0,0.0,0.0,0.0,0.0,0.0,0.0,0.0,0.0,0.0,0.0,0.0,0.0,0.0,0.0,0.0,0.0,0.0,0.0,0.0,0.0,0.0,0.0,0.0,0.0,0.0,0.0,0.0,0.0,0.0,0.0,0.0,0.0,0.0,0.0,0.0,0.0,0.0,0.0,0.0,0.0,0.0,0.0,0.0,0.0,0.0,0.0,0.0,0.0,0.0,0.0,0.0,0.0,0.0,0.0,0.0,0.0,0.0,1.5661,1.5954,1.5729,1.5878,1.667,1.673,1.7106,1.8004,0.0,0.0,0.0,0.0,0.0,0.0,0.0,0.0,0.0,0.0,0.0,0.0,0.0,0.0,0.0,0.0,0.0,0.0,0.0,0.0,0.0,0.0,0.0,0.0,0.0,0.0,0.0,0.0,0.0,0.0,0.0,0.0,0.0,0.0,0.0,0.0,0.0,0.0,0.0,0.0,0.0,0.0,0.0,0.0,0.0,0.0,0.0,0.0,0.0,0.0,0.0,0.0,0.0,0.0,0.0,0.0,0.0,0.0,0.0,0.0,0.0,0.0,0.0,0.0,0.0,0.0,0.0,0.0,0.0,0.0,0.0,0.0,0.0,0.0,0.0,0.0,0.0,0.0,0.0,0.0,0.0,0.0,0.0,0.0,0.0,0.0,0.0,0.0,0.0,0.0,0.0,0.0,0.0,0.0,0.0,0.0,0.0,0.0,0.0,0.0,0.0,0.0,0.0,1.7099,1.7231,1.7432,1.7309,1.7363,1.774,1.7766,1.7954,1.8379,1.7886,0.0,0.0,0.0,0.0,0.0,0.0,0.0,0.0,0.0,0.0,0.0,0.0,0.0,0.0,0.0,0.0,0.0,0.0,0.0,0.0,0.0,0.0,0.0,0.0,0.0,0.0,0.0,0.0,0.0,0.0,0.0,0.0,0.0,0.0,0.0,0.0,0.0,0.0,0.0,0.0,0.0,0.0,0.0,0.0,0.0,0.0,0.0,0.0,0.0,0.0,0.0,0.0,0.0,0.0,0.0,0.0,0.0,0.0,0.0,0.0,0.0,0.0,0.0,0.0,0.0,0.0,0.0,0.0,0.0,0.0,0.0,0.0,0.0,0.0,0.0,0.0,0.0,0.0,0.0,0.0,0.0,0.0,0.0,0.0,0.0,0.0,0.0,0.0,0.0,0.0,0.0,0.0,0.0,0.0,0.0,0.0,0.0,0.0,0.0,0.0,0.0,0.0,1.822,1.8389,1.849,1.8499,1.8499,1.8499,1.8499,1.8516,1.8575,1.843,0.0,0.0,0.0,0.0,0.0,0.0,0.0,0.0,0.0,0.0,0.0,0.0,0.0,0.0,0.0,0.0,0.0,0.0,0.0,0.0,0.0,0.0,0.0,0.0,0.0,0.0,0.0,0.0,0.0,0.0,0.0,0.0,0.0,0.0,0.0,0.0,0.0,0.0,0.0,0.0,0.0,0.0,0.0,0.0,0.0,0.0,0.0,0.0,0.0,0.0,0.0,0.0,0.0,0.0,0.0,0.0,0.0,0.0,0.0,0.0,0.0,0.0,0.0,0.0,0.0,0.0,0.0,0.0,0.0,0.0,0.0,0.0,0.0,0.0,0.0,0.0,0.0,0.0,0.0,0.0,0.0,0.0,0.0,0.0,0.0,0.0,0.0,0.0,0.0,0.0,0.0,0.0,0.0,0.0,0.0,0.0,0.0,0.0,0.0,0.0,0.0,0.0,1.847,1.849,1.8499,1.8499,1.8499,1.8499,1.8499,1.8583,1.8766,1.8591,0.0,0.0,0.0,0.0,0.0,0.0,0.0,0.0,0.0,0.0,0.0,0.0,0.0,0.0,0.0,0.0,0.0,0.0,0.0,0.0,0.0,0.0,0.0,0.0,0.0,0.0,0.0,0.0,0.0,0.0,0.0,0.0,0.0,0.0,0.0,0.0,0.0,0.0,0.0,0.0,0.0,0.0,0.0,0.0,0.0,0.0,0.0,0.0,0.0,0.0,0.0,0.0,0.0,0.0,0.0,0.0,0.0,0.0,0.0,0.0,0.0,0.0,0.0,0.0,0.0,0.0,0.0,0.0,0.0,0.0,0.0,0.0,0.0,0.0,0.0,0.0,0.0,0.0,0.0,0.0,0.0,0.0,0.0,0.0,0.0,0.0,0.0,0.0,0.0,0.0,0.0,0.0,0.0,0.0,0.0,0.0,0.0,0.0,0.0,0.0,0.0,0.0,1.9021,1.9168,0.0,1.9542,1.9678,1.9678,1.9678,1.9723,1.9792,0.0,0.0,0.0,0.0,0.0,0.0,0.0,0.0,0.0,0.0,0.0,0.0,0.0,0.0,0.0,0.0,0.0,0.0,0.0,0.0,0.0,0.0,0.0,0.0,0.0,0.0,0.0,0.0,0.0,0.0,0.0,0.0,0.0,0.0,0.0,0.0,0.0,0.0,0.0,0.0,0.0,0.0,0.0,0.0,0.0,0.0,0.0,0.0,0.0,0.0,0.0,0.0,0.0,0.0,0.0,0.0,0.0,0.0,0.0,0.0,0.0,0.0,0.0,0.0,0.0,0.0,0.0,0.0,0.0,0.0,0.0,0.0,0.0,0.0,0.0,0.0,0.0,0.0,0.0,0.0,0.0,0.0,0.0,0.0,0.0,0.0,0.0,0.0,0.0,0.0,0.0,0.0,0.0,0.0,0.0,0.0,0.0,0.0,0.0,0.0,0.0,0.0,1.9479,1.9666,1.9844,0.0,2.0245,2.0394,2.0394,2.0394,2.0394,2.0394,0.0,0.0,0.0,0.0,0.0,0.0,0.0,0.0,0.0,0.0,0.0,0.0,0.0,0.0,0.0,0.0,0.0,0.0,0.0,0.0,0.0,0.0,0.0,0.0,0.0,0.0,0.0,0.0,0.0,0.0,0.0,0.0,0.0,0.0,0.0,0.0,0.0,0.0,0.0,0.0,0.0,0.0,0.0,0.0,0.0,0.0,0.0,0.0,0.0,0.0,0.0,0.0,0.0,0.0,0.0,0.0,0.0,0.0,0.0,0.0,0.0,0.0,0.0,0.0,0.0,0.0,0.0,0.0,0.0,0.0,0.0,0.0,0.0,0.0,0.0,0.0,0.0,0.0,0.0,0.0,0.0,0.0,0.0,0.0,0.0,0.0,0.0,0.0,0.0,0.0,0.0,0.0,0.0,0.0,0.0,0.0,0.0,0.0,0.0,0.0,0.0,0.0,2.0351,2.0404,2.0413,2.0413,2.0404,2.0423,2.0423,2.0423,2.0423,0.0,0.0,0.0,0.0,0.0,0.0,0.0,0.0,0.0,0.0,0.0,0.0,0.0,0.0,0.0,0.0,0.0,0.0,0.0,0.0,0.0,0.0,0.0,0.0,0.0,0.0,0.0,0.0,0.0,0.0,0.0,0.0,0.0,0.0,0.0,0.0,0.0,0.0,0.0,0.0,0.0,0.0,0.0,0.0,0.0,0.0,0.0,0.0,0.0,0.0,0.0,0.0,0.0,0.0,0.0,0.0,0.0,0.0,0.0,0.0,0.0,0.0,0.0,0.0,0.0,0.0,0.0,0.0,0.0,0.0,0.0,0.0,0.0,0.0,0.0,0.0,0.0,0.0,0.0,0.0,0.0,0.0,0.0,0.0,0.0,0.0,0.0,0.0,0.0,0.0,0.0,0.0,0.0,0.0,0.0,0.0,0.0,0.0,0.0,0.0,0.0,0.0,0.0,2.0373,2.0692,2.0889,2.0889,2.1198,2.1384,2.1384,2.1384,2.1384,2.1384,0.0,0.0,0.0,0.0,0.0,0.0,0.0,0.0,0.0,0.0,0.0,0.0,0.0,0.0,0.0,0.0,0.0,0.0,0.0,0.0,0.0,0.0,0.0,0.0,0.0,0.0,0.0,0.0,0.0,0.0,0.0,0.0,0.0,0.0,0.0,0.0,0.0,0.0,0.0,0.0,0.0,0.0,0.0,0.0,0.0,0.0,0.0,0.0,0.0,0.0,0.0,0.0,0.0,0.0,0.0,0.0,0.0,0.0,0.0,0.0,0.0,0.0,0.0,0.0,0.0,0.0,0.0,0.0,0.0,0.0,0.0,0.0,0.0,0.0,0.0,0.0,0.0,0.0,0.0,0.0,0.0,0.0,0.0,0.0,0.0,0.0,0.0,0.0,0.0,0.0,0.0,0.0,0.0,0.0,0.0,0.0,0.0,0.0,0.0,0.0,0.0,0.0,2.093,2.1199,2.1384,2.1384,2.1632,2.1798,2.1798,2.1798,2.1798,2.1798,0.0,0.0,0.0,0.0,0.0,0.0,0.0,0.0,0.0,0.0,0.0,0.0,0.0,0.0,0.0,0.0,0.0,0.0,0.0,0.0,0.0,0.0,0.0,0.0,0.0,0.0,0.0,0.0,0.0,0.0,0.0,0.0,0.0,0.0,0.0,0.0,0.0,0.0,0.0,0.0,0.0,0.0,0.0,0.0,0.0,0.0,0.0,0.0,0.0,0.0,0.0,0.0,0.0,0.0,0.0,0.0,0.0,0.0,0.0,0.0,0.0,0.0,0.0,0.0,0.0,0.0,0.0,0.0,0.0,0.0,0.0,0.0,0.0,0.0,0.0,0.0,0.0,0.0,0.0,0.0,0.0,0.0,0.0,0.0,0.0,0.0,0.0,0.0,0.0,0.0,0.0,0.0,0.0,0.0,0.0,0.0,0.0,0.0,0.0,0.0,0.0,0.0,2.1756,2.1798,2.1798,2.1798,2.1798,2.1798,2.1798,2.1798,2.1798,2.1798,0.0,0.0,0.0,0.0,0.0,0.0,0.0,0.0,0.0,0.0,0.0,0.0,0.0,0.0,0.0,0.0,0.0,0.0,0.0,0.0,0.0,0.0,0.0,0.0,0.0,0.0,0.0,0.0,0.0,0.0,0.0,0.0,0.0,0.0,0.0,0.0,0.0,0.0,0.0,0.0,0.0,0.0,0.0,0.0,0.0,0.0,0.0,0.0,0.0,0.0,0.0,0.0,0.0,0.0,0.0,0.0,0.0,0.0,0.0,0.0,1.3789,0.0,0.0,0.0,0.0,0.0,0.0,0.0,0.0,0.0,0.0,0.0,0.0,0.0,0.0,0.0,0.0,0.0,0.0,0.0,0.0,0.0,0.0,0.0,0.0,0.0,0.0,0.0,0.0,0.0,0.0,0.0,0.0,0.0,0.0,0.0,0.0,0.0,0.0,0.0,0.0,0.0,2.1797,2.1798,2.1798,2.1798,2.1798,2.1798,2.1798,2.1798,2.1798,2.1798,2.1798,0.0,0.0,0.0,0.0,0.0,0.0,0.0,0.0,0.0,0.0,0.0,0.0,0.0,0.0,0.0,0.0,0.0,0.0,0.0,0.0,0.0,0.0,0.0,0.0,0.0,0.0,0.0,0.0,0.0,0.0,0.0,0.0,0.0,0.0,0.0,0.0,0.0,0.0,0.0,0.0,0.0,0.0,0.0,0.0,0.0,0.0,0.0,0.0,0.0,0.0,0.0,0.0,0.0,0.0,0.0,0.0,0.0,0.0,0.0,0.0,1.4384,0.0,0.0,0.0,0.0,0.0,0.0,0.0,0.0,0.0,0.0,0.0,0.0,0.0,0.0,0.0,0.0,0.0,0.0,0.0,0.0,0.0,0.0,0.0,0.0,0.0,0.0,0.0,0.0,0.0,0.0,0.0,0.0,0.0,0.0,0.0,0.0,0.0,0.0,0.0,0.0,2.1798,2.1798,2.1798,2.1798,2.1798,2.1798,2.1798,2.1798,2.1798,2.1798,2.1798,0.0,0.0,0.0,0.0,0.0,0.0,0.0,0.0,0.0,0.0,0.0,0.0,0.0,0.0,0.0,0.0,0.0,0.0,0.0,0.0,0.0,0.0,0.0,0.0,0.0,0.0,0.0,0.0,0.0,0.0,0.0,0.0,0.0,0.0,0.0,0.0,0.0,0.0,0.0,0.0,0.0,0.0,0.0,0.0,0.0,0.0,0.0,0.0,0.0,0.0,0.0,0.0,0.0,1.6926,1.7362,1.7892,1.7892,1.8033,1.8193,1.6259,1.537,1.5308,0.0,0.0,0.0,0.0,0.0,0.0,0.0,0.0,0.0,0.0,0.0,0.0,0.0,0.0,0.0,0.0,0.0,0.0,0.0,0.0,0.0,0.0,0.0,0.0,0.0,1.9859,2.0432,0.0,0.0,0.0,0.0,0.0,0.0,0.0,0.0,0.0,0.0,0.0,0.0,2.1798,2.1798,2.1798,2.1798,2.1798,2.1798,2.1798,2.1798,2.1798,2.1798,2.1798,2.1798,0.0,0.0,0.0,0.0,0.0,0.0,0.0,0.0,0.0,0.0,0.0,0.0,0.0,0.0,0.0,0.0,0.0,0.0,0.0,0.0,0.0,0.0,0.0,0.0,0.0,0.0,0.0,0.0,0.0,0.0,0.0,0.0,1.389,1.4709,0.0,0.0,0.0,0.0,0.0,0.0,0.0,0.0,0.0,0.0,0.0,0.0,0.0,1.7767,1.7837,1.8164,1.8363,1.8463,1.8501,1.8576,1.8651,1.8651,1.868,1.87,1.8391,0.0,1.7732,1.7732,0.0,0.0,0.0,0.0,0.0,0.0,0.0,0.0,0.0,0.0,0.0,0.0,0.0,0.0,0.0,0.0,0.0,0.0,0.0,0.0,0.0,0.0,2.0194,2.0194,2.0617,2.0992,0.0,2.0651,2.0518,2.093,2.1012,0.0,0.0,0.0,0.0,0.0,0.0,0.0,2.1798,2.1798,2.1798,2.1798,2.1798,2.1798,2.1798,2.1798,2.1798,2.1798,2.1798,2.1798,2.1798,2.1798,0.0,0.0,0.0,0.0,0.0,0.0,0.0,0.0,0.0,0.0,0.0,0.0,0.0,0.0,0.0,0.0,0.0,0.0,0.0,0.0,0.0,0.0,0.0,0.0,0.0,0.0,0.0,0.0,0.0,1.4202,1.4501,1.4804,1.5018,1.5075,0.0,0.0,0.0,0.0,0.0,0.0,0.0,0.0,0.0,1.8096,1.8397,1.8679,1.8975,1.9092,1.9313,1.9657,1.9863,2.0159,2.0489,2.0489,2.0489,2.0489,2.0489,2.0388,2.0141,1.8998,1.8285,1.7882,0.0,0.0,0.0,0.0,1.7882,1.7918,1.8222,1.8524,0.0,0.0,0.0,0.0,0.0,0.0,0.0,0.0,0.0,0.0,0.0,0.0,0.0,2.0796,2.1147,2.1498,2.1498,2.1332,2.125,0.0,2.1498,2.156,2.1756,0.0,0.0,0.0,0.0,2.1798,2.1798,2.1798,2.1798,2.1798,2.1798,2.1798,2.1798,2.1798,2.1798,2.1798,2.1798,2.1798,2.1798,2.1798,2.1798,0.0,0.0,0.0,0.0,0.0,0.0,0.0,0.0,0.0,0.0,0.0,0.0,0.0,0.0,0.0,0.0,0.0,0.0,0.0,0.0,0.0,0.0,0.0,0.0,0.0,0.0,0.0,0.0,1.5076,1.5286,1.5322,1.5832,1.6052,0.0,0.0,0.0,0.0,0.0,0.0,1.8549,1.8963,1.9369,1.9764,1.9642,1.9824,2.0342,2.0239,2.0485,2.1054,2.1347,2.1722,2.2159,2.2159,2.2159,2.2159,2.2159,2.2159,2.2019,2.028,1.9478,1.9339,1.9339,1.9228,1.9106,1.9274,1.9339,1.9358,1.9506,1.983,2.0107,1.9701,0.0,1.9858,1.946,0.0,0.0,0.0,0.0,2.0254,2.0645,2.1013,2.1281,2.1281,2.155,2.1798,2.1798,2.1798,2.1798,0.0,2.1798,2.1798,2.1798,0.0,0.0,0.0,0.0,2.1798,2.1798,2.1798,2.1798,2.1798,2.1798,2.1798,2.1798,2.1798,2.1798,2.1798,2.1798,2.1798,2.1798,2.1798,2.1798,2.1798,0.0,0.0,0.0,0.0,0.0,0.0,0.0,0.0,0.0,0.0,0.0,0.0,0.0,0.0,0.0,0.0,0.0,0.0,0.0,0.0,0.0,0.0,0.0,0.0,0.0,0.0,0.0,0.0,0.0,1.6982,1.7599,0.0,0.0,0.0,0.0,1.9397,1.9027,1.8982,1.9492,1.9973,2.0239,2.0258,2.1168,2.1875,2.2348,2.2349,2.2576,2.305,2.3061,2.3102,2.3132,2.3132,2.3132,2.3132,2.3132,2.3132,2.3049,2.206,2.1315,2.0787,2.0787,2.0411,1.9915,2.0556,2.0787,2.0884,2.145,2.1668,2.1678,2.1659,2.1277,2.0826,2.0797,2.0787,0.0,0.0,2.1249,2.1697,2.1725,2.1746,2.1756,2.1756,2.1777,2.1798,2.1798,2.1798,2.1798,0.0,2.1798,2.1798,2.1798,0.0,2.1798,2.1798,2.1798,2.1798,2.1798,2.1798,2.1798,2.1798,2.1798,2.1798,2.1798,2.1798,2.1798,2.1798,2.1798,2.1798,2.1798,2.1798,2.1798,2.1798,2.1798,0.0,0.0,0.0,0.0,0.0,0.0,0.0,0.0,0.0,0.0,0.0,0.0,0.0,0.0,0.0,0.0,0.0,0.0,0.0,0.0,0.0,0.0,0.0,0.0,0.0,0.0,0.0,0.0,1.8198,1.8727,0.0,1.8773,1.9374,1.9836,2.004,2.0466,2.0805,2.1003,2.1461,2.1715,2.1715,2.2361,2.278,2.2956,2.2956,2.3028,2.3194,2.3194,2.3194,2.3204,2.3505,2.365,2.366,2.3919,2.4043,2.4012,2.3681,2.3083,2.2379,2.2379,2.223,2.205,2.229,2.2379,2.2409,2.2628,2.2697,2.2697,2.2697,2.2569,2.2379,2.2379,2.2379,2.2379,2.2379,2.2538,2.2697,2.2697,2.2697,2.2697,2.2697,2.2697,2.2697,2.2697,2.2697,2.2697,2.2697,2.2459,2.2252,2.2252,2.2501,2.2697,2.2697,2.2697,2.2697,2.2697,2.2697,2.2697,2.2697,2.2697,2.2697,2.2697,2.2697,2.2563,2.2273,2.2252,2.2118,2.1808,2.1798,2.1798,2.1798,2.1798,2.1798,0.0,0.0,0.0,0.0,0.0,0.0,0.0,0.0,0.0,0.0,0.0,0.0,0.0,0.0,0.0,0.0,0.0,0.0,0.0,0.0,0.0,0.0,0.0,0.0,0.0,0.0,1.9103,1.9009,1.9657,1.9946,1.9557,2.0438,2.104,2.104,2.1812,2.2273,2.2273,2.2563,2.2738,2.2738,2.3194,2.3505,2.3639,2.3805,2.395,2.4105,2.4105,2.4105,2.4116,2.4437,2.4572,2.4592,2.486,2.4973,2.4973,2.4973,2.4622,2.4074,2.3608,2.3339,2.3194,2.3194,2.3194,2.3194,2.3194,2.3194,2.3194,2.3194,2.3194,2.3194,2.3194,2.3194,2.3194,2.3194,2.3194,2.3194,2.3194,2.3194,2.3194,2.3194,2.3194,2.3194,2.3194,2.3194,2.3194,2.3194,2.2956,2.2738,2.2738,2.2997,2.3194,2.3194,2.3194,2.3194,2.3194,2.3194,2.3194,2.3194,2.3194,2.3194,2.3194,2.3194,2.307,2.2759,2.2738,2.2604,2.2293,2.2273,2.2201,2.2045,2.1881,2.1798,2.1798,0.0,0.0,0.0,0.0,0.0,0.0,0.0,0.0,0.0,0.0,0.0,0.0,0.0,0.0,0.0,0.0,0.0,0.0,0.0,0.0,0.0,0.0,0.0,1.8382,1.9014,1.96,1.9487,2.0467,2.1089,2.0962,2.1901,2.2511,2.2511,2.2946,2.3204,2.3215,2.3235,2.3246,2.3256,2.3722,2.4146,2.4538,2.4993,2.545,2.5897,2.5897,2.5897,2.5897,2.5918,2.5918,2.5929,2.5949,2.596,2.596,2.596,2.596,2.5815,2.4478,2.3681,2.3277,2.3277,2.3277,2.3277,2.3277,2.3277,2.3277,2.3277,2.3277,2.3277,2.3277,2.3277,2.3277,2.3277,2.3277,2.3277,2.3277,2.3277,2.3277,2.3277,2.3277,2.3277,2.3277,2.3277,2.3287,2.3338,2.3328,2.3307,2.3235,2.3245,2.3276,2.3276,2.3296,0.0,2.3316,2.3316,2.3306,2.3276,2.3276,2.3266,2.3235,2.3235,2.3235,2.3225,2.3215,2.3225,2.3194,2.3194,2.2987,2.2532,2.2076,2.1839,2.1839,0.0,0.0,0.0,0.0,0.0,0.0,0.0,0.0,0.0,0.0,0.0,0.0,0.0,0.0,0.0,0.0,0.0,0.0,0.0,0.0,0.0,2.0156,2.062,1.9811,2.0269,2.0798,2.1095,2.1719,2.2092,2.2059,2.2629,2.3008,2.3008,2.3132,2.3349,2.3691,2.3981,2.4301,2.4642,2.511,2.54,2.5513,2.5648,2.5772,2.5897,2.5897,2.5897,2.5908,2.625,2.6417,2.6436,2.7076,2.7343,2.7343,2.7343,2.7181,2.681,2.5763,2.5276,2.5162,2.5162,2.5162,2.5162,2.5162,2.5162,2.5162,2.5162,2.5162,2.5162,2.5162,2.5162,2.5162,2.5162,2.5162,2.5162,2.5162,2.5162,2.5162,2.5162,2.5162,2.5162,2.5162,2.5162,2.5371,2.6098,2.6217,2.5648,2.3981,2.448,2.5086,2.5086,2.5622,0.0,2.6031,2.6031,2.5796,2.5148,2.5086,2.4827,2.4199,2.4136,2.4022,2.3732,2.3712,2.3546,2.3204,2.3194,2.3132,2.3008,2.2883,2.2821,0.0,0.0,0.0,0.0,0.0,0.0,0.0,0.0,0.0,0.0,0.0,0.0,0.0,0.0,0.0,0.0,0.0,0.0,0.0,0.0,0.0,0.0,2.0882,2.1354,2.1246,2.1494,2.1797,2.2066,2.2511,2.279,2.279,2.337,2.3743,2.3743,2.4116,2.4458,2.4727,2.4964,2.5212,2.5481,2.5948,2.6188,2.6188,2.6559,2.6734,2.6734,2.6931,2.7036,2.7034,2.7315,2.7439,0.0,2.7974,2.8189,2.8189,2.8189,2.8059,0.0,0.0,0.0,0.0,0.0,2.5897,2.5897,2.5897,2.5897,2.5897,2.5897,2.5897,2.5897,2.5897,2.5897,2.5897,2.5897,2.5897,2.5897,2.5897,2.5897,2.5897,2.5897,2.5897,2.5897,2.5897,2.5897,2.6078,2.6661,2.674,0.0,2.5519,2.6309,2.7068,2.7068,2.7488,2.7812,2.7812,2.7468,2.7184,2.7067,2.6488,2.5903,2.5455,2.5189,0.0,0.0,0.0,2.4022,2.3753,2.3588,0.0,0.0,0.0,2.3194,2.3194,0.0,0.0,0.0,2.2397,2.2397,0.0,0.0,0.0,0.0,0.0,0.0,0.0,0.0,0.0,0.0,0.0,0.0,0.0,0.0,0.0,0.0,2.157,2.2025,2.2439,2.2593,2.2645,2.2593,2.3029,2.3349,2.3349,2.4136,2.4663,2.4663,2.543,2.5929,2.598,0.0,0.0,0.0,0.0,2.6831,2.6831,2.7581,2.7972,2.7983,2.8409,2.8605,2.8605,2.8605,2.8605,2.8605,2.8657,2.8678,2.8678,2.8678,2.8647,2.8481,2.7284,2.6571,2.6197,2.6197,2.6197,2.6197,2.6197,0.0,0.0,2.6136,2.6083,2.6063,2.6063,2.6063,2.6063,2.6063,2.6063,2.6063,2.6063,2.6063,2.6063,2.6063,2.6063,2.6063,2.6063,2.6063,2.6087,2.62,2.6223,2.654,2.7546,2.8313,2.8825,2.8932,2.8943,2.8943,2.8943,2.8114,2.781,2.8535,0.0,0.0,2.6606,2.6117,2.5477,2.4717,2.4611,2.458,2.458,2.4198,2.3971,2.3971,2.3556,2.3349,2.3349,2.3349,2.3349,2.3349,2.3246,2.3194,0.0,0.0,0.0,0.0,0.0,0.0,0.0,0.0,0.0,0.0,0.0,0.0,0.0,0.0,0.0,2.1601,2.2066,2.2397,2.249,2.3153,2.3494,2.3111,2.3763,2.4249,2.4249,2.5088,2.5627,2.5627,2.5804,2.6063,2.6436,2.6821,2.7182,2.7498,2.7964,2.8202,2.8202,2.8378,2.8458,2.8471,0.0,0.0,2.8605,2.8605,2.8605,2.8616,2.8998,2.9153,2.9153,2.9153,2.8936,2.8574,2.8305,2.8162,2.809,2.809,2.809,2.809,2.809,2.7829,2.7509,2.7509,2.7282,2.7028,2.7028,2.7028,0.0,2.7028,2.7028,2.7028,2.7028,2.7028,2.7028,2.7028,2.7028,2.7028,2.7028,2.7028,2.7253,2.8012,2.8163,2.8475,2.9489,2.9139,2.8976,2.9731,2.9806,2.9775,2.9775,2.8901,2.8081,2.7568,2.7239,2.6788,2.611,2.5948,2.5807,2.5639,2.5273,2.5055,2.5055,2.4621,2.4384,2.4384,2.4291,2.4249,2.4249,2.4249,2.4249,2.4229,2.3525,2.3194,0.0,0.0,0.0,0.0,0.0,0.0,0.0,0.0,0.0,0.0,0.0,2.1168,2.1405,0.0,2.188,2.2118,2.2542,2.2935,2.3163,2.3774,2.4115,2.3877,2.4435,2.4942,2.5181,2.5834,2.625,2.625,2.6652,2.7003,2.7231,2.7698,2.8038,2.8241,2.8481,2.8605,2.8605,2.8833,2.8947,2.8947,2.9197,2.9301,2.9301,2.9301,2.9301,2.9321,2.9549,2.9653,2.9653,2.9653,2.9508,2.9301,2.9301,2.9009,2.8605,2.8605,2.8605,2.8605,2.8605,2.845,2.8253,2.8253,2.8109,2.7947,2.7947,2.7947,2.7947,2.7947,2.7947,2.7947,2.7947,2.7947,2.7947,2.7947,2.7771,2.7605,2.7605,2.7441,2.7441,2.7915,2.801,2.8315,2.9291,2.9037,2.9024,2.9994,3.0126,3.0104,3.0104,2.9665,2.918,2.8746,2.8433,2.79,2.7025,2.6305,2.5897,2.5897,2.5678,2.5554,2.5554,2.5326,2.5202,2.5202,2.5202,2.5202,2.5202,2.5202,2.5202,2.5191,2.4747,2.4302,0.0,0.0,0.0,0.0,0.0,0.0,0.0,0.0,2.1239,2.1239,2.1539,2.1798,2.1798,2.218,2.2501,2.2501,2.2966,2.3505,2.395,2.4374,2.4693,2.4891,2.5242,2.5615,2.6001,2.6529,2.6849,2.6849,2.7593,2.8046,2.8046,2.8481,2.874,2.874,2.8822,2.8874,2.8874,2.9259,2.9435,2.9446,2.9818,2.9994,2.9994,2.9994,2.9994,2.9994,2.9994,2.9994,2.9994,2.9994,2.9994,2.9994,2.9994,2.9539,2.8874,2.8874,2.8874,2.8874,2.8874,2.8812,2.874,2.874,2.8678,2.8605,2.8605,2.8605,2.8605,2.8605,2.8605,2.8605,2.8605,2.8605,2.8605,2.8605,2.8303,2.8046,2.8046,2.7779,2.7545,2.7545,2.7545,2.7786,2.8549,2.8679,2.9083,3.0295,3.0147,2.9977,3.017,2.9875,2.9635,2.9635,2.9207,2.8633,2.7918,2.681,2.6167,2.6167,2.6084,2.6032,2.6032,2.5949,2.5897,2.5897,2.5897,2.5897,2.5897,2.5897,2.5897,2.5897,2.5897,2.5492,2.0742,2.0605,2.0341,2.0392,2.0713,2.1023,0.0,0.0,2.1715,2.1715,2.1756,2.1798,2.1798,2.218,2.2501,2.2501,2.3235,2.396,2.4384,2.4828,2.5428,2.627,2.6405,2.6457,2.652,2.7272,2.7745,2.7745,2.8233,2.8522,2.8522,2.8967,2.9216,2.9216,2.9622,2.9839,2.9839,2.9891,2.9922,2.9922,2.9973,2.9994,2.9994,2.9994,2.9994,2.9994,2.9994,2.9994,2.9994,2.9994,2.9994,2.9994,2.9994,2.9932,2.9839,2.9839,2.9839,2.9839,2.9839,2.957,2.9216,2.9216,2.8936,2.8605,2.8605,2.8605,2.8605,2.8605,2.8605,2.8605,2.8605,2.8605,2.8605,2.8605,2.8564,2.8522,2.8522,2.8481,2.845,2.845,2.845,2.8487,2.8589,2.8613,2.9261,3.1166,2.9966,2.9187,3.0091,2.869,2.7619,2.7619,2.7555,2.7476,2.7392,2.7232,2.7142,2.7142,2.6759,2.6519,2.6519,2.6115,2.5897,2.5897,2.5897,2.5897,2.5897,2.5897,2.5897,2.5897,2.5897,2.5834,2.0934,2.1131,2.1209,0.0,2.1363,2.1508,2.1508,2.1653,2.1798,2.1798,2.1798,2.1881,2.2159,2.2593,2.2997,0.0,2.4074,2.4726,2.489,2.5553,2.6155,2.655,2.7046,2.7355,2.7355,2.7695,2.8014,2.8295,2.874,2.9009,2.9009,2.9456,2.9704,2.9704,2.9891,2.9994,2.9994,3.0263,3.0411,3.0411,3.068,3.0815,3.0815,3.0815,3.0815,3.0815,3.0815,3.0815,3.0794,3.0525,3.0411,3.038,3.0111,2.9994,2.9994,2.9994,2.9994,2.9994,2.9994,2.987,2.9704,2.9704,2.957,2.9415,2.9415,2.9415,2.9415,2.9415,2.9415,2.9415,2.9415,2.9415,2.9415,2.9415,2.9208,2.9009,2.9009,2.8791,2.8605,2.8605,2.8605,2.8605,2.8605,2.8605,2.9081,3.0512,2.9541,2.8784,2.9219,2.8837,2.8414,2.8148,2.7631,2.7297,2.7297,2.7297,2.7297,2.7297,2.7111,2.7007,2.7007,2.6821,2.6717,2.6717,2.6717,2.6717,2.6717,2.6717,2.6717,2.6717,2.6717,2.6717,2.1236,2.1539,0.0,2.1798,2.1798,2.1798,2.1798,2.1798,2.1798,2.1798,2.1891,2.2097,2.2449,2.2987,2.3494,2.3846,2.4633,2.5253,2.5366,2.6093,2.6655,2.6779,2.7448,2.7952,2.8076,2.821,2.8429,2.8771,2.9239,2.9497,2.9497,2.9818,2.9994,2.9994,3.0132,3.018,3.018,3.066,3.0887,3.0898,3.1243,3.1408,3.1408,3.1408,3.1408,3.1408,3.1408,3.1408,3.1364,3.1022,3.0887,3.0856,3.0525,3.039,3.039,3.039,3.0212,2.9994,2.9994,2.9994,2.9994,2.9994,2.9994,2.9994,2.9994,2.9994,2.9994,2.9994,2.9994,2.9994,2.9994,2.9994,2.9994,2.9994,2.9735,2.9497,2.9497,2.9228,2.8988,2.8988,2.8988,2.8988,2.8988,2.8988,2.923,2.996,2.9457,2.8985,2.9012,2.9106,2.9054,2.8711,2.8058,2.7659,2.7659,2.7659,2.7659,2.7659,2.7659,2.7659,2.7659,2.7659,2.7659,2.7659,2.7659,2.7659,2.7659,2.7659,2.7659,2.7659,2.7659,2.7659,2.1881,0.0,2.1798,2.1798,2.1798,2.1798,2.1798,2.1798,2.1798,2.1798,2.2159,2.248,2.2501,2.3256,2.3877,2.3898,2.4633,2.5356,2.5814,2.6303,2.6769,2.7215,2.7645,2.8076,0.0,2.8988,2.927,2.928,2.9715,2.9973,2.9973,2.9984,2.9994,2.9994,3.0442,3.068,3.068,3.1136,3.1388,3.1388,3.1384,3.1408,3.1408,3.1408,3.1408,3.1408,3.1408,3.1408,3.1408,3.1374,3.1388,3.1377,3.1367,3.1367,3.1367,3.1367,3.0784,2.9994,2.9994,2.9994,2.9994,2.9994,2.9994,2.9994,2.9994,2.9994,2.9994,2.9994,2.9994,2.9994,2.9994,2.9994,2.9994,2.9994,2.9984,2.9973,2.9973,2.9963,2.9966,2.9966,2.9966,2.9966,2.9966,2.9966,2.9966,2.9992,2.9979,2.9983,3.005,2.9218,2.8624,2.8601,2.8589,2.8553,2.8553,2.8553,2.8553,2.8553,2.8553,2.8553,2.8553,2.8553,2.8553,2.8553,2.8553,2.8553,2.8553,2.8553,2.8553,2.8553,2.8553,2.8553,2.2233,0.0,2.1864,2.2129,2.2007,2.1798,2.1798,2.1798,2.1798,2.1798,2.217,2.2604,2.2914,2.3484,2.3981,2.4249,2.5078,2.5721,2.5877,2.6571,2.7121,2.7277,2.7936,0.0,0.0,0.0,0.0,2.9735,2.9911,2.9994,2.9994,2.9994,3.0129,3.0453,3.0618,3.0846,3.1157,3.1588,3.1802,3.1798,3.2112,3.2257,3.2257,3.2257,3.2257,3.2257,3.2257,3.2257,3.2236,3.1926,3.1802,3.1771,3.1509,3.1408,3.1408,3.1408,3.1198,3.0929,3.0929,3.0929,3.0877,3.0566,3.0463,3.0411,3.0087,2.9994,2.9994,2.9994,2.9994,2.9994,2.9994,2.9994,2.9994,2.9994,2.9994,2.9994,2.9994,2.9994,2.9994,2.9994,2.9994,2.9994,2.9994,2.9994,2.9994,2.9994,2.9994,2.9896,2.9615,2.9265,2.8959,2.8636,2.8605,2.8605,2.8605,2.8605,2.8605,2.8605,2.8605,2.8605,2.8605,2.8605,2.8605,2.8605,2.8605,2.8605,2.8605,2.8605,2.8605,2.8605,2.8605,2.8605,2.2214,2.2007,2.1864,2.212,2.1987,2.1798,2.1798,2.1798,2.1849,2.2025,2.2418,2.2894,2.336,2.3805,2.425,2.4683,2.5399,2.596,2.6125,2.6809,2.7297,2.7297,2.8071,2.8605,0.0,0.0,0.0,2.9987,2.9994,2.9994,2.9994,3.0163,3.039,3.0691,3.0998,3.1309,3.1609,3.205,3.2239,3.225,3.2564,3.2698,3.2698,3.2698,3.2698,3.2698,3.2698,3.2698,3.2677,3.2363,3.2239,3.2219,3.1971,3.1857,3.1857,3.1857,3.1857,3.1816,3.1512,3.1408,3.1357,3.1043,3.095,3.0867,3.0387,3.0256,3.0225,3.0059,2.9994,2.9994,2.9994,2.9994,2.9994,2.9994,2.9994,2.9994,2.9994,2.9994,2.9994,2.9994,2.9994,2.9994,2.9994,2.9994,2.9994,2.9994,2.9994,2.9891,2.9591,2.9549,2.9435,2.9122,2.9091,2.9091,2.9091,2.9091,2.9091,2.9091,2.9091,2.9091,2.9091,2.9091,2.9091,2.9091,2.9091,2.9091,2.9091,2.9091,2.9091,2.9091,2.9091,2.9091,2.1988,2.1855,2.1817,2.1855,2.1836,2.1798,2.1798,2.1798,2.1932,2.2366,2.2863,2.3339,0.0,0.0,2.4652,2.5097,2.5585,2.6064,2.6498,2.6987,2.7297,0.0,0.0,0.0,0.0,0.0,0.0,2.9994,0.0,2.9994,2.9994,3.0453,3.0711,3.0742,3.1564,3.2012,3.2033,3.2481,3.2698,3.2698,3.2698,3.2698,3.2698,3.2698,3.2698,3.2698,3.2698,3.2698,3.2698,3.2698,3.2698,3.2698,3.2698,3.2698,3.2698,3.2698,3.2698,3.2574,3.1743,3.1471,3.1457,3.1436,3.1426,3.1343,3.0877,3.0742,3.0639,3.0204,3.0046,3.0036,3.0036,3.0015,2.9994,2.9994,2.9994,2.9994,2.9994,2.9994,2.9994,2.9994,2.9994,2.9994,2.9994,2.9994,2.9994,2.9994,2.9994,2.9994,2.9994,2.9994,2.9994,2.9994,2.9994,2.9994,2.9994,2.9994,2.9994,2.9994,2.9994,2.9994,2.9994,2.9994,2.9994,2.9994,2.9994,2.9994,2.9994,2.9994,2.9994,2.9994,2.9994,2.9994,2.301,2.2487,2.194,2.2543,2.2242,2.1798,2.1798,2.1798,2.1829,2.1943,2.2635,2.3235,0.0,0.0,0.0,2.4652,2.5368,0.0,2.6063,2.679,0.0,2.7297,0.0,2.8605,2.8605,2.9446,0.0,0.0,2.9994,2.9994,2.9994,3.0453,3.0856,3.1212,3.174,3.2181,3.2522,3.2646,3.2698,3.2698,3.2698,3.2698,3.2698,3.2698,3.2698,3.2698,3.2698,3.2698,3.2698,3.2698,3.2698,3.2698,3.2698,3.2698,3.2698,3.2698,3.2698,3.2667,3.2454,3.2371,3.2319,3.1953,3.184,3.1771,3.1353,3.1219,3.1201,3.1087,3.0784,3.0525,3.0525,3.0266,2.9994,2.9994,2.9994,2.9994,2.9994,2.9994,2.9994,2.9994,2.9994,2.9994,2.9994,2.9994,2.9994,2.9994,2.9994,2.9994,2.9994,2.9994,2.9994,2.9994,2.9994,2.9994,2.9994,2.9994,2.9994,2.9994,2.9994,2.9994,2.9994,2.9994,2.9994,2.9994,2.9994,2.9994,2.9994,2.9994,2.9994,2.9994,2.9994,2.9994,2.2955,2.245,2.1912,2.2355,2.2129,2.1798,2.1798,2.1798,2.1859,2.2056,2.2531,0.0,2.3163,2.3774,0.0,0.0,0.0,0.0,2.6146,2.6665,2.7069,0.0,2.8071,0.0,2.8605,2.9446,2.9994,0.0,2.9994,3.0087,3.0308,3.0753,3.1208,3.165,3.2078,3.2425,3.2698,3.2698,3.2698,3.2698,3.2698,3.2698,3.2698,3.2698,3.2698,3.2698,0.0,3.2698,3.2698,3.2698,3.2698,3.2698,3.2698,3.2698,3.2698,3.2698,3.2698,3.2698,3.2698,3.2698,3.2657,3.2384,3.2315,3.2233,3.1792,3.1671,3.1629,3.1447,3.1212,3.1015,3.1015,3.0815,3.0618,3.0618,3.0618,3.0618,3.0618,3.0618,3.0618,3.0618,3.0618,3.0618,3.0618,3.0618,3.0618,3.0618,3.0618,3.0618,3.0618,3.0243,2.9994,2.9994,2.9994,2.9994,2.9994,2.9994,2.9994,2.9994,2.9994,2.9994,2.9994,2.9994,2.9994,2.9994,2.9994,2.9994,2.9994,2.9994,2.9994,3.0005,3.0214,3.0308,2.245,2.2186,2.1883,2.1883,2.1883,2.1874,2.1817,2.1798,2.1921,2.2325,0.0,2.2625,2.3028,2.3484,2.395,2.4342,0.0,2.5428,2.6374,2.6562,2.6769,2.7235,2.8071,2.8605,2.8605,2.9446,2.9994,2.9994,2.9994,3.0191,3.067,3.1149,3.1609,3.2074,3.2491,3.2698,3.2698,3.2698,3.2698,3.2698,3.2698,3.2698,3.2698,3.2698,3.2698,3.2698,3.2698,0.0,3.2698,3.2698,3.2698,3.2698,3.2698,3.2698,3.2698,3.2698,3.2698,3.2698,3.2698,3.2698,3.2698,3.2698,3.2698,3.2626,3.2222,3.2095,3.2026,3.1661,3.1529,3.1478,3.1478,3.1436,3.1408,3.1408,3.1408,3.1408,3.1408,3.1408,3.1408,3.1408,3.1408,3.1408,3.1408,3.1408,3.1408,3.1408,3.1408,3.1408,3.1408,3.0691,3.0194,3.0194,3.0194,3.0194,3.0194,3.0194,3.0194,3.0194,3.0194,3.0194,3.0194,3.0194,3.0194,3.0194,3.0194,3.0194,3.0194,3.0194,3.0194,3.0204,3.0608,3.0794,2.2721,2.26,2.2299,2.2299,2.2299,2.2205,2.1883,2.1798,0.0,0.0,2.2232,2.2522,2.2614,2.2997,2.3463,2.3929,2.4343,2.4953,2.5897,2.6365,2.6769,0.0,0.0,0.0,0.0,0.0,0.0,0.0,0.0,3.0191,3.067,3.1149,3.1754,3.2553,3.2657,3.2698,3.2698,3.2698,3.2698,3.2698,3.2698,3.2698,3.2698,3.2698,3.2698,3.2698,3.2698,0.0,3.2698,3.2698,3.2698,3.2698,3.2698,3.2698,3.2698,3.2698,3.2698,3.2698,3.2698,3.2698,3.2698,3.2698,3.2698,3.2673,3.2605,3.2584,3.2564,3.2491,3.2191,3.1902,3.1902,3.165,3.1408,3.1408,3.1408,3.1408,3.1408,3.1408,3.1408,3.1408,3.1408,3.1408,3.1408,3.1408,3.1408,3.1408,3.1408,3.1408,3.1408,3.1263,3.117,3.117,3.117,3.117,3.117,3.117,3.117,3.117,3.117,3.117,3.117,3.117,3.117,3.117,3.117,3.117,3.117,3.117,3.117,3.117,3.1229,3.1284,2.2777,2.2712,2.2346,2.2138,2.2252,2.2289,2.1893,0.0,0.0,0.0,2.1983,2.2139,2.2139,2.2511,0.0,2.3453,2.3898,2.4592,2.5742,2.6084,0.0,2.7215,0.0,0.0,0.0,0.0,0.0,0.0,0.0,3.0318,3.1036,3.1702,3.2267,3.2688,3.2698,3.2698,3.2698,3.2698,3.2698,3.2698,3.2698,3.2698,3.2698,3.2698,3.2698,3.2698,3.2698,0.0,3.2698,3.2698,3.2698,3.2698,3.2698,3.2698,3.2698,3.2698,3.2698,3.2698,3.2698,3.2698,3.2698,3.2698,3.2698,3.2698,3.2698,3.2698,3.2698,3.2698,3.2543,3.2353,3.2353,3.2212,3.2085,3.2085,3.2085,3.2085,3.2085,3.2085,3.2085,3.2085,3.2085,3.2085,3.2085,3.2085,3.2085,3.2085,3.2085,3.2085,3.2085,3.2085,3.1899,3.145,3.1408,3.1408,3.1408,3.1408,3.1408,3.1408,3.1408,3.1408,3.1408,3.1408,3.1408,3.1408,3.1408,3.1408,3.1408,3.1408,3.1408,3.1408,3.1609,3.1709,2.2572,2.2581,2.2318,2.2006,2.2177,2.2318,2.2007,2.1864,0.0,0.0,2.1798,2.1798,2.1798,0.0,2.2542,0.0,2.3505,2.4219,2.5565,2.5846,2.6208,0.0,2.7914,0.0,0.0,0.0,0.0,0.0,0.0,0.0,3.1367,3.2226,3.2698,3.2698,3.2698,3.2698,3.2698,3.2698,3.2698,3.2698,3.2698,3.2698,3.2698,3.2698,3.2698,3.2698,3.2698,0.0,0.0,3.2698,3.2698,3.2698,3.2698,3.2698,3.2698,3.2698,3.2698,3.2698,3.2698,3.2698,3.2698,3.2698,3.2698,3.2698,3.2698,3.2698,3.2698,3.2698,3.2698,3.2698,3.2698,3.2698,3.2698,3.2698,3.2698,3.2698,3.2698,3.2698,3.2698,3.2698,3.2698,3.2698,3.2698,3.2698,3.2698,3.2698,3.2698,3.2698,3.2698,3.2698,3.2443,3.1743,3.1685,3.1685,3.1685,3.1685,3.1685,3.1685,3.1685,3.1685,3.1685,3.1685,3.1685,3.1685,3.1685,3.1685,3.1685,3.1685,3.1685,3.1695,3.1995,3.2146,2.1893,2.2148,2.2384,2.2346,2.2365,2.2384,2.2346,0.0,2.1798,2.1798,2.1798,2.1798,2.1798,0.0,0.0,0.0,0.0,2.3722,2.5077,2.5627,2.6084,2.6592,0.0,0.0,0.0,0.0,0.0,0.0,0.0,0.0,3.1364,3.2226,3.2698,3.2698,3.2698,3.2698,3.2698,3.2698,3.2698,3.2698,3.2698,3.2698,3.2698,3.2698,3.2698,3.2698,3.2698,0.0,0.0,3.2698,3.2698,3.2698,3.2698,3.2698,3.2698,3.2698,3.2698,3.2698,3.2698,3.2698,3.2698,3.2698,3.2698,3.2698,3.2698,3.2698,3.2698,3.2698,3.2698,3.2698,3.2698,3.2698,3.2698,3.2698,3.2698,3.2698,3.2698,3.2698,3.2698,3.2698,3.2698,3.2698,3.2698,3.2698,3.2698,3.2698,3.2698,3.2698,3.2698,3.2698,3.2667,3.2584,3.2574,3.2574,3.2574,3.2574,3.2574,3.2574,3.2574,3.2574,3.2574,3.2574,3.2574,3.2574,3.2574,3.2574,3.2574,3.2574,3.2574,3.2574,3.2626,3.2636,2.2101,2.228,2.2402,2.2402,2.2402,2.2402,2.2402,0.0,2.1798,2.1798,2.1798,2.1798,2.1798,2.1798,0.0,0.0,0.0,0.0,2.4632,2.543,2.6074,2.654,2.7365,0.0,0.0,0.0,0.0,0.0,0.0,0.0,3.1364,3.1957,3.2419,3.2698,3.2698,3.2698,3.2698,3.2698,3.2698,3.2698,3.2698,3.2698,3.2698,3.2698,3.2698,3.2698,3.2698,0.0,0.0,3.2698,3.2698,3.2698,3.2698,3.2698,3.2698,3.2698,3.2698,3.2698,3.2698,3.2698,3.2698,3.2698,3.2698,3.2698,3.2698,3.2698,3.2698,3.2698,3.2698,3.2698,3.2698,3.2698,3.2698,3.2698,3.2698,3.2698,3.2698,3.2698,3.2698,3.2698,3.2698,3.2698,3.2698,3.2698,3.2698,3.2698,3.2698,3.2698,3.2698,3.2698,3.2698,3.2698,3.2698,3.2698,3.2698,3.2698,3.2698,3.2698,3.2698,3.2698,3.2698,3.2698,3.2698,3.2698,3.2698,3.2698,3.2698,3.2698,3.2698,3.2698,3.2698,3.2698,2.2148,2.2214,2.228,2.2525,2.2402,2.228,0.0,0.0,2.1798,2.1798,2.1798,2.1798,2.1798,2.1798,2.1943,2.2418,0.0,2.3463,2.4218,2.5223,2.6022,0.0,0.0,0.0,0.0,0.0,0.0,0.0,0.0,0.0,3.1377,3.1671,3.2088,3.2688,3.2698,3.2698,3.2698,3.2698,3.2698,3.2698,3.2698,3.2698,3.2698,3.2698,3.2698,3.2698,3.2698,0.0,0.0,3.2698,3.2698,3.2698,3.2698,3.2698,3.2698,3.2698,3.2698,3.2698,3.2698,3.2698,3.2698,3.2698,3.2698,3.2698,3.2698,3.2698,3.2698,3.2698,3.2698,3.2698,3.2698,3.2698,3.2698,3.2698,3.2698,3.2698,3.2698,3.2698,3.2698,3.2698,3.2698,3.2698,3.2698,3.2698,3.2698,3.2698,3.2698,3.2698,3.2698,3.2698,3.2698,3.2698,3.2698,3.2698,3.2698,3.2698,3.2698,3.2698,3.2698,3.2698,3.2698,3.2698,3.2698,3.2698,3.2698,3.2698,3.2698,3.2698,3.2698,3.2698,3.2698,3.2698,2.1807,2.1807,2.2007,2.2787,2.2402,2.2006,0.0,0.0,2.1798,2.1798,2.1798,2.1798,2.1798,2.1798,2.1943,2.2418,2.2894,0.0,2.3846,2.5058,2.5897,0.0,0.0,0.0,0.0,0.0,0.0,0.0,0.0,0.0,3.1357,3.1395,3.1795,3.2667,3.2698,3.2698,3.2698,3.2698,3.2698,3.2698,3.2698,3.2698,3.2698,3.2698,3.2698,0.0,0.0,0.0,0.0,3.2698,3.2698,3.2698,3.2698,3.2698,3.2698,3.2698,3.2698,3.2698,3.2698,3.2698,3.2698,3.2698,3.2698,3.2698,3.2698,3.2698,3.2698,3.2698,3.2698,3.2698,3.2698,3.2698,3.2698,3.2698,3.2698,3.2698,3.2698,3.2698,3.2698,3.2698,3.2698,3.2698,3.2698,3.2698,3.2698,3.2698,3.2698,3.2698,3.2698,3.2698,3.2698,3.2698,3.2698,3.2698,3.2698,3.2698,3.2698,3.2698,3.2698,3.2698,3.2698,3.2698,3.2698,3.2698,3.2698,3.2698,3.2698,3.2698,3.2698,3.2698,3.2698,3.2698,2.1798,2.1798,2.1931,2.2459,2.2186,2.194,2.2468,2.2176,2.1798,2.1798,2.1798,2.1798,2.1798,2.1798,2.185,2.2004,2.2677,2.3246,0.0,0.0,0.0,2.5897,2.7365,0.0,0.0,0.0,0.0,0.0,0.0,0.0,3.0887,3.1232,3.1795,3.2667,3.2698,3.2698,3.2698,3.2698,3.2698,3.2698,3.2698,3.2698,3.2698,3.2698,3.2698,0.0,0.0,0.0,0.0,3.2698,3.2698,3.2698,3.2698,3.2698,3.2698,3.2698,3.2698,3.2698,3.2698,3.2698,3.2698,3.2698,3.2698,3.2698,3.2698,3.2698,3.2698,3.2698,3.2698,3.2698,3.2698,3.2698,3.2698,3.2698,3.2698,3.2698,3.2698,3.2698,3.2698,3.2698,3.2698,3.2698,3.2698,3.2698,3.2698,3.2698,3.2698,3.2698,3.2698,3.2698,3.2698,3.2698,3.2698,3.2698,3.2698,3.2698,3.2698,3.2698,3.2698,3.2698,3.2698,3.2698,3.2698,3.2698,3.2698,3.2698,3.2698,3.2698,3.2698,3.2698,3.2698,3.2698,2.1746,2.1798,2.1902,2.2299,2.2101,2.1912,2.2308,0.0,2.1798,2.1798,2.1798,2.1798,2.1798,2.1798,2.1798,2.1798,2.2593,2.3194,0.0,0.0,0.0,2.6589,0.0,0.0,0.0,0.0,0.0,0.0,0.0,0.0,3.067,3.0981,3.1536,3.2419,3.2605,3.2698,3.2698,3.2698,3.2698,3.2698,3.2698,3.2698,3.2698,3.2698,3.2698,0.0,0.0,0.0,0.0,3.2698,3.2698,3.2698,3.2698,3.2698,3.2698,3.2698,3.2698,3.2698,3.2698,3.2698,3.2698,3.2698,3.2698,3.2698,3.2698,3.2698,3.2698,3.2698,3.2698,3.2698,3.2698,3.2698,3.2698,3.2698,3.2698,3.2698,3.2698,3.2698,3.2698,3.2698,3.2698,3.2698,3.2698,3.2698,3.2698,3.2698,3.2698,3.2698,3.2698,3.2698,3.2698,3.2698,3.2698,3.2698,3.2698,3.2698,3.2698,3.2698,3.2698,3.2698,3.2698,3.2698,3.2698,3.2698,3.2698,3.2698,3.2698,3.2698,3.2698,3.2698,3.2698,3.2698,0.0,2.1798,2.1893,2.2261,2.2083,2.1902,2.2271,0.0,0.0,2.1836,2.1817,2.1817,2.1836,2.1817,2.1798,2.1798,2.2593,2.3194,0.0,2.4758,0.0,0.0,2.8305,0.0,0.0,0.0,0.0,0.0,0.0,0.0,3.0629,3.068,3.1071,3.1877,3.2367,3.2636,3.2698,3.2698,3.2698,3.2698,3.2698,3.2698,3.2698,3.2698,3.2698,0.0,0.0,0.0,0.0,3.2698,3.2698,3.2698,3.2698,3.2698,3.2698,3.2698,3.2698,3.2698,3.2698,3.2698,3.2698,3.2698,3.2698,3.2698,3.2698,3.2698,3.2698,3.2698,3.2698,3.2698,3.2698,3.2698,3.2698,3.2698,3.2698,3.2698,3.2698,3.2698,3.2698,3.2698,3.2698,3.2698,3.2698,3.2698,3.2698,3.2698,3.2698,3.2698,3.2698,3.2698,3.2698,3.2698,3.2698,3.2698,3.2698,3.2698,3.2698,3.2698,3.2698,3.2698,3.2698,3.2698,3.2698,3.2698,3.2698,3.2698,3.2698,3.2698,3.2698,3.2698,3.2698,3.2698,2.157,0.0,2.1826,2.1921,2.1874,2.1826,0.0,0.0,0.0,0.0,0.0,2.1893,2.2195,2.2006,2.1798,2.1798,2.2593,2.3194,2.3194,0.0,0.0,2.7317,0.0,0.0,0.0,0.0,0.0,0.0,0.0,3.0046,3.0163,3.0504,3.0781,3.0998,3.1467,3.2033,3.2698,3.2698,3.2698,3.2698,3.2698,3.2698,3.2698,3.2698,3.2698,0.0,0.0,0.0,3.2698,3.2698,3.2698,3.2698,3.2698,3.2698,3.2698,3.2698,3.2698,3.2698,3.2698,3.2698,3.2698,3.2698,3.2698,3.2698,3.2698,3.2698,3.2698,3.2698,3.2698,3.2698,3.2698,3.2698,3.2698,3.2698,3.2698,3.2698,3.2698,3.2698,3.2698,3.2698,3.2698,3.2698,3.2698,3.2698,3.2698,3.2698,3.2698,3.2698,3.2698,3.2698,3.2698,3.2698,3.2698,3.2698,3.2698,3.2698,3.2698,3.2698,3.2698,3.2698,3.2698,3.2698,3.2698,3.2698,3.2698,3.2698,3.2698,3.2698,3.2698,3.2698,3.2698,3.2698,2.1282,2.1642,2.1798,2.1798,2.1798,2.1798,2.1798,0.0,0.0,0.0,0.0,2.1874,2.2082,2.2101,2.2089,2.2116,2.3044,0.0,0.0,0.0,2.649,2.7207,0.0,0.0,0.0,0.0,0.0,0.0,0.0,2.9994,2.9994,3.0232,3.0484,3.0691,3.095,3.1495,3.2377,3.2374,3.2491,3.2698,3.2698,3.2698,3.2698,3.2698,3.2698,0.0,0.0,0.0,3.2698,3.2698,3.2698,3.2698,3.2698,3.2698,3.2698,3.2698,3.2698,3.2698,3.2698,3.2698,3.2698,3.2698,3.2698,3.2698,3.2698,3.2698,3.2698,3.2698,3.2698,3.2698,3.2698,3.2698,3.2698,3.2698,3.2698,3.2698,3.2698,3.2698,3.2698,3.2698,3.2698,3.2698,3.2698,3.2698,3.2698,3.2698,3.2698,3.2698,3.2698,3.2698,3.2698,3.2698,3.2698,3.2698,3.2698,3.2698,3.2698,3.2698,3.2698,3.2698,3.2698,3.2698,3.2698,3.2698,3.2698,3.2698,3.2698,3.2698,3.2698,3.2698,3.2698,3.2698,2.1054,2.1498,2.1798,2.1798,2.1798,2.1798,2.1798,0.0,0.0,0.0,0.0,0.0,0.0,2.2157,0.0,0.0,0.0,0.0,2.6304,2.6492,2.6683,2.7241,0.0,0.0,0.0,0.0,0.0,0.0,0.0,2.9994,2.9994,2.9994,3.018,3.0577,3.0597,3.0988,3.1798,3.1881,3.214,3.2595,3.2595,3.2636,3.2698,3.2698,3.2698,3.2698,0.0,0.0,3.2698,3.2698,3.2698,3.2698,3.2698,3.2698,3.2698,3.2698,3.2698,3.2698,3.2698,3.2698,3.2698,3.2698,3.2698,3.2698,3.2698,3.2698,3.2698,3.2698,3.2698,3.2698,3.2698,3.2698,3.2698,3.2698,3.2698,3.2698,3.2698,3.2698,3.2698,3.2698,3.2698,3.2698,3.2698,3.2698,3.2698,3.2698,3.2698,3.2698,3.2698,3.2698,3.2698,3.2698,3.2698,3.2698,3.2698,3.2698,3.2698,3.2698,3.2698,3.2698,3.2698,3.2698,3.2698,3.2698,3.2698,3.2698,3.2698,3.2698,3.2698,3.2698,3.2698,3.2698,2.1456,2.1756,2.1798,2.1798,2.1798,2.1798,0.0,0.0,0.0,0.0,0.0,0.0,0.0,2.2308,2.2268,0.0,0.0,2.484,0.0,0.0,0.0,0.0,0.0,0.0,0.0,0.0,0.0,0.0,0.0,2.9994,2.9994,2.9994,3.0025,3.0111,3.0111,3.0356,3.0884,3.1288,3.1702,3.2105,3.2105,3.2326,3.2698,3.2698,3.2698,3.2698,0.0,3.2698,3.2698,3.2698,3.2698,3.2698,3.2698,3.2698,3.2698,3.2698,3.2698,3.2698,3.2698,3.2698,3.2698,3.2698,3.2698,3.2698,3.2698,3.2698,3.2698,3.2698,3.2698,3.2698,3.2698,3.2698,3.2698,3.2698,3.2698,3.2698,3.2698,3.2698,3.2698,3.2698,3.2698,3.2698,3.2698,3.2698,3.2698,3.2698,3.2698,3.2698,3.2698,3.2698,3.2698,3.2698,3.2698,3.2698,3.2698,3.2698,3.2698,3.2698,3.2698,3.2698,3.2698,3.2698,3.2698,3.2698,3.2698,3.2698,3.2698,3.2698,3.2698,3.2698,3.2698,3.2698,2.1239,2.1612,2.1855,2.2063,2.212,0.0,0.0,0.0,0.0,0.0,0.0,0.0,0.0,0.0,2.2942,2.4278,0.0,0.0,0.0,0.0,0.0,0.0,0.0,0.0,0.0,0.0,0.0,0.0,0.0,0.0,2.9994,2.9994,2.9994,2.9994,2.9994,3.0098,3.0328,3.0535,3.0988,3.1681,3.1681,3.1905,3.2312,3.2312,3.246,3.2698,0.0,3.2698,3.2698,3.2698,3.2698,3.2698,3.2698,3.2698,3.2698,3.2698,3.2698,3.2698,3.2698,3.2698,3.2698,3.2698,3.2698,3.2698,3.2698,3.2698,3.2698,3.2698,3.2698,3.2698,3.2698,3.2698,3.2698,3.2698,3.2698,3.2698,3.2698,3.2698,3.2698,3.2698,3.2698,3.2698,3.2698,3.2698,3.2698,3.2698,3.2698,3.2698,3.2698,3.2698,3.2698,3.2698,3.2698,3.2698,3.2698,3.2698,3.2698,3.2698,3.2698,3.2698,3.2698,3.2698,3.2698,3.2698,3.2698,3.2698,3.2698,3.2698,3.2698,3.2698,3.2698,3.2698,2.1146,2.1529,2.1902,2.2299,0.0,0.0,0.0,0.0,0.0,0.0,0.0,0.0,0.0,2.3637,0.0,2.4718,2.5613,0.0,0.0,0.0,0.0,0.0,0.0,0.0,0.0,0.0,0.0,0.0,0.0,0.0,2.9994,2.9994,2.9994,2.9994,2.9994,2.9994,2.9994,2.9994,3.0421,3.1243,3.1243,3.1454,3.186,3.186,3.2109,3.2543,3.2543,3.2605,3.2698,3.2698,3.2698,3.2698,3.2698,3.2698,3.2698,3.2698,3.2698,3.2698,3.2698,3.2698,3.2698,3.2698,3.2698,3.2698,3.2698,3.2698,3.2698,3.2698,3.2698,3.2698,3.2698,3.2698,3.2698,3.2698,3.2698,3.2698,3.2698,3.2698,3.2698,3.2698,3.2698,3.2698,3.2698,3.2698,3.2698,3.2698,3.2698,3.2698,3.2698,3.2698,3.2698,3.2698,3.2698,3.2698,3.2698,3.2698,3.2698,3.2698,3.2698,3.2698,3.2698,3.2698,3.2698,3.2698,3.2698,3.2698,3.2698,3.2698,3.2698,3.2698,3.2698,3.2698,2.1622,2.1767,2.1902,2.2299,0.0,0.0,0.0,0.0,0.0,0.0,0.0,0.0,0.0,2.5362,2.5753,2.423,2.5782,0.0,0.0,0.0,0.0,0.0,0.0,0.0,0.0,0.0,0.0,0.0,0.0,0.0,2.9994,2.9994,2.9994,2.9994,2.9994,2.9994,2.9994,2.9994,3.0243,3.0753,3.0753,3.0991,3.1436,3.1436,3.1671,3.2053,3.2053,3.2291,3.2698,3.2698,3.2698,3.2698,3.2698,3.2698,3.2698,3.2698,3.2698,3.2698,3.2698,3.2698,3.2698,3.2698,3.2698,3.2698,3.2698,3.2698,3.2698,3.2698,3.2698,3.2698,3.2698,3.2698,3.2698,3.2698,3.2698,3.2698,3.2698,3.2698,3.2698,3.2698,3.2698,3.2698,3.2698,3.2698,3.2698,3.2698,3.2698,3.2698,3.2698,3.2698,3.2698,3.2698,3.2698,3.2698,3.2698,3.2698,3.2698,3.2698,3.2698,3.2698,3.2698,3.2698,3.2698,3.2698,3.2698,3.2698,3.2698,3.2698,3.2698,3.2698,3.2698,3.2698,2.1579,2.1988,2.2205,2.2355,0.0,0.0,0.0,0.0,0.0,0.0,0.0,0.0,0.0,0.0,2.5771,2.486,2.6163,0.0,0.0,0.0,0.0,0.0,0.0,0.0,0.0,0.0,0.0,0.0,0.0,0.0,2.9994,2.9994,2.9994,2.9994,2.9994,2.9994,2.9994,2.9994,3.0087,3.0253,3.0253,3.0515,3.096,3.096,3.1208,3.1629,3.1629,3.1864,3.226,3.226,3.245,3.2698,3.2698,3.2698,3.2698,3.2698,3.2698,3.2698,3.2698,3.2698,3.2698,3.2698,3.2698,3.2698,3.2698,3.2698,3.2698,3.2698,3.2698,3.2698,3.2698,3.2698,3.2698,3.2698,3.2698,3.2698,3.2698,3.2698,3.2698,3.2698,3.2698,3.2698,3.2698,3.2698,3.2698,3.2698,3.2698,3.2698,3.2698,3.2698,3.2698,3.2698,3.2698,3.2698,3.2698,3.2698,3.2698,3.2698,3.2698,3.2698,3.2698,3.2698,3.2698,3.2698,3.2698,3.2698,3.2698,3.2698,3.2698,3.2698,3.2698,3.2698,2.1762,2.2186,2.2431,0.0,0.0,0.0,0.0,0.0,0.0,0.0,0.0,0.0,0.0,0.0,0.0,0.0,0.0,0.0,0.0,0.0,0.0,0.0,0.0,0.0,0.0,0.0,0.0,0.0,0.0,0.0,0.0,2.9994,2.9994,2.9994,2.9994,2.9994,2.9994,2.9994,2.9994,2.9994,2.9994,3.0173,3.0484,3.0484,3.0742,3.1181,3.1181,3.1412,3.1812,3.1812,3.2067,3.2487,3.2646,3.2698,3.2698,3.2698,3.2698,3.2698,3.2698,3.2698,3.2698,3.2698,3.2698,3.2698,3.2698,3.2698,3.2698,3.2698,3.2698,3.2698,3.2698,3.2698,3.2698,3.2698,3.2698,3.2698,3.2698,3.2698,3.2698,3.2698,3.2698,3.2698,3.2698,3.2698,3.2698,3.2698,3.2698,3.2698,3.2698,3.2698,3.2698,3.2698,3.2698,3.2698,3.2698,3.2698,3.2698,3.2698,3.2698,3.2698,3.2698,3.2698,3.2698,3.2698,3.2698,3.2698,3.2698,3.2698,3.2698,3.2698,3.2698,3.2698,2.228,2.2402,2.2506,0.0,0.0,0.0,0.0,0.0,0.0,0.0,0.0,0.0,0.0,0.0,0.0,0.0,0.0,0.0,0.0,0.0,0.0,0.0,0.0,0.0,0.0,0.0,0.0,0.0,0.0,0.0,0.0,2.9994,2.9994,2.9994,2.9994,2.9994,2.9994,2.9994,2.9994,2.9994,2.9994,2.9994,2.9994,2.9994,3.0243,3.0691,3.0691,3.096,3.1384,3.1408,3.164,3.2043,3.2512,3.2698,3.2698,3.2698,3.2698,3.2698,3.2698,3.2698,3.2698,3.2698,3.2698,3.2698,3.2698,3.2698,3.2698,3.2698,3.2698,3.2698,3.2698,3.2698,3.2698,3.2698,3.2698,3.2698,3.2698,3.2698,3.2698,3.2698,3.2698,3.2698,3.2698,3.2698,3.2698,3.2698,3.2698,3.2698,3.2698,3.2698,3.2698,3.2698,3.2698,3.2698,3.2698,3.2698,3.2698,3.2698,3.2698,3.2698,3.2698,3.2698,3.2698,3.2698,3.2698,3.2698,3.2698,3.2698,3.2698,3.2698,3.2698,3.2698,2.1826,2.2384,0.0,2.2618,0.0,0.0,0.0,0.0,0.0,0.0,0.0,0.0,0.0,0.0,0.0,0.0,0.0,0.0,0.0,0.0,0.0,0.0,0.0,0.0,0.0,0.0,0.0,0.0,0.0,0.0,0.0,2.9818,2.9994,2.9994,2.9994,2.9994,2.9994,2.9994,2.9994,2.9994,2.9994,2.9994,2.9994,2.9994,3.009,3.0214,3.0214,3.0473,3.0929,3.126,3.164,3.2012,3.2146,3.2419,3.2698,3.2698,3.2698,3.2698,3.2698,3.2698,3.2698,3.2698,3.2698,3.2698,3.2698,3.2698,3.2698,3.2698,3.2698,3.2698,3.2698,3.2698,3.2698,3.2698,3.2698,3.2698,3.2698,3.2698,3.2698,3.2698,3.2698,3.2698,3.2698,3.2698,3.2698,3.2698,3.2698,3.2698,3.2698,3.2698,3.2698,3.2698,3.2698,3.2698,3.2698,3.2698,3.2698,3.2698,3.2698,3.2698,3.2698,3.2698,3.2698,3.2698,3.2698,3.2698,3.2698,3.2698,3.2698,3.2698,3.2698,3.2698,2.2091,2.2515,0.0,2.3057,2.3538,2.4036,0.0,0.0,0.0,0.0,0.0,0.0,0.0,0.0,0.0,0.0,0.0,0.0,0.0,0.0,0.0,0.0,0.0,0.0,0.0,0.0,0.0,0.0,0.0,0.0,0.0,2.9466,2.9715,2.9715,2.9901,2.9994,2.9994,2.9994,2.9994,2.9994,2.9994,2.9994,2.9994,2.9994,2.9994,2.9994,2.9994,3.0163,3.0463,3.0929,3.1257,3.1498,3.1688,3.2026,3.2429,3.2429,3.2543,3.2698,3.2698,3.2698,3.2698,3.2698,3.2698,3.2698,3.2698,3.2698,3.2698,3.2698,3.2698,3.2698,3.2698,3.2698,3.2698,3.2698,3.2698,3.2698,3.2698,3.2698,3.2698,3.2698,3.2698,3.2698,3.2698,3.2698,3.2698,3.2698,3.2698,3.2698,3.2698,3.2698,3.2698,3.2698,3.2698,3.2698,3.2698,3.2698,3.2698,3.2698,3.2698,3.2698,3.2698,3.2698,3.2698,3.2698,3.2698,3.2698,3.2698,3.2698,3.2698,3.2698,3.2698,3.2698,2.2703,0.0,0.0,2.3815,2.387,0.0,2.5388,0.0,2.5279,0.0,0.0,0.0,0.0,0.0,0.0,0.0,0.0,0.0,0.0,0.0,0.0,0.0,0.0,0.0,0.0,0.0,0.0,0.0,0.0,0.0,0.0,2.8978,2.9259,2.9301,2.9715,2.9966,2.9994,2.9994,2.9994,2.9994,2.9994,2.9994,2.9994,2.9994,2.9994,2.9994,2.9994,2.9994,3.0025,3.0463,3.066,3.0742,3.1167,3.1588,3.194,3.1991,3.2274,3.2646,3.2688,3.2698,3.2698,3.2698,3.2698,3.2698,3.2698,3.2698,3.2698,3.2698,3.2698,3.2698,3.2698,3.2698,3.2698,3.2698,3.2698,3.2698,3.2698,3.2698,3.2698,3.2698,3.2698,3.2698,3.2698,3.2698,3.2698,3.2698,3.2698,3.2698,3.2698,3.2698,3.2698,3.2698,3.2698,3.2698,3.2698,3.2698,3.2698,3.2698,3.2698,3.2698,3.2698,3.2698,3.2698,3.2698,3.2698,3.2698,3.2698,3.2698,3.2698,3.2698,3.2698,3.2698,2.2101,2.2459,0.0,0.0,2.3666,2.4363,2.5446,2.5604,2.5821,0.0,0.0,0.0,0.0,0.0,0.0,0.0,0.0,0.0,0.0,0.0,0.0,0.0,0.0,0.0,0.0,0.0,0.0,0.0,0.0,0.0,2.8057,2.8502,2.8916,2.929,2.9404,2.9622,3.0007,2.9994,2.9994,0.0,2.9994,2.9994,2.9994,2.9994,2.9994,2.9994,2.9994,2.9994,3.0018,3.0111,3.037,3.0711,3.0805,3.1136,3.1567,3.1881,3.2064,3.2198,3.2574,3.2698,3.2698,3.2698,3.2698,3.2698,3.2698,3.2698,3.2698,3.2698,3.2698,3.2698,3.2698,3.2698,3.2698,3.2698,3.2698,3.2698,3.2698,3.2698,3.2698,3.2698,3.2698,3.2698,3.2698,3.2698,3.2698,3.2698,3.2698,3.2698,3.2698,3.2698,3.2698,3.2698,3.2698,3.2698,3.2698,3.2698,3.2698,3.2698,3.2698,3.2698,3.2698,3.2698,3.2698,3.2698,3.2698,3.2698,3.2698,3.2698,3.2698,3.2698,3.2698,3.2698,2.2092,0.0,0.0,2.3187,0.0,2.4464,2.5476,2.5706,2.5993,2.6994,0.0,0.0,0.0,0.0,0.0,0.0,0.0,0.0,0.0,0.0,0.0,0.0,0.0,0.0,0.0,0.0,0.0,0.0,0.0,2.7615,2.7615,2.8038,2.8378,2.8616,2.8843,2.9185,2.9663,2.9663,2.9777,2.9994,2.9994,2.9994,2.9994,2.9994,2.9994,2.9994,2.9994,2.9994,2.9994,2.9994,3.0139,3.037,3.037,3.0649,3.1115,3.1557,3.1829,3.2064,3.2543,3.2698,3.2698,3.2698,3.2698,3.2698,3.2698,3.2698,3.2698,3.2698,3.2698,3.2698,3.2698,3.2698,3.2698,3.2698,3.2698,3.2698,3.2698,3.2698,3.2698,3.2698,3.2698,3.2698,3.2698,3.2698,3.2698,3.2698,3.2698,3.2698,3.2698,3.2698,3.2698,3.2698,3.2698,3.2698,3.2698,3.2698,3.2698,3.2698,3.2698,3.2698,3.2698,3.2698,3.2698,3.2698,3.2698,3.2698,3.2698,3.2698,3.2698,3.2698,3.2698,3.2698,2.2214,0.0,2.259,2.3399,2.3852,0.0,2.5331,2.5627,2.5958,2.6889,0.0,0.0,0.0,0.0,0.0,0.0,0.0,0.0,0.0,0.0,0.0,0.0,0.0,0.0,0.0,0.0,0.0,0.0,0.0,2.7297,2.7297,2.7626,2.7829,2.79,2.8284,2.8698,2.9164,2.927,2.9485,2.988,2.9953,2.9994,2.9994,2.9994,2.9994,2.9994,2.9994,2.9994,2.9994,2.9994,2.9994,2.9994,2.9994,3.0245,3.0639,3.1118,3.1547,3.1964,3.2419,3.2636,3.2698,3.2698,3.2698,3.2698,3.2698,3.2698,3.2698,3.2698,3.2698,3.2698,3.2698,3.2698,3.2698,3.2698,3.2698,3.2698,3.2698,3.2698,3.2698,3.2698,3.2698,3.2698,3.2698,3.2698,3.2698,3.2698,3.2698,3.2698,3.2698,3.2698,3.2698,3.2698,3.2698,3.2698,3.2698,3.2698,3.2698,3.2698,3.2698,3.2698,3.2698,3.2698,3.2698,3.2698,3.2698,3.2698,3.2698,3.2698,3.2698,3.2698,3.2698,3.2698,0.0,0.0,2.259,0.0,2.3639,2.3905,0.0,0.0,2.5867,0.0,2.6921,0.0,0.0,0.0,0.0,0.0,0.0,0.0,0.0,0.0,0.0,0.0,0.0,0.0,0.0,0.0,0.0,0.0,2.7297,2.7297,2.7297,2.7349,2.7533,2.7889,2.7962,2.8222,2.8688,2.9104,2.9332,2.9404,2.9821,2.9994,2.9994,2.9994,2.9994,2.9994,2.9994,2.9994,2.9994,2.9994,2.9994,2.9994,2.9994,3.0036,3.0149,3.0618,3.1084,3.154,3.1953,3.2353,3.2698,3.2698,3.2698,3.2698,3.2698,3.2698,3.2698,3.2698,3.2698,3.2698,3.2698,3.2698,3.2698,3.2698,3.2698,3.2698,3.2698,3.2698,3.2698,3.2698,3.2698,3.2698,3.2698,3.2698,3.2698,3.2698,3.2698,3.2698,3.2698,3.2698,3.2698,3.2698,3.2698,3.2698,3.2698,3.2698,3.2698,3.2698,3.2698,3.2698,3.2698,3.2698,3.2698,3.2698,3.2698,3.2698,3.2698,3.2698,3.2698,3.2698,3.2698,3.2698,2.212,2.2271,2.2534,0.0,2.3427,2.3727,2.4181,0.0,2.5785,2.6099,2.6712,0.0,0.0,0.0,0.0,0.0,0.0,0.0,0.0,0.0,0.0,0.0,0.0,0.0,0.0,0.0,0.0,0.0,2.7297,2.7297,2.7297,2.7297,2.738,2.7553,2.7564,2.7769,2.82,2.8407,2.8781,2.9311,2.9777,2.9994,2.9994,2.9994,2.9994,2.9994,2.9994,2.9994,2.9994,2.9994,2.9994,2.9994,2.9994,2.9994,3.0069,3.0535,3.0991,3.1457,3.186,3.2315,3.2698,3.2698,3.2698,3.2698,3.2698,3.2698,3.2698,3.2698,3.2698,3.2698,3.2698,3.2698,3.2698,3.2698,3.2698,3.2698,3.2698,3.2698,3.2698,3.2698,3.2698,3.2698,3.2698,3.2698,3.2698,3.2698,3.2698,3.2698,3.2698,3.2698,3.2698,3.2698,3.2698,3.2698,3.2698,3.2698,3.2698,3.2698,3.2698,3.2698,3.2698,3.2698,3.2698,3.2698,3.2698,3.2698,3.2698,3.2698,3.2698,3.2698,3.2698,3.2698,0.0,0.0,2.2393,2.3001,2.3298,2.3499,0.0,0.0,2.5436,0.0,2.6317,0.0,0.0,0.0,0.0,0.0,0.0,0.0,0.0,0.0,0.0,0.0,0.0,0.0,0.0,0.0,0.0,0.0,2.7297,2.7297,2.7297,2.7297,2.7297,2.7297,2.7297,2.7441,2.7736,2.7848,2.8378,2.9298,2.9653,2.988,2.9994,2.9994,2.9994,2.9994,2.9994,2.9994,2.9994,2.9994,2.9994,2.9994,2.9994,2.9994,3.0036,3.0387,3.0815,3.1281,3.1698,3.214,3.2543,3.2667,3.2698,3.2698,3.2698,3.2698,3.2698,3.2698,3.2698,3.2698,3.2698,3.2698,3.2698,3.2698,3.2698,3.2698,3.2698,3.2698,3.2698,3.2698,3.2698,3.2698,3.2698,3.2698,3.2698,3.2698,3.2698,3.2698,3.2698,3.2698,3.2698,3.2698,3.2698,3.2698,3.2698,3.2698,3.2698,3.2698,3.2698,3.2698,3.2698,3.2698,3.2698,3.2698,3.2698,3.2698,3.2698,3.2698,3.2698,3.2698,3.2698,3.2698,0.0,2.212,0.0,2.3279,2.3298,0.0,0.0,0.0,0.0,0.0,2.5578,0.0,0.0,0.0,0.0,0.0,0.0,0.0,0.0,0.0,0.0,0.0,0.0,0.0,0.0,0.0,0.0,0.0,2.7297,2.7297,2.7297,2.7297,2.7297,2.7297,2.7297,2.7308,2.7329,2.7717,2.8378,2.9301,2.9319,2.957,2.9994,2.9994,2.9994,2.9994,2.9994,2.9994,2.9994,2.9994,2.9994,2.9994,2.9994,2.9994,2.9994,3.0038,3.0339,3.0805,3.126,3.1702,3.2105,3.2564,3.2698,3.2698,3.2698,3.2698,3.2698,3.2698,3.2698,3.2698,3.2698,3.2698,3.2698,3.2698,3.2698,3.2698,3.2698,3.2698,3.2698,3.2698,3.2698,3.2698,3.2698,3.2698,3.2698,3.2698,3.2698,3.2698,3.2698,3.2698,3.2698,3.2698,3.2698,3.2698,3.2698,3.2698,3.2698,3.2698,3.2698,3.2698,3.2698,3.2698,3.2698,3.2698,3.2698,3.2698,3.2698,3.2698,3.2698,3.2698,3.2698,3.2698,0.0,0.0,0.0,2.2337,2.2534,2.259,2.2468,2.3259,2.4063,2.423,2.4894,2.5534,0.0,0.0,0.0,0.0,0.0,0.0,0.0,0.0,0.0,0.0,0.0,0.0,0.0,0.0,0.0,0.0,0.0,2.7297,2.7297,2.7297,2.7297,2.7297,2.7297,2.7297,2.7297,2.7696,2.8065,2.8409,2.9009,2.9394,2.9559,2.986,2.9994,2.9994,2.9994,2.9994,2.9994,2.9994,2.9994,2.9994,2.9994,2.9994,2.9994,2.9994,3.0308,3.0774,3.1243,3.1671,3.2074,3.2553,3.2698,3.2698,3.2698,3.2698,3.2698,3.2698,3.2698,3.2698,3.2698,3.2698,3.2698,3.2698,3.2698,3.2698,3.2698,3.2698,3.2698,3.2698,3.2698,3.2698,3.2698,3.2698,3.2698,3.2698,3.2698,3.2698,3.2698,3.2698,3.2698,3.2698,3.2698,3.2698,3.2698,3.2698,3.2698,3.2698,3.2698,3.2698,3.2698,3.2698,3.2698,3.2698,3.2698,3.2698,3.2698,3.2698,3.2698,3.2698,3.2698,3.2698,2.1798,0.0,0.0,0.0,0.0,2.2327,2.2064,0.0,2.3372,2.3554,2.4087,2.4701,0.0,0.0,0.0,0.0,0.0,0.0,0.0,0.0,0.0,0.0,0.0,0.0,0.0,0.0,0.0,0.0,0.0,0.0,2.7297,2.7297,2.7297,2.7297,2.7297,2.7297,2.7297,2.7564,2.7767,2.791,2.8533,2.9001,2.9321,2.9622,2.9849,2.9994,2.9994,2.9994,2.9994,2.9994,2.9994,2.9994,2.9994,2.9994,2.9994,2.9994,3.0204,3.0535,3.0991,3.1433,3.186,3.2326,3.2574,3.2698,3.2698,3.2698,3.2698,3.2698,3.2698,3.2698,3.2698,3.2698,3.2698,3.2698,3.2698,3.2698,3.2698,3.2698,3.2698,3.2698,3.2698,3.2698,3.2698,3.2698,3.2698,3.2698,3.2698,3.2698,3.2698,3.2698,3.2698,3.2698,3.2698,3.2698,3.2698,3.2698,3.2698,3.2698,3.2698,3.2698,3.2698,3.2698,3.2698,3.2698,3.2698,3.2698,3.2698,3.2698,3.2698,3.2698,3.2698,3.2698,0.0,0.0,0.0,0.0,0.0,0.0,2.2384,0.0,2.253,2.3074,2.318,2.3439,2.4306,0.0,0.0,0.0,0.0,0.0,0.0,0.0,0.0,0.0,0.0,0.0,0.0,0.0,0.0,0.0,2.7277,2.7299,2.7297,2.7297,2.7297,2.7297,2.7297,2.7297,2.7297,2.7297,2.7503,2.7879,2.7889,2.8376,2.929,2.9288,2.9559,2.9994,2.9994,2.9994,2.9994,2.9994,2.9994,2.9994,2.9994,2.9994,2.9994,2.9994,2.9994,3.0067,3.0535,3.1015,3.1467,3.1871,3.2326,3.2698,3.2698,3.2698,3.2698,3.2698,3.2698,3.2698,3.2698,3.2698,3.2698,3.2698,3.2698,3.2698,3.2698,3.2698,3.2698,3.2698,3.2698,3.2698,3.2698,3.2698,3.2698,3.2698,3.2698,3.2698,3.2698,3.2698,3.2698,3.2698,3.2698,3.2698,3.2698,3.2698,3.2698,3.2698,3.2698,3.2698,3.2698,3.2698,3.2698,3.2698,3.2698,3.2698,3.2698,3.2698,3.2698,3.2698,3.2698,3.2698,2.1798,0.0,0.0,0.0,0.0,0.0,2.1969,2.1969,2.2086,2.2535,2.2659,2.2858,2.3386,0.0,0.0,0.0,0.0,0.0,0.0,0.0,0.0,0.0,0.0,0.0,0.0,0.0,0.0,0.0,2.679,2.6945,2.7277,2.7297,2.7297,2.7297,2.7297,2.7297,2.7297,2.7297,2.736,2.7472,2.7757,2.821,2.8802,2.9156,2.9559,2.9994,2.9994,2.9994,2.9994,2.9994,2.9994,2.9994,2.9994,2.9994,2.9994,2.9994,2.9994,3.0067,3.0535,3.1015,3.1467,3.1871,3.2326,3.2698,3.2698,3.2698,3.2698,3.2698,3.2698,3.2698,3.2698,3.2698,3.2698,3.2698,3.2698,3.2698,3.2698,3.2698,3.2698,3.2698,3.2698,3.2698,3.2698,3.2698,3.2698,3.2698,3.2698,3.2698,3.2698,3.2698,3.2698,3.2698,3.2698,3.2698,3.2698,3.2698,3.2698,3.2698,3.2698,3.2698,3.2698,3.2698,3.2698,3.2698,3.2698,3.2698,3.2698,3.2698,3.2698,3.2698,3.2698,3.2698,0.0,0.0,0.0,0.0,0.0,0.0,2.1798,2.1798,2.1874,0.0,2.2177,2.2331,2.2772,2.3304,0.0,0.0,0.0,0.0,0.0,0.0,0.0,0.0,0.0,0.0,0.0,2.5606,2.5792,2.627,2.6313,2.652,2.6976,2.7183,2.7297,2.7297,2.7297,2.7297,2.7297,2.7297,2.7297,2.7297,2.7533,2.7883,2.8313,2.8791,2.927,2.9715,2.9911,2.9994,2.9994,2.9994,2.9994,2.9994,2.9994,2.9994,2.9994,2.9994,2.9994,3.0036,3.0318,3.0846,3.1436,3.1667,3.2171,3.2698,3.2698,3.2698,3.2698,3.2698,3.2698,3.2698,3.2698,3.2698,3.2698,3.2698,3.2698,3.2698,3.2698,3.2698,3.2698,3.2698,3.2698,3.2698,3.2698,3.2698,3.2698,3.2698,3.2698,3.2698,3.2698,3.2698,3.2698,3.2698,3.2698,3.2698,3.2698,3.2698,3.2698,3.2698,3.2698,3.2698,3.2698,3.2698,3.2698,3.2698,3.2698,3.2698,3.2698,3.2698,3.2698,3.2698,3.2698,3.2698,0.0,0.0,0.0,0.0,0.0,0.0,2.1798,2.1798,2.1798,2.1798,2.1798,2.1932,2.2346,2.2459,2.2645,0.0,0.0,0.0,0.0,0.0,0.0,0.0,0.0,0.0,2.5076,2.5128,2.5315,2.5783,2.5877,2.6105,2.6571,2.6997,2.7246,2.7297,2.7297,2.7297,2.7297,2.7297,2.7297,2.7297,2.7297,2.7501,2.7921,2.8388,2.8853,2.9332,2.9798,2.9994,2.9994,2.9994,2.9994,2.9994,2.9994,2.9994,2.9994,2.9994,2.9994,2.9994,2.9994,3.0618,3.1408,3.1408,3.1992,3.2698,3.2698,3.2698,3.2698,3.2698,3.2698,3.2698,3.2698,3.2698,3.2698,3.2698,3.2698,3.2698,3.2698,3.2698,3.2698,3.2698,3.2698,3.2698,3.2698,3.2698,3.2698,3.2698,3.2698,3.2698,3.2698,3.2698,3.2698,3.2698,3.2698,3.2698,3.2698,3.2698,3.2698,3.2698,3.2698,3.2698,3.2698,3.2698,3.2698,3.2698,3.2698,3.2698,3.2698,3.2698,3.2698,3.2698,3.2698,3.2698,0.0,0.0,0.0,0.0,0.0,0.0,2.1798,2.1798,2.1798,0.0,2.1798,2.1828,2.1912,2.2242,2.2532,2.2615,0.0,0.0,0.0,0.0,0.0,0.0,0.0,0.0,2.4632,2.4642,2.4838,2.5304,2.57,2.6105,2.6571,2.6696,2.6914,2.7299,2.7297,2.7297,2.7297,2.7297,2.7297,2.7297,2.7297,2.7501,2.7921,2.8388,2.8853,2.9332,2.9798,2.9994,2.9994,2.9994,2.9994,2.9994,2.9994,2.9994,2.9994,2.9994,2.9994,2.9994,2.9994,3.0618,3.1408,3.1408,3.1992,3.2698,3.2698,3.2698,3.2698,3.2698,3.2698,3.2698,3.2698,3.2698,3.2698,3.2698,3.2698,3.2698,3.2698,3.2698,3.2698,3.2698,3.2698,3.2698,3.2698,3.2698,3.2698,3.2698,3.2698,3.2698,3.2698,3.2698,3.2698,3.2698,3.2698,3.2698,3.2698,3.2698,3.2698,3.2698,3.2698,3.2698,3.2698,3.2698,3.2698,3.2698,3.2698,3.2698,3.2698,3.2698,3.2698,3.2698,3.2698,3.2698,0.0,0.0,0.0,2.1798,0.0,0.0,0.0,2.1798,2.1798,2.1798,2.1798,2.1798,2.1798,0.0,2.2149,2.2149,2.2542,0.0,0.0,0.0,0.0,0.0,0.0,0.0,2.4497,2.4497,2.4601,2.4838,2.5295,2.5658,2.5885,2.6353,2.6707,2.6945,2.7173,2.7297,2.7297,2.7297,2.7297,2.7297,2.7297,2.7411,2.7626,2.8046,2.8512,2.899,2.9446,2.9777,2.9994,2.9994,2.9994,2.9994,2.9994,2.9994,2.9994,2.9994,2.9994,2.9994,2.9994,3.0618,3.1408,3.1408,3.1992,3.2698,3.2698,3.2698,3.2698,3.2698,3.2698,3.2698,3.2698,3.2698,3.2698,3.2698,3.2698,3.2698,3.2698,3.2698,3.2698,3.2698,3.2698,3.2698,3.2698,3.2698,3.2698,3.2698,3.2698,3.2698,3.2698,3.2698,3.2698,3.2698,3.2698,3.2698,3.2698,3.2698,3.2698,3.2698,3.2698,3.2698,3.2698,3.2698,3.2698,3.2698,3.2698,3.2698,3.2698,3.2698,3.2698,3.2698,3.2698,3.2698,0.0,0.0,0.0,0.0,0.0,2.1798,0.0,0.0,0.0,2.1798,2.1798,0.0,0.0,0.0,0.0,0.0,0.0,0.0,0.0,0.0,0.0,0.0,0.0,0.0,2.4384,2.4445,2.4497,2.4497,2.4859,2.5107,2.519,2.5916,2.6415,2.6581,2.6966,2.7204,2.7297,2.7297,2.7297,2.7297,2.7297,2.7297,2.7308,2.7717,2.816,2.8626,2.9104,2.957,2.9994,2.9994,2.9994,2.9994,2.9994,2.9994,2.9994,2.9994,2.9994,2.9994,2.9994,3.0556,3.1284,3.1377,3.1992,3.2698,3.2698,3.2698,3.2698,3.2698,3.2698,3.2698,3.2698,3.2698,3.2698,3.2698,3.2698,3.2698,3.2698,3.2698,3.2698,3.2698,3.2698,3.2698,3.2698,3.2698,3.2698,3.2698,3.2698,3.2698,3.2698,3.2698,3.2698,3.2698,3.2698,3.2698,3.2698,3.2698,3.2698,3.2698,3.2698,3.2698,3.2698,3.2698,3.2698,3.2698,3.2698,3.2698,3.2698,3.2698,3.2698,3.2698,3.2698,3.2698,0.0,0.0,0.0,0.0,2.1798,0.0,0.0,0.0,2.1798,2.1798,0.0,0.0,0.0,0.0,0.0,0.0,0.0,0.0,2.2439,2.2593,2.2832,2.3298,0.0,0.0,0.0,2.4291,2.4497,2.4497,2.4549,2.4755,2.5179,2.5293,2.5739,2.6571,2.6655,2.6883,2.7299,2.7297,2.7297,2.7297,2.7297,2.7297,2.7308,2.7717,2.816,2.8626,2.9104,2.957,2.9994,2.9994,2.9994,2.9994,2.9994,2.9994,2.9994,2.9994,2.9994,2.9994,2.9994,3.0336,3.0846,3.126,3.1992,3.2698,3.2698,3.2698,3.2698,3.2698,3.2698,3.2698,3.2698,3.2698,3.2698,3.2698,3.2698,3.2698,3.2698,3.2698,3.2698,3.2698,3.2698,3.2698,3.2698,3.2698,3.2698,3.2698,3.2698,3.2698,3.2698,3.2698,3.2698,3.2698,3.2698,3.2698,3.2698,3.2698,3.2698,3.2698,3.2698,3.2698,3.2698,3.2698,3.2698,3.2698,3.2698,3.2698,3.2698,3.2698,3.2698,3.2698,3.2698,3.2698,0.0,0.0,0.0,0.0,0.0,0.0,2.1912,0.0,2.1798,0.0,0.0,0.0,0.0,0.0,0.0,0.0,2.1798,0.0,0.0,0.0,2.2366,0.0,0.0,0.0,0.0,0.0,0.0,0.0,2.4497,2.459,2.4776,2.5055,2.5512,2.6167,2.6468,2.6821,2.7299,2.7297,2.7297,2.7297,2.7297,2.7297,2.732,2.7472,2.7935,2.8616,2.8812,2.9321,2.9994,2.9994,2.9994,2.9994,2.9994,2.9994,2.9994,2.9994,2.9994,2.9994,2.9994,3.0308,3.0815,3.1512,3.2171,3.2698,3.2698,3.2698,3.2698,3.2698,3.2698,3.2698,3.2698,3.2698,3.2698,3.2698,3.2698,3.2698,3.2698,3.2698,3.2698,3.2698,3.2698,3.2698,3.2698,3.2698,3.2698,3.2698,3.2698,3.2698,3.2698,3.2698,3.2698,3.2698,3.2698,3.2698,3.2698,3.2698,3.2698,3.2698,3.2698,3.2698,3.2698,3.2698,3.2698,3.2698,3.2698,3.2698,3.2698,3.2698,3.2698,3.2698,3.2698,3.2698,2.2176,0.0,0.0,0.0,0.0,0.0,0.0,0.0,0.0,0.0,0.0,0.0,0.0,0.0,0.0,0.0,0.0,2.1798,0.0,0.0,0.0,0.0,0.0,0.0,0.0,0.0,0.0,0.0,0.0,2.4497,2.4497,2.4817,2.5222,2.57,2.6167,2.6634,2.7101,2.7247,2.7297,2.7297,2.7297,2.7297,2.7297,2.7297,2.7783,2.8605,2.8605,2.9122,2.9994,2.9994,2.9994,2.9994,2.9994,2.9994,3.0047,3.0326,3.0258,3.0047,3.0349,3.0631,3.1001,3.1626,3.2222,3.2698,3.2698,3.2698,3.2698,3.2698,3.2698,3.2698,3.2698,3.2698,3.2698,3.2698,3.2698,3.2698,3.2698,3.2698,3.2698,3.2698,3.2698,3.2698,3.2698,3.2698,3.2698,3.2698,3.2698,3.2698,3.2698,3.2698,3.2698,3.2698,3.2698,3.2698,3.2698,3.2698,3.2698,3.2698,3.2698,3.2698,3.2698,3.2698,3.2698,3.2698,3.2698,3.2698,3.2698,3.2698,3.2698,3.2698,3.2698,3.2698,0.0,0.0,0.0,2.2007,0.0,0.0,0.0,0.0,2.1798,0.0,0.0,0.0,0.0,0.0,0.0,0.0,0.0,0.0,0.0,0.0,0.0,0.0,0.0,0.0,0.0,0.0,0.0,0.0,0.0,0.0,2.4497,2.4507,2.4745,2.521,2.5679,2.6146,2.6624,2.7069,2.7297,2.7297,2.7297,2.7297,2.7297,2.7297,2.7783,2.8605,2.8605,2.9122,2.9994,2.9994,2.9994,2.9994,2.9994,2.9994,3.0138,3.1174,3.0888,3.0141,3.1187,3.1481,3.1388,3.1419,3.2002,3.2698,3.2698,3.2698,3.2698,3.2698,3.2698,3.2698,3.2698,3.2698,3.2698,3.2698,3.2698,3.2698,3.2698,3.2698,3.2698,3.2698,3.2698,3.2698,3.2698,3.2698,3.2698,3.2698,3.2698,3.2698,3.2698,3.2698,3.2698,3.2698,3.2698,3.2698,3.2698,3.2698,3.2698,3.2698,3.2698,3.2698,3.2698,3.2698,3.2698,3.2698,3.2698,3.2698,3.2698,3.2698,3.2698,3.2698,3.2698,3.2698,0.0,0.0,2.4324,2.352,0.0,0.0,0.0,0.0,0.0,0.0,0.0,0.0,0.0,0.0,0.0,0.0,0.0,0.0,0.0,0.0,0.0,0.0,0.0,0.0,0.0,0.0,0.0,0.0,0.0,0.0,0.0,2.4497,2.4725,2.519,2.5669,2.6137,2.6603,2.7069,2.7297,2.7297,2.7297,2.7297,2.7297,2.7297,2.7783,2.8605,2.8605,2.9122,2.9994,2.9994,2.9994,2.9994,2.9994,3.043,3.1097,3.1471,3.1368,3.1109,3.1472,3.1507,3.1408,3.1408,3.1992,3.2698,3.2698,3.2698,3.2698,3.2698,3.2698,3.2698,3.2698,3.2698,3.2698,3.2698,3.2698,3.2698,3.2698,3.2698,3.2698,3.2698,3.2698,3.2698,3.2698,3.2698,3.2698,3.2698,3.2698,3.2698,3.2698,3.2698,3.2698,3.2698,3.2698,3.2698,3.2698,3.2698,3.2698,3.2698,3.2698,3.2698,3.2698,3.2698,3.2698,3.2698,3.2698,3.2698,3.2698,3.2698,3.2698,3.2698,3.2698,3.2698,2.4934,2.5188,0.0,2.4347,2.409,0.0,2.3495,0.0,0.0,0.0,0.0,0.0,0.0,0.0,0.0,0.0,0.0,0.0,0.0,2.1798,0.0,0.0,0.0,0.0,0.0,0.0,0.0,0.0,0.0,0.0,0.0,0.0,2.4631,2.4942,2.5564,2.6043,2.6354,2.6976,2.7297,2.7297,2.7297,2.7297,2.7297,2.7297,2.7783,2.8605,2.8605,2.9122,2.9994,2.9994,3.0219,3.0562,3.0562,3.1212,3.2121,3.174,3.16,3.156,3.1161,3.1198,3.1408,3.1408,3.1992,3.2784,3.3204,3.3346,3.342,3.3822,3.3649,3.3346,3.3346,3.3016,3.2698,3.2698,3.2698,3.2698,3.2698,3.2698,3.2698,3.2698,3.2698,3.2698,3.2698,3.3058,3.319,3.2755,3.2698,3.2698,3.2698,3.2698,3.2698,3.2698,3.2698,3.2698,3.2698,3.2698,3.2698,3.2698,3.2698,3.2698,3.2698,3.2698,3.2698,3.2698,3.2698,3.2698,3.2698,3.2698,3.2698,3.2698,3.2698,3.2698]}]]